[[{"header":{"parameterUnit":"m.s-1","parameterCategory":1,"la1":30.6,"la2":29.2853,"lo1":-89.7004,"lo2":-87.6739,"dx":0.0162,"dy":0.0183,"nx":112,"ny":82,"refTime":"2023-01-06T18:00:00:Z","depth":0,"parameterNumber":2,"parameterNumberName":"U-component_of_WINDS"},"data":[0.0,0.0,0.0,0.0,0.0,0.0,0.0,0.0,0.0,0.0,0.0,0.0,0.0,0.0,0.0,0.0,0.0,0.0,0.0,0.0,0.0,0.0,0.0,0.0,0.0,0.0,0.0,0.0,0.0,0.0,0.0,0.0,0.0,0.0,0.0,0.0,0.0,0.0,0.0,0.0,0.0,0.0,0.0,0.0,0.0,0.0,0.0,0.0,0.0,0.0,0.0,0.0,0.0,0.0,0.0,0.0,0.0,0.0,0.0,0.0,0.0,0.0,0.0,0.0,0.0,0.0,0.0,0.0,0.0,0.0,0.0,0.0,0.0,0.0,0.0,0.0,0.0,0.0,0.0,0.0,0.0,0.0,0.0,0.0,0.0,0.0,0.0,0.0,0.0,0.0,0.325,-0.3115,-1.0212,-1.373,-1.1848,-1.1173,-0.8488,-0.2947,0.0,0.0,0.0,0.0,0.0,0.0,0.0,0.0,0.0,0.0,0.0,0.0,0.0,0.0,0.0,0.0,0.0,0.0,0.0,0.0,0.0,0.0,0.0,0.0,0.0,0.0,0.0,0.0,0.0,0.0,0.0,0.0,0.0,0.0,0.0,0.0,0.0,0.0,0.0,0.0,0.0,0.0,0.0,0.0,0.0,0.0,0.0,0.0,0.0,0.0,0.0,0.0,0.0,0.0,0.0,0.0,0.0,0.0,0.0,0.0,0.0,0.0,0.0,0.0,0.0,0.0,0.0,0.0,0.0,0.0,0.0,0.0,0.0,0.0,0.0,0.0,0.0,0.0,0.0,0.0,0.0,0.0,0.0,0.0,0.0,0.0,0.0,0.0,0.0,0.0,0.0,0.0,0.0,0.0,0.0,0.0,0.0,0.0,0.0,0.0,0.0,0.0,0.0,0.0,-0.2588,-0.8576,-1.2045,-1.3294,-1.1739,-1.1329,-0.8845,-0.3427,0.0,0.0,0.0,0.0,0.0,0.0,0.0,0.0,0.0,0.0,0.0,0.0,0.0,0.0,0.0,0.0,0.0,0.0,0.0,0.0,0.0,0.0,0.0,0.0,0.0,0.0,0.0,0.0,0.0,0.0,0.0,0.0,0.0,0.0,0.0,0.0,0.0,0.0,0.0,0.0,0.0,0.0,0.0,0.0,0.0,0.0,0.0,0.0,0.0,0.0,0.0,0.0,0.0,0.0,0.0,0.0,0.0,0.0,0.0,0.0,0.0,0.0,0.0,0.0,0.0,0.0,0.0,0.0,0.0,0.0,0.0,0.0,0.0,0.0,0.0,0.0,0.0,0.0,0.0,0.0,0.0,0.0,0.0,0.0,0.0,0.0,0.0,0.0,0.0,0.0,0.0,0.0,0.0,0.0,0.0,0.0,0.0,0.0,0.0,0.0,0.0,0.0,0.0,-0.2174,-0.5966,-1.0117,-1.2307,-1.2877,-1.1409,-1.006,-0.7189,-0.2197,0.1385,0.0,0.0,0.0,0.0,0.0,0.0,0.0,0.0,0.0,0.0,0.0,0.0,0.0,0.0,0.0,0.0,0.0,0.0,0.0,0.0,0.0,0.0,0.0,0.0,0.0,0.0,0.0,0.0,0.0,0.0,0.0,0.0,0.0,0.0,0.0,0.0,0.0,0.0,0.0,0.0,0.0,0.0,0.0,0.0,0.0,0.0,0.0,0.0,0.0,0.0,0.0,0.0,0.0,0.0,0.0,0.0,0.0,0.0,0.0,0.0,0.0,0.0,0.0,0.0,0.0,0.0,0.0,0.0,0.0,0.0,0.0,0.0,0.0,0.0,0.0,0.0,0.0,0.0,0.0,0.0,0.0,0.0,0.0,0.0,0.0,0.0,0.0,0.0,0.0,0.0,0.0,0.0,0.0,0.0,0.0,0.0,0.0,0.0,0.0,0.0,0.0,0.0,-0.4991,-0.7775,-0.9936,-1.0818,-1.0819,-0.9742,-0.7823,-0.4811,-0.0403,0.197,0.0,0.0,0.0,0.0,0.0,0.0,0.0,0.0,0.0,0.0,0.0,0.0,0.0,0.0,0.0,0.0,0.0,0.0,0.0,0.0,0.0,0.0,0.0,0.0,0.0,0.0,0.0,0.0,0.0,0.0,0.0,0.0,0.0,0.0,0.0,0.0,0.0,0.0,0.0,0.0,0.0,0.0,0.0,0.0,0.0,0.0,0.0,0.0,0.0,0.0,0.0,0.0,0.0,0.0,0.0,0.0,0.0,0.0,0.0,0.0,0.0,0.0,0.0,0.0,0.0,0.0,0.0,0.0,0.0,0.0,0.0,0.0,0.0,0.0,0.0,0.0,0.0,0.0,0.0,0.0,0.0,0.0,0.0,0.0,0.0,0.0,0.0,0.0,0.0,0.0,0.0,0.0,0.0,0.0,0.0,0.0,0.0,0.0,0.0,0.0,0.0,0.0,-0.5947,-0.7891,-0.857,-0.6746,-0.5539,-0.5678,-0.4467,-0.2126,0.1559,0.3887,0.0,0.0,0.0,0.0,0.0,0.0,0.0,0.0,0.0,0.0,0.0,0.0,0.0,0.0,0.0,0.0,0.0,0.0,0.0,0.0,0.0,0.0,0.0,0.0,0.0,0.0,0.0,0.0,0.0,0.0,0.0,0.0,0.0,0.0,0.0,0.0,0.0,0.0,0.0,0.0,0.0,0.0,0.0,0.0,0.0,0.0,0.0,0.0,0.0,0.0,0.0,0.0,0.0,0.0,0.0,0.0,0.0,0.0,0.0,0.0,0.0,0.0,0.0,0.0,0.0,0.0,0.0,0.0,0.0,0.0,0.0,0.0,0.0,0.0,0.0,0.0,0.0,0.0,0.0,0.0,0.0,0.0,0.0,0.0,0.0,0.0,0.0,0.0,0.0,0.0,0.0,0.0,0.0,0.0,0.0,0.0,0.0,0.0,0.0,0.0,0.0,0.0,-0.4891,-0.574,-0.5469,-0.4223,-0.2051,0.127,0.1574,0.2925,0.6051,0.0,0.0,0.0,0.0,0.0,0.0,0.0,0.0,0.0,0.0,0.0,0.0,0.0,0.0,0.0,0.0,0.0,0.0,0.0,0.0,0.0,0.0,0.0,0.0,0.0,0.0,0.0,0.0,0.0,0.0,0.0,0.0,0.0,0.0,0.0,0.0,0.0,0.0,0.0,0.0,0.0,0.0,0.0,0.0,0.0,0.0,0.0,0.0,0.0,0.0,0.0,0.0,0.0,0.0,0.0,0.0,0.0,0.0,0.0,0.0,0.0,0.0,0.0,0.0,0.0,0.0,0.0,0.0,0.0,0.0,0.0,0.0,0.0,0.0,0.0,0.0,0.0,0.0,0.0,0.0,0.0,0.0,0.0,0.0,0.0,0.0,0.0,0.0,0.0,0.0,0.0,0.0,0.0,0.0,0.0,0.0,0.0,0.0,0.0,0.0,0.0,0.0,-0.3056,-0.3659,-0.363,-0.28,-0.0745,0.2158,0.6131,0.7145,0.8063,0.9127,0.0,0.0,0.0,0.0,0.0,0.0,0.0,0.0,0.0,0.0,0.0,0.0,0.0,0.0,0.0,0.0,0.0,0.0,0.0,0.0,0.0,0.0,0.0,0.0,0.0,0.0,0.0,0.0,0.0,0.0,0.0,0.0,0.0,0.0,0.0,0.0,0.0,0.0,0.0,0.0,0.0,0.0,0.0,0.0,0.0,0.0,0.0,0.0,0.0,0.0,0.0,0.0,0.0,0.0,0.0,0.0,0.0,0.0,0.0,0.0,0.0,0.0,0.0,0.0,0.0,0.0,0.0,0.0,0.0,0.0,0.0,0.0,0.0,0.0,0.0,0.0,0.0,0.0,0.0,0.0,0.0,0.0,0.0,0.0,0.0,0.0,0.0,0.0,0.0,0.0,0.0,0.0,0.0,0.0,0.0,0.0,0.0,0.0,0.0,0.0,0.0,0.0,-0.2489,-0.2453,-0.1929,-0.0833,0.4002,0.7452,0.8128,1.1794,1.2944,0.0,0.0,0.0,0.0,0.0,0.0,0.0,0.0,0.0,0.0,0.0,0.0,0.0,0.0,0.0,0.0,0.0,0.0,0.0,0.0,0.0,0.0,0.0,0.0,0.0,0.0,0.0,0.0,0.0,0.0,0.0,0.0,0.0,0.0,0.0,0.0,0.0,0.0,0.0,0.0,0.0,0.0,0.0,0.0,0.0,0.0,0.0,0.0,0.0,0.0,0.0,0.0,0.0,0.0,0.0,0.0,0.0,0.0,0.0,0.0,0.0,0.0,0.0,0.0,0.0,0.0,0.0,0.0,0.0,0.0,0.0,0.0,0.0,0.0,0.0,0.0,0.0,0.0,0.0,0.0,0.0,0.0,0.0,0.0,0.0,0.0,0.0,0.0,0.0,0.0,0.0,0.0,0.0,0.0,0.0,0.0,0.0,0.0,0.0,0.0,0.0,0.0,0.0,-0.1525,-0.0356,0.1406,0.3811,0.829,1.1714,1.3189,1.5951,1.6101,1.2577,0.0,0.0,0.0,0.0,0.0,0.0,0.0,0.0,0.0,0.0,0.0,0.0,0.0,0.0,0.0,0.0,0.0,0.0,0.0,0.0,0.0,0.0,0.0,0.0,0.0,0.0,0.0,0.0,0.0,0.0,0.0,0.0,0.0,0.0,0.0,0.0,0.0,0.0,0.0,0.0,0.0,0.0,0.0,0.0,0.0,0.0,0.0,0.0,0.0,0.0,0.0,0.0,0.0,0.0,0.0,0.0,0.0,0.0,0.0,0.0,0.0,0.0,0.0,0.0,0.0,0.0,0.0,0.0,0.0,0.0,0.0,0.0,0.0,0.0,0.0,0.0,0.0,0.0,0.0,0.0,0.0,0.0,0.0,0.0,0.0,0.0,0.0,0.0,0.0,0.0,0.0,0.0,0.0,0.0,0.0,0.0,0.0,0.0,0.0,0.0,0.0,0.0,-0.0884,0.0772,0.3044,0.6016,1.0346,1.3918,1.6181,1.8436,1.8266,1.4795,0.0,0.0,0.0,0.0,0.0,0.0,0.0,0.0,0.0,0.0,0.0,0.0,0.0,0.0,0.0,0.0,0.0,0.0,0.0,0.0,0.0,0.0,0.0,0.0,0.0,0.0,0.0,0.0,0.0,0.0,0.0,0.0,0.0,0.0,0.0,0.0,0.0,0.0,0.0,0.0,0.0,0.0,0.0,0.0,0.0,0.0,0.0,0.0,0.0,0.0,0.0,0.0,0.0,0.0,0.0,0.0,0.0,0.0,0.0,0.0,0.0,0.0,0.0,0.0,0.0,0.0,0.0,0.0,0.0,0.0,0.0,0.0,0.0,0.0,0.0,0.0,0.0,0.0,0.0,0.0,0.0,0.0,0.0,0.0,0.0,0.0,0.0,0.0,0.0,0.0,0.0,0.0,0.0,0.0,0.0,0.0,0.0,0.0,0.0,0.0,0.0,0.0,-0.0401,0.1326,0.361,0.6584,1.0936,1.479,1.7673,1.9742,1.9702,1.6847,0.0,0.0,0.0,0.0,0.0,0.0,0.0,0.0,0.0,0.0,0.0,0.0,0.0,0.0,0.0,0.0,0.0,0.0,0.0,0.0,0.0,0.0,0.0,0.0,0.0,0.0,0.0,0.0,0.0,0.0,0.0,0.0,0.0,0.0,0.0,0.0,0.0,0.0,0.0,0.0,0.0,0.0,0.0,0.0,0.0,0.0,0.0,0.0,0.0,0.0,0.0,0.0,0.0,0.0,0.0,0.0,0.0,0.0,0.0,0.0,-2.1983,-2.0233,0.0,0.0,0.0,0.0,0.0,0.0,0.0,0.0,0.0,0.0,0.0,0.0,0.0,0.0,0.0,0.0,0.0,0.0,0.0,0.0,0.0,0.0,0.0,0.0,0.0,0.0,0.0,0.0,0.0,0.0,0.0,0.0,0.0,0.0,0.0,0.0,0.0,0.0,0.0,0.0,0.0388,0.2857,0.5575,0.824,1.2993,1.6934,1.9305,2.1306,2.1162,1.818,1.5246,0.0,0.0,0.0,0.0,0.0,0.0,0.0,0.0,0.0,0.0,0.0,0.0,0.0,0.0,0.0,0.0,0.0,0.0,0.0,0.0,0.0,0.0,0.0,0.0,0.0,0.0,0.0,0.0,0.0,0.0,0.0,0.0,0.0,0.0,0.0,0.0,0.0,0.0,0.0,0.0,0.0,0.0,0.0,0.0,0.0,0.0,0.0,0.0,0.0,0.0,0.0,0.0,0.0,0.0,0.0,0.0,0.0,0.0,0.0,-2.3363,-2.2458,0.0,0.0,0.0,0.0,0.0,0.0,0.0,0.0,0.0,0.0,0.0,0.0,0.0,0.0,0.0,0.0,0.0,0.0,0.0,0.0,0.0,0.0,0.0,0.0,0.0,0.0,0.0,0.0,0.0,0.0,0.0,0.0,0.0,0.0,0.0,0.0,0.0,0.0,0.0,0.0,0.0998,0.3269,0.5942,0.8846,1.2837,1.6339,1.8868,2.0659,2.076,1.8681,1.6068,0.0,0.0,0.0,0.0,0.0,0.0,0.0,0.0,0.0,0.0,0.0,0.0,0.0,0.0,0.0,0.0,0.0,0.0,0.0,0.0,0.0,0.0,0.0,0.0,0.0,0.0,0.0,0.0,0.0,0.0,0.0,0.0,0.0,0.0,0.0,0.0,0.0,0.0,0.0,0.0,0.0,0.0,0.0,0.0,0.0,0.0,0.0,0.0,0.0,0.0,0.0,0.0,0.0,-2.3239,-2.3144,-2.2919,-2.3854,-2.4683,-2.5388,-2.5108,-2.5198,-2.5383,-2.3618,0.0,0.0,0.0,0.0,0.0,0.0,0.0,0.0,0.0,0.0,0.0,0.0,0.0,0.0,0.0,0.0,0.0,0.0,0.0,0.0,0.0,0.0,-1.8414,-1.9045,-2.0461,-2.1581,-2.1285,0.0,0.0,0.0,0.0,0.0,0.0,0.0,0.0,0.0,0.0,0.0,0.1455,0.331,0.5736,0.8841,1.1906,1.4903,1.7731,1.9426,1.9881,1.8898,1.6859,1.399,0.0,0.0,0.0,0.0,0.0,0.0,0.0,0.0,0.0,0.0,0.0,0.0,0.0,0.0,0.0,0.0,0.0,0.0,0.0,0.0,0.0,0.0,0.0,0.0,0.0,0.0,0.0,0.0,0.0,0.0,0.0,0.0,-2.4805,-2.3902,0.0,0.0,0.0,0.0,0.0,0.0,0.0,0.0,0.0,0.0,0.0,0.0,0.0,-2.4854,-2.475,-2.4555,-2.4394,-2.4279,-2.5286,-2.5536,-2.522,-2.6965,-2.8159,-2.8951,-2.9549,0.0,-2.5802,-2.4058,0.0,0.0,0.0,0.0,0.0,0.0,0.0,0.0,0.0,0.0,0.0,0.0,0.0,0.0,0.0,0.0,0.0,0.0,0.0,0.0,0.0,0.0,-2.0999,-2.3069,-2.3761,-2.3897,-2.3758,-2.1097,-1.8716,-1.8608,-1.6712,-1.4342,0.0,0.0,0.0,0.0,0.0,0.0,0.1801,0.3829,0.6072,0.8359,1.159,1.4607,1.7278,1.9259,2.0085,1.9352,1.7782,1.5008,1.087,0.9657,0.0,0.0,0.0,0.0,0.0,0.0,0.0,0.0,0.0,0.0,0.0,0.0,0.0,0.0,0.0,0.0,0.0,0.0,0.0,0.0,0.0,0.0,0.0,0.0,0.0,0.0,0.0,0.0,0.0,-2.4746,-2.5253,-2.4416,-2.4652,-2.4289,0.0,0.0,0.0,0.0,0.0,0.0,0.0,0.0,0.0,-2.4402,-2.5013,-2.535,-2.535,-2.5603,-2.5727,-2.5727,-2.6226,-2.6396,-2.6251,-2.7521,-2.8254,-2.8596,-2.8921,-2.8784,-2.8186,-2.6388,-2.4497,-2.2616,0.0,0.0,0.0,0.0,-1.9661,-1.9595,-2.0442,-2.0803,-2.0655,-1.9493,0.0,0.0,0.0,0.0,0.0,0.0,0.0,-1.6258,-1.7974,-1.9545,-2.1191,-2.2944,-2.2877,-2.2481,-2.2722,-2.0901,-1.9296,-1.9553,-1.7609,-1.5065,-1.2291,-0.931,0.0,0.0,0.0,0.0791,0.1844,0.4181,0.6445,0.8287,1.1237,1.4032,1.6459,1.8025,1.8978,1.9215,1.8085,1.5817,1.2362,1.0945,0.8649,0.0,0.0,0.0,0.0,0.0,0.0,0.0,0.0,0.0,0.0,0.0,0.0,0.0,0.0,0.0,0.0,0.0,0.0,0.0,0.0,0.0,0.0,0.0,0.0,0.0,0.0,0.0,0.0,-2.4574,-2.5095,-2.4701,-2.4845,-2.443,0.0,0.0,0.0,0.0,0.0,0.0,-2.2769,-2.3802,-2.4412,-2.4412,-2.5096,-2.548,-2.548,-2.6048,-2.6315,-2.6315,-2.6315,-2.6385,-2.6538,-2.7136,-2.747,-2.7647,-2.7832,-2.8555,-2.945,-2.7688,-2.587,-2.4069,-2.2366,-2.1274,-2.0662,-2.1166,-2.154,-2.1956,-2.2806,-2.3296,-2.3328,-2.2034,-2.1166,-2.028,-1.8349,0.0,0.0,0.0,0.0,-1.7852,-1.9175,-2.0178,-2.1165,-2.233,-2.1835,-2.1101,-2.1008,-2.0132,-1.9522,-2.0144,-1.806,-1.5387,-1.2769,-0.9657,0.0,-0.4312,-0.176,0.0463,0.1973,0.4206,0.6349,0.8141,1.1006,1.3597,1.5652,1.725,1.8351,1.8852,1.8318,1.6589,1.3556,1.2246,1.0431,0.7949,0.0,0.0,0.0,0.0,0.0,0.0,0.0,0.0,0.0,0.0,0.0,0.0,0.0,0.0,0.0,0.0,0.0,0.0,0.0,0.0,0.0,0.0,0.0,0.0,0.0,0.0,0.0,0.0,0.0,-2.4237,-2.3638,0.0,0.0,0.0,0.0,-2.2849,-2.2964,-2.298,-2.298,-2.369,-2.4095,-2.4095,-2.4842,-2.5211,-2.5211,-2.5281,-2.5297,-2.5297,-2.5297,-2.5524,-2.603,-2.6286,-2.6649,-2.7189,-2.7866,-2.8235,-2.8174,-2.6421,-2.603,-2.6269,-2.3585,-2.2094,-2.143,-2.1258,-2.162,-2.214,-2.1886,-2.2194,-2.2645,-2.1939,-2.124,-2.0466,-1.9339,-1.919,0.0,0.0,-1.8661,-1.9764,-2.1128,-2.1483,-2.1741,-2.2437,-2.2138,-2.1184,-1.9485,-1.8675,-1.8714,-2.0199,-1.8186,-1.5659,-1.4,0.0,-0.7291,-0.4503,-0.2225,0.0,0.2383,0.3749,0.5343,0.7616,1.0908,1.3552,1.4944,1.7669,1.9045,1.8383,1.871,1.7376,1.3923,1.352,1.2091,0.9358,0.7121,0.0,0.0,0.0,0.0,0.0,0.0,0.0,0.0,0.0,0.0,0.0,0.0,0.0,0.0,0.0,0.0,0.0,0.0,0.0,0.0,0.0,0.0,0.0,0.0,0.0,0.0,0.0,0.0,-2.4328,-2.4401,0.0,-2.2686,-2.2786,-2.2705,-2.221,-2.2831,-2.3255,-2.3255,-2.4242,-2.4814,-2.4814,-2.5054,-2.5221,-2.5221,-2.5221,-2.5221,-2.5221,-2.5221,-2.5297,-2.5503,-2.5554,-2.5683,-2.5891,-2.615,-2.6545,-2.6886,-2.5803,-2.5994,-2.6773,-2.4984,-2.412,-2.3871,-2.3819,-2.3991,-2.4251,-2.4127,-2.4288,-2.4403,-2.3319,-2.3037,-2.2797,-2.0776,-2.0503,-2.0676,-1.9557,-1.9989,-2.0932,-2.1393,-2.1405,-2.1218,-2.1192,-1.9837,-1.8297,-1.7399,-1.656,-1.5989,-1.6083,-1.5247,-1.3923,-1.2069,-0.9505,-0.6648,-0.3458,-0.1886,-0.0277,0.1852,0.3755,0.5487,0.7052,1.0966,1.4098,1.5701,1.8502,1.9948,1.9431,1.9273,1.7824,1.481,1.3916,1.2263,0.9602,0.842,0.6599,0.0,0.0,0.0,0.0,0.0,0.0,0.0,0.0,0.0,0.0,0.0,0.0,0.0,0.0,0.0,0.0,0.0,0.0,0.0,0.0,0.0,0.0,0.0,0.0,0.0,0.0,-2.3865,-2.4353,-2.4349,-2.3986,-2.308,-2.3112,-2.294,-2.2394,-2.3026,-2.3483,-2.3483,-2.4222,-2.4657,-2.4657,-2.4657,-2.4657,-2.4657,-2.4657,-2.4657,-2.4657,-2.4657,-2.4736,-2.4934,-2.4736,-2.4752,-2.4934,-2.4934,-2.5203,-2.5599,-2.514,-2.5416,-2.6128,-2.5242,-2.4934,-2.491,-2.4752,-2.488,-2.5114,-2.4923,-2.4848,-2.4646,-2.3431,-2.368,-2.4081,-2.1974,-2.1694,-2.1892,-2.1125,-2.105,-2.1255,-2.1559,-2.1128,-2.0507,-2.0065,-1.825,-1.6514,-1.5994,-1.481,-1.3703,-1.3168,-1.3381,-1.2929,-1.0676,-0.8922,-0.6662,-0.3236,-0.2003,-0.0617,0.1779,0.3591,0.5413,0.7538,1.1378,1.4614,1.6576,1.8681,1.9857,1.978,1.9069,1.7599,1.5207,1.405,1.241,1.0089,0.9592,0.7869,0.4838,0.0,0.0,0.0,0.0,0.0,0.0,0.0,0.0,0.0,0.0,0.0,0.0,0.0,0.0,0.0,0.0,0.0,0.0,0.0,0.0,0.0,0.0,0.0,-2.2738,-2.2801,-2.3043,-2.4174,-2.3334,-2.2894,-2.3492,-2.3014,-2.2909,-2.3507,-2.3551,-2.3551,-2.3551,-2.3595,-2.3595,-2.3551,-2.3551,-2.3595,-2.3595,-2.3595,-2.3595,-2.3595,-2.3595,-2.3879,-2.4348,-2.3794,-2.3822,-2.4307,-2.4348,-2.4348,-2.4307,-2.4348,-2.4348,-2.4307,-2.4348,-2.4348,-2.4266,-2.3752,-2.397,-2.4447,-2.3851,-2.3519,-2.3173,-2.2014,-2.2853,-2.4067,-2.2709,-2.2629,-2.2952,-2.304,-2.1916,-2.0824,-2.1667,-2.0823,-1.9694,-1.9141,-1.7593,-1.6071,-1.5258,-1.3536,-1.2084,-1.1778,-1.2783,-1.2782,-1.0004,-0.9006,-0.7353,-0.3788,-0.26,0.0,0.2296,0.3196,0.5038,0.8955,1.2079,1.4905,1.736,1.8193,1.8803,1.9354,1.8246,1.6821,1.5136,1.4132,1.2831,1.1044,1.0814,0.9433,0.6867,0.0,0.0,0.0,0.0,0.0,0.0,0.0,0.0,0.0,0.0,0.0,0.0,0.0,0.0,0.0,0.0,0.0,0.0,0.0,0.0,0.0,0.0,-2.0737,-2.1355,-2.1383,-2.1605,-2.2355,-2.2161,-2.2041,-2.2211,-2.207,-2.2252,-2.2905,-2.2934,-2.2934,-2.2934,-2.3377,-2.3421,-2.2965,-2.2934,-2.3143,-2.3595,-2.3157,-2.3157,-2.3595,-2.3595,-2.345,-2.3157,-2.2995,-2.2741,-2.2457,-2.2965,-2.2906,-2.2457,-2.2965,-2.2862,-2.2517,-2.2965,-2.3172,-2.3069,-2.2455,-2.2338,-2.2494,-2.2292,-2.2519,-2.2579,-2.1159,-2.1553,-2.2394,-2.089,-2.1295,-2.2224,-2.2249,-2.1665,-2.1113,-2.1307,-1.9516,-1.7534,-1.7021,-1.5405,-1.3708,-1.2974,-1.2137,-1.1129,-0.9821,-1.0242,-1.0269,-0.8463,-0.6716,-0.4904,-0.2835,-0.1421,0.0257,0.2688,0.3748,0.538,0.816,1.0654,1.3433,1.6673,1.8844,2.0387,2.1212,2.1248,2.0474,1.8748,1.7303,1.5641,1.3773,1.1727,1.0545,0.0,0.0,0.0,0.0,0.0,0.0,0.0,0.0,0.0,0.0,0.0,0.0,0.0,0.0,0.0,0.0,0.0,0.0,0.0,0.0,0.0,0.0,-2.0449,-2.0791,-2.1053,-2.1165,-2.1324,-2.1655,-2.1697,-2.1697,-2.1697,-2.1697,-2.1852,-2.2253,-2.23,-2.23,-2.23,-2.2606,-2.2756,-2.2694,-2.2452,-2.2575,-2.3201,-2.2589,-2.2483,-2.2786,-2.2786,-2.2606,-2.23,-2.23,-2.2053,-2.1697,-2.21,-2.2053,-2.1744,-2.21,-2.2053,-2.1758,0.0,0.0,0.0,0.0,-2.1684,-2.1632,-2.1375,-2.1486,-2.1509,-2.0291,-2.0495,-2.0938,-2.0002,-2.025,-2.0876,-2.1035,-2.0104,-1.9119,-1.9293,-1.7441,-1.5401,-1.5099,-1.3716,-1.2353,-1.1707,-1.0816,-0.9825,-0.8581,-0.7865,0.0,-0.6411,-0.5441,-0.4209,-0.2468,-0.0913,0.0901,0.3179,0.4308,0.6153,0.9461,1.1355,1.3957,1.7731,1.9185,0.0,0.0,0.0,2.0901,1.9613,1.8087,0.0,0.0,0.0,1.2739,1.2861,1.0439,0.0,0.0,0.608,0.3739,0.0,0.0,0.0,0.0,0.0,0.0,0.0,0.0,0.0,0.0,0.0,0.0,0.0,0.0,0.0,0.0,-2.0386,-2.0576,-2.1107,-2.1329,-2.1442,-2.1663,-2.1609,-2.1568,-2.1568,-2.1513,-2.152,-2.1615,-2.1615,-2.1615,-2.1615,0.0,0.0,0.0,0.0,-2.1913,-2.2603,-2.1913,-2.1649,-2.1697,-2.1697,-2.1649,-2.1615,-2.1615,-2.1568,-2.1506,-2.1568,-2.1568,-2.1506,-2.1568,-2.1506,-2.1349,-2.1445,-2.1445,-2.1349,-2.1287,-2.1209,-2.1056,-2.0602,0.0,0.0,-1.9397,-1.9433,-1.9783,-1.9474,-1.9212,-1.9186,-1.9514,-1.7823,-1.6075,-1.6544,-1.4935,-1.3282,-1.3282,-1.2281,-1.1229,-1.0809,-0.9551,-0.8317,-0.7762,-0.5921,-0.4391,-0.432,-0.4624,-0.4264,-0.2374,-0.0647,0.1351,0.3768,0.4881,0.7136,1.1628,1.3001,0.0,1.9336,1.9277,1.9963,2.2084,2.1013,2.0001,1.9296,1.7973,1.6834,1.595,1.5923,1.5634,1.5051,1.3184,1.1547,1.0026,0.5134,0.2266,0.0,0.0,0.0,0.0,0.0,0.0,0.0,0.0,0.0,0.0,0.0,0.0,0.0,0.0,0.0,-1.8631,-1.9,-1.9274,-1.9363,-1.9425,-1.9984,-2.139,-2.1168,-2.0899,-2.0899,-2.0463,-2.0383,-2.093,-2.0979,-2.0979,-2.0979,-2.1424,-2.152,-2.1175,-2.1028,-2.1259,-2.1899,-2.1307,-2.121,-2.1697,-2.1697,0.0,-2.0979,-2.0979,-2.0683,-2.0181,-2.0733,-2.0683,-2.0232,-2.0733,-2.0307,-1.931,-1.9864,-1.9762,-1.9206,-1.8614,-1.8363,-1.8348,-1.8244,-1.8724,-1.9152,-1.8017,-1.8422,-1.9156,-1.7734,-1.753,0.0,-1.7755,-1.6446,-1.5239,-1.5605,-1.3377,-1.1073,-1.1073,-0.9894,-0.8654,-0.828,-0.7958,-0.7441,-0.64,-0.538,-0.4405,-0.3688,-0.2668,-0.1789,-0.1367,0.0633,0.2665,0.4448,0.5542,0.758,1.124,1.1954,1.3816,1.7876,1.9328,2.1033,2.337,2.3528,2.3097,2.2154,2.1166,2.0416,1.9903,1.8843,1.7961,1.718,1.4534,1.2454,1.0918,0.5566,0.1574,0.0,0.0,0.0,0.0,0.0,0.0,0.0,0.0,0.0,0.0,0.0,-1.7434,0.0,0.0,-1.8356,-1.8903,-1.9182,-1.9427,-1.9683,-1.9778,-1.9844,-2.017,-2.0354,-2.0433,-2.0433,-2.0573,-2.08,-2.1118,-2.0574,-2.0188,-2.0188,-1.9861,-1.9673,-1.9685,-1.9349,-1.9492,-2.0141,-1.9544,-1.9569,-2.0205,-2.0205,-2.0244,-2.0295,-1.9927,-1.9554,-1.9254,-1.9606,-1.9334,-1.8715,-1.9061,-1.8797,-1.8167,-1.8089,-1.8089,-1.8112,-1.7743,-1.7578,-1.7578,-1.7578,-1.7677,-1.7748,-1.736,-1.7144,-1.6943,-1.6303,-1.5965,-1.5816,-1.5685,-1.4824,-1.3793,-1.3344,-1.1666,-0.9953,-0.9486,-0.8685,-0.7867,-0.7241,-0.6687,-0.5996,-0.4979,-0.3757,-0.2731,-0.235,-0.1015,-0.0113,-0.0408,0.1306,0.3308,0.5255,0.6676,0.8719,1.1804,1.3186,1.5157,1.8389,2.1161,2.3222,2.4279,2.5334,2.5302,2.4004,2.3762,2.3301,2.2526,2.1332,2.0098,1.8855,1.5233,1.2837,1.1573,0.4734,-0.0092,0.0,0.0,0.0,0.0,0.0,0.0,0.0,0.0,-1.5961,-1.617,-1.7235,-1.8065,-1.7678,-1.8171,-1.8772,-1.9152,-1.9293,-1.9552,-2.0019,-2.0074,-1.9715,-1.8808,-1.9542,-2.0147,-2.0077,-2.0644,-2.1006,-2.1006,-2.0029,-1.9441,-1.9441,-1.8419,-1.8056,-1.8548,-1.8009,-1.7975,-1.8395,-1.7861,-1.7895,-1.8501,-1.8501,-1.8821,-1.9371,-1.8768,-1.8501,-1.8501,-1.8501,-1.8167,-1.7578,-1.7468,-1.7413,-1.7302,-1.6595,-1.6528,-1.6946,-1.7124,-1.7069,-1.6946,-1.6946,-1.6503,-1.6014,-1.6286,-1.5642,-1.4836,-1.5005,-1.4612,-1.4032,-1.3907,-1.314,-1.2091,-1.1168,-1.0095,-0.8978,-0.8157,-0.7722,-0.7306,-0.6374,-0.5513,-0.4629,-0.3719,-0.2224,-0.1072,-0.0941,0.023,0.097,0.047,0.1991,0.3928,0.6034,0.7846,1.0005,1.2822,1.479,1.7027,1.988,2.3209,2.5161,2.5096,2.6526,2.6719,2.5265,2.5573,2.5249,2.4098,2.3101,2.1783,2.0095,1.586,1.318,1.1842,0.4875,-0.0379,-1.6169,-1.558,-1.4547,-1.4461,-1.4336,-1.4205,0.0,0.0,-1.4402,-1.5248,-1.557,-1.5963,-1.6655,-1.7234,-1.7575,-1.7625,-1.7942,-1.821,-1.8259,-1.8269,-1.823,-1.8131,-1.9158,-1.9823,-1.975,-1.9407,-1.9208,-1.9208,-1.9044,-1.8952,-1.8952,-1.8837,-1.8614,-1.8351,-1.8237,-1.8081,-1.7731,-1.7622,-1.7633,-1.7743,-1.7743,-1.7797,-1.7841,-1.7731,-1.7743,-1.7743,-1.7743,-1.7688,-1.7523,-1.6866,-1.6595,-1.6539,-1.5806,-1.5157,-1.4669,-1.5391,-1.5206,-1.4551,-1.4551,-1.43,-1.3859,-1.3578,-1.3873,-1.4292,-1.3813,-1.3379,-1.3103,-1.3194,-1.1805,-1.0275,-1.0438,-0.8959,-0.7328,-0.7257,-0.6499,-0.5624,-0.4651,-0.4279,-0.3833,-0.284,-0.192,-0.1002,-0.0236,0.0584,0.1122,0.1157,0.3292,0.5272,0.6378,0.8488,1.0983,1.3886,1.5226,1.7618,2.1889,2.402,2.5411,2.6094,2.6815,2.6851,2.6013,2.6021,2.5527,2.4382,2.3638,2.2488,2.0872,1.7056,1.3893,1.1364,0.8685,0.3657,-1.5048,-1.5227,-1.4999,0.0,-1.4466,-1.3993,-1.3863,-1.3747,-1.3886,-1.4295,-1.5249,-1.6215,-1.6559,-1.7274,-1.7744,0.0,-1.79,-1.7794,-1.7285,-1.7217,-1.7001,-1.6437,-1.7292,-1.8309,-1.9372,-1.9709,-1.9901,-1.9901,-1.9138,-1.8738,-1.8738,-1.7998,-1.7533,-1.7348,-1.7337,-1.7245,-1.7059,-1.7059,-1.7151,-1.7342,-1.7342,-1.7475,-1.7578,-1.7146,-1.6978,-1.6922,-1.5985,-1.585,-1.6182,-1.4934,-1.4483,-1.4423,-1.4145,-1.3786,-1.3606,-1.4392,-1.4204,-1.3485,-1.3485,-1.3405,-1.324,-1.3235,-1.314,-1.2918,-1.2299,-1.1613,-1.1106,-1.0669,-0.995,-0.9216,-0.8941,-0.8107,-0.7013,-0.5838,-0.5173,-0.4488,-0.3557,-0.2867,-0.2336,-0.1865,-0.0741,0.0394,0.0847,0.1873,0.2936,0.3641,0.4488,0.5843,0.7881,0.985,1.2349,1.5887,1.7681,1.9602,2.1998,2.4414,2.5805,2.5829,2.7547,2.7816,2.6212,2.6685,2.6286,2.4839,2.4384,2.3425,2.192,1.8843,1.6386,1.4535,1.1772,0.9039,-1.3549,-1.383,0.0,-1.4396,-1.3965,-1.3466,-1.3554,-1.3585,-1.3659,-1.3866,-1.5017,-1.6086,-1.6589,-1.7222,-1.7716,-1.794,-1.8008,-1.7647,-1.6706,-1.6844,-1.6645,-1.5666,-1.6437,-1.7404,-1.8479,-1.9354,-1.9879,-1.9879,-1.8984,-1.8417,-1.8417,-1.7561,-1.6893,-1.65,-1.6776,-1.6718,-1.6329,-1.6602,-1.6812,-1.7081,-1.7081,-1.7005,-1.6922,-1.6055,-1.5595,-1.5487,-1.4373,-1.4186,-1.4554,-1.3468,-1.3009,-1.3009,-1.3009,-1.2887,-1.2757,-1.3295,-1.3183,-1.2696,-1.2696,-1.252,-1.2328,-1.233,-1.192,-1.1338,-1.0679,-1.0032,-0.9531,-0.9046,-0.8744,-0.8412,-0.7897,-0.7295,-0.6368,-0.4938,-0.4174,-0.3547,-0.2604,-0.1626,-0.0835,-0.0572,0.0692,0.1825,0.2223,0.3166,0.4408,0.6067,0.6054,0.6826,0.9325,1.1621,1.4178,1.7269,1.9455,2.105,2.1988,2.4425,2.5907,2.5932,2.7949,2.8326,2.6498,2.7035,2.666,2.5127,2.4842,2.4129,2.2964,2.0438,1.8799,1.7915,1.5212,1.4379,-1.1546,0.0,-1.0326,-1.1387,-1.1632,-1.1878,-1.2936,-1.3186,-1.3488,-1.4392,-1.444,-1.4813,-1.6657,-1.6767,-1.6922,-1.7862,-1.8008,-1.7647,-1.6706,-1.7354,-1.7588,-1.6673,-1.7373,-1.7647,0.0,-1.7501,-1.8076,-1.8076,-1.8066,-1.7988,-1.7988,-1.7978,-1.734,-1.5963,-1.6864,-1.6739,-1.5395,-1.6265,-1.6728,-1.6709,-1.6709,-1.6237,-1.5331,-1.406,-1.3331,-1.3122,-1.307,-1.307,-1.307,-1.3009,-1.3009,-1.3009,-1.3009,-1.2512,-1.1826,-1.1826,-1.1826,-1.1826,-1.1826,-1.1351,-1.0538,-0.982,-0.9632,-0.9524,-0.901,-0.8855,-0.8905,-0.922,-0.8609,-0.7851,-0.7783,-0.6307,-0.4758,-0.4683,-0.3759,-0.2684,-0.1816,-0.0766,0.027,0.1322,0.2117,0.2971,0.3958,0.4019,0.4973,0.7899,0.8083,0.8511,1.0229,1.3874,1.6602,1.7512,1.953,2.1253,2.2374,2.3952,2.5478,2.6978,2.7798,2.7864,2.7016,2.6876,2.6277,2.5123,2.4896,2.4492,2.385,2.1617,2.0483,2.037,1.9421,1.9369,-1.1098,0.0,-1.0166,-1.0584,-1.0667,-1.0876,-1.1852,-1.2062,-1.238,-1.3423,-1.4635,-1.5753,-1.6354,-1.7524,-1.8385,-1.8397,-1.7849,-1.7033,-1.5833,-1.5376,-1.4807,-1.3882,-1.4593,0.0,0.0,0.0,0.0,-1.7139,-1.707,-1.707,-1.707,-1.6507,-1.5957,-1.547,-1.5748,-1.5696,-1.5214,-1.5566,-1.5571,-1.5251,-1.4998,-1.4681,-1.4345,-1.3958,-1.3713,-1.3598,-1.3024,-1.2772,-1.2756,-1.2012,-1.1668,-1.1646,-1.15,-1.1233,-1.0919,-1.0345,-1.0148,-1.0148,-1.0148,-0.9964,-0.9667,-0.9078,-0.8822,-0.8675,-0.8263,-0.8035,-0.7825,-0.7427,-0.6549,-0.577,-0.577,-0.4706,-0.345,-0.2806,-0.2307,-0.1572,0.0,0.0725,0.1347,0.2146,0.3059,0.3827,0.4151,0.5243,0.7089,1.0079,1.0699,1.1099,1.2027,1.4232,1.6162,1.7457,1.9101,2.0432,2.1301,2.3165,2.4492,2.4986,2.6578,2.7169,2.6496,2.6253,2.5801,2.5058,2.4713,2.4366,2.4031,2.328,2.3023,2.3202,2.2461,2.2239,-0.9873,-0.9008,-0.8603,-0.9535,-0.9729,-1.011,-1.1464,-1.1758,-1.2092,-1.327,-1.4749,-1.5963,-1.6341,-1.7582,-1.8692,-1.901,-1.8451,-1.7424,-1.6043,-1.5487,-1.4634,-1.3135,-1.374,-1.4099,0.0,0.0,0.0,-1.6149,-1.607,-1.607,-1.607,-1.5517,-1.5021,-1.4665,-1.5021,-1.5021,-1.4665,-1.5021,-1.5047,-1.4739,-1.4098,-1.3802,-1.3676,-1.3346,-1.3141,-1.296,-1.2436,-1.2241,-1.2158,-1.1424,-1.1149,-1.1062,-1.0541,-1.0333,-1.0255,-0.9242,-0.8881,-0.887,-0.8846,-0.8812,-0.8749,-0.8181,-0.7926,-0.7711,-0.6853,-0.6536,-0.625,-0.5375,-0.463,-0.416,-0.4121,-0.3336,-0.2425,-0.1772,-0.1043,-0.0145,0.1038,0.1983,0.2751,0.3154,0.4008,0.4825,0.5267,0.7044,0.9146,1.1358,1.2445,1.3162,1.3636,1.5128,1.6522,1.7512,1.8903,2.0092,2.1064,2.2584,2.3712,2.4335,2.5645,2.6228,2.5813,2.568,2.5422,2.502,2.4912,2.4845,2.478,2.4705,2.4778,2.4975,2.4498,2.421,-0.7877,-0.6734,-0.5737,-0.8229,-0.8803,-0.9405,-1.1638,-1.2157,-1.2589,-1.3737,-1.4728,-1.561,0.0,0.0,-1.7779,-1.9447,-1.9329,-1.8527,-1.701,-1.731,-1.6805,0.0,0.0,0.0,0.0,0.0,0.0,-1.5021,0.0,-1.5092,-1.5092,-1.5092,-1.4593,-1.3673,-1.4522,-1.4593,-1.3673,-1.4593,-1.5021,-1.5021,-1.4099,-1.3509,-1.3219,-1.2239,-1.1666,-1.1401,-1.1325,-1.1263,-1.1263,-1.1243,-1.1237,-1.1162,-1.0233,-0.9806,-0.9708,-0.8523,-0.8112,-0.8083,-0.7871,-0.7847,-0.7802,-0.7009,-0.6732,-0.6448,-0.4879,-0.4435,-0.4218,-0.3319,-0.3093,-0.3001,-0.3004,-0.222,-0.143,-0.1432,0.015,0.1642,0.1458,0.3038,0.4451,0.4268,0.5017,0.6084,0.7333,0.9311,1.101,1.183,1.34,1.4614,1.4863,1.6475,1.7611,1.7611,1.8898,2.027,2.1506,2.214,2.3125,2.4743,2.5026,2.5118,2.5079,2.5195,2.5156,2.497,2.5397,2.5697,2.5859,2.5721,2.5631,2.5589,2.5446,2.5222,-0.5858,-0.5597,-0.5673,-0.721,-0.7577,-0.7925,-0.9405,-1.0438,-1.1381,-1.2504,-1.4118,-1.537,0.0,0.0,0.0,-1.7147,-1.6679,0.0,-1.5327,-1.4706,0.0,-1.3563,0.0,-1.3564,-1.3099,-1.3297,0.0,0.0,-1.3665,-1.4099,-1.4099,-1.3455,-1.2945,-1.2659,-1.2879,-1.2952,-1.2666,-1.2879,-1.3018,-1.3018,-1.2806,-1.2625,-1.2549,-1.1506,-1.1028,-1.0888,-1.016,-0.9865,-0.9854,-0.9585,-0.9432,-0.9416,-0.8962,-0.8754,-0.8679,-0.7724,-0.7359,-0.714,-0.5681,-0.5999,-0.6815,-0.5375,-0.4804,-0.4555,-0.37,-0.3417,-0.3242,-0.3169,-0.2566,-0.196,-0.1948,-0.073,0.0573,0.0584,0.1495,0.2565,0.3163,0.3804,0.4405,0.4968,0.5807,0.6802,0.8,0.9198,1.0861,1.3562,1.4109,1.4478,1.5268,1.6487,1.7517,1.8068,1.8627,1.9347,2.0232,2.1301,2.2108,2.2521,2.3857,2.4602,2.4601,2.4478,2.4395,2.4343,2.4495,2.4428,2.4069,2.4672,2.4728,2.4342,2.4065,2.3896,-0.4282,-0.4511,-0.491,-0.6068,-0.6694,-0.7559,-0.9125,-0.9957,-1.0863,-1.2361,-1.3999,0.0,-1.5072,0.0,0.0,0.0,0.0,0.0,-1.5448,-1.4772,-1.4167,0.0,-1.3287,0.0,-1.2966,-1.2953,-1.2879,0.0,-1.2966,-1.3098,-1.3098,-1.2592,-1.2305,-1.2305,-1.2305,-1.2305,-1.2305,-1.2305,-1.2077,-1.162,-1.162,-1.1397,-1.095,-1.0421,-1.0115,-1.0115,-0.9523,-0.9296,-0.9286,-0.9075,-0.9025,-0.8936,-0.8377,-0.8116,-0.7956,-0.6488,-0.5957,-0.5729,-0.4075,-0.4189,-0.4771,-0.3827,-0.3487,-0.3295,-0.2522,-0.2276,-0.2152,-0.1857,-0.1327,-0.0876,-0.0866,0.0213,0.1332,0.1281,0.2322,0.3474,0.3904,0.4504,0.4999,0.542,0.6518,0.7674,0.8265,0.953,1.133,1.4044,1.4214,1.455,1.5863,1.7195,1.818,1.8581,1.9415,2.0093,2.054,2.1252,2.1662,2.1724,2.2639,2.3332,2.3621,2.3744,2.3959,2.4225,2.4506,2.4608,2.4558,2.5029,2.511,2.4813,2.4644,2.4403,-0.3021,-0.3481,-0.3926,-0.509,-0.6248,-0.7621,-0.9493,-1.0114,-1.072,-1.2616,0.0,-1.4503,-1.4503,-1.5172,-1.6,-1.6758,0.0,-1.6476,-1.607,-1.5526,-1.4759,-1.355,-1.3063,-1.2821,-1.2782,-1.2775,-1.2756,-1.2724,-1.2247,-1.2032,-1.2188,-1.2155,-1.2116,-1.1929,-1.1922,-1.1922,-1.1922,-1.1922,-1.1471,-1.0565,-1.0565,-1.0115,-0.9296,-0.915,-0.9069,-0.9074,-0.8993,-0.8922,-0.8922,-0.8922,-0.8922,-0.8765,-0.7774,-0.7395,-0.7141,-0.5101,-0.4312,-0.4148,-0.2955,-0.2561,-0.2543,-0.2547,-0.2525,-0.2324,-0.1438,-0.116,-0.0945,-0.0218,0.0071,0.014,0.0205,0.0891,0.1666,0.1666,0.3037,0.4354,0.4183,0.5084,0.5913,0.5786,0.7242,0.8513,0.8513,1.0178,1.2045,1.3745,1.4147,1.4824,1.6456,1.7933,1.8914,1.9101,2.0409,2.1357,2.1564,2.1602,2.1632,2.1671,2.1704,2.1993,2.2649,2.3143,2.3691,2.4266,2.4816,2.5297,2.5689,2.5762,2.5762,2.5689,2.5689,2.5411,-0.1788,-0.2858,-0.3926,-0.509,-0.6248,-0.7362,-0.8483,-0.9447,0.0,0.0,-1.2505,-1.3126,-1.3126,-1.3272,-1.3544,-1.3922,0.0,0.0,0.0,0.0,-1.1787,0.0,0.0,0.0,0.0,0.0,0.0,0.0,-1.0199,-1.0551,-1.1593,-1.1474,-1.0948,-0.983,-0.9825,-0.9825,-0.9825,-0.9825,-0.975,-0.9593,-0.9593,-0.9448,-0.9296,-0.8466,-0.8084,-0.8008,-0.7173,-0.6795,-0.6795,-0.6795,-0.6795,-0.6714,-0.5619,-0.5229,-0.5071,-0.3807,-0.3337,-0.3179,-0.2168,-0.1755,-0.1793,-0.1601,-0.1516,-0.1368,-0.0497,-0.0215,-0.0218,-0.0071,0.0492,0.1047,0.1043,0.2325,0.3504,0.3504,0.44,0.5161,0.5135,0.5874,0.6543,0.6515,0.7952,0.9139,0.9139,1.0578,1.216,1.3459,1.4271,1.5223,1.6553,1.7185,1.7911,1.9007,1.9619,2.0367,2.1415,2.1588,2.1614,2.161,2.1648,2.1993,2.2649,2.2785,2.3128,2.3709,2.4266,2.4348,2.4032,2.4471,2.4471,2.4032,2.4032,2.3964,-0.0718,-0.2236,-0.3748,-0.4285,-0.58,-0.7425,-0.8778,0.0,0.0,0.0,-1.2227,-1.2518,-1.2518,0.0,0.0,-1.2946,0.0,0.0,0.0,0.0,0.0,0.0,0.0,0.0,0.0,0.0,-1.0324,-1.0218,-1.0208,-1.0274,-1.0525,-1.0492,-1.0142,-0.9561,-0.9478,-0.9478,-0.9478,-0.9478,-0.9242,-0.8695,-0.8663,-0.8385,-0.784,-0.7289,-0.7022,-0.7022,-0.649,-0.6338,-0.6261,-0.5709,-0.5473,-0.5392,-0.4295,-0.3904,-0.3748,-0.2737,-0.2347,-0.219,-0.1097,-0.0778,-0.0769,-0.0684,-0.0601,-0.0519,-0.0147,0.0,0.0148,0.0659,0.1072,0.1397,0.1955,0.3076,0.4015,0.4015,0.5077,0.6075,0.6075,0.6789,0.7372,0.7372,0.842,0.9274,0.9274,1.071,1.2135,1.317,1.4005,1.4878,1.5894,1.6148,1.6853,1.8386,1.9086,1.9863,2.0811,2.0971,2.115,2.1501,2.159,2.1891,2.262,2.2653,2.2965,2.361,2.3837,2.3991,2.4032,2.4266,2.4266,2.4032,2.4032,2.3879,0.0,-0.1796,-0.359,-0.3575,-0.5351,-0.7578,-0.9311,-0.9705,0.0,0.0,-1.2305,-1.2305,-1.2305,0.0,-1.2768,0.0,-1.2252,-1.1817,0.0,0.0,0.0,0.0,0.0,0.0,0.0,0.0,0.0,-0.9831,-0.9831,-0.9757,-0.9471,-0.9206,-0.9105,-0.9059,-0.9059,-0.9059,-0.9059,-0.9059,-0.8655,-0.7839,-0.7777,-0.7312,-0.6519,-0.6407,-0.6335,-0.6305,-0.6305,-0.621,-0.5867,-0.5079,-0.453,-0.4217,-0.3203,-0.2812,-0.2657,-0.1645,-0.1254,-0.1176,-0.0314,0.0,0.0,0.0,0.0,0.0,0.0,0.0151,0.0525,0.135,0.1818,0.2178,0.3004,0.3776,0.4317,0.4289,0.5533,0.6719,0.6719,0.7502,0.8291,0.8291,0.9005,0.9594,0.9594,1.0836,1.2081,1.2887,1.3666,1.451,1.5294,1.541,1.59,1.7315,1.8425,1.954,2.0538,2.0665,2.0893,2.1493,2.1493,2.1815,2.2519,2.2542,2.2951,2.3792,2.3792,2.4086,2.4671,2.4671,2.4594,2.4456,2.4456,2.4143,0.0,-0.1725,-0.3565,-0.3587,-0.5351,-0.7578,-0.9311,0.0,0.0,-1.1964,-1.2305,-1.2305,-1.2305,-1.2325,-1.2525,0.0,-1.2227,-1.1682,0.0,0.0,0.0,0.0,0.0,0.0,0.0,0.0,-0.7401,-0.7401,-0.7401,-0.7846,-0.8759,-0.7746,-0.7095,-0.695,-0.6947,-0.6947,-0.6947,-0.6947,-0.6947,-0.6864,-0.685,-0.6761,-0.6678,-0.6664,-0.6583,-0.6454,-0.6454,-0.5896,-0.4844,-0.4766,-0.4139,-0.3124,-0.2113,-0.1723,-0.1645,-0.0549,-0.0157,-0.0157,0.0,0.0,0.0,0.0,0.0,0.0,0.0,0.067,0.1459,0.1605,0.283,0.4166,0.4072,0.4737,0.5395,0.5326,0.6005,0.6719,0.6719,0.8027,0.9204,0.9204,0.9913,1.0498,1.0498,1.1226,1.2081,1.2887,1.3666,1.451,1.5294,1.541,1.5439,1.5635,1.7391,1.9332,2.1207,2.1425,2.1425,2.1493,2.1493,2.1776,2.2391,2.2445,2.3024,2.4393,2.4408,2.4761,2.5513,2.5513,2.5152,2.4567,2.4567,2.4237,0.0,-0.1727,-0.3574,-0.3588,-0.5351,-0.7603,-0.9554,0.0,-1.0258,-1.2183,-1.2425,-1.2305,-1.2305,-1.1842,-1.1746,-1.2782,-1.1623,-1.0573,-1.0842,0.0,0.0,0.0,0.0,0.0,0.0,0.0,-0.7139,-0.7139,-0.7139,-0.7288,-0.7744,-0.7313,-0.7027,-0.6966,-0.6963,-0.6963,-0.6963,-0.6963,-0.6963,-0.6963,-0.6878,-0.6837,-0.6834,-0.6742,-0.6249,-0.5536,-0.5536,-0.4849,-0.3668,-0.3097,-0.2589,-0.2078,-0.1041,-0.0636,-0.0549,-0.0157,0.0,0.0,0.0,0.0,0.0079,0.0784,0.0935,0.0927,0.0927,0.1686,0.2658,0.3266,0.3977,0.4588,0.5131,0.5435,0.5576,0.5515,0.6547,0.7502,0.7502,0.8865,1.011,1.011,1.0364,1.0744,1.1226,1.1965,1.2818,1.3606,1.4392,1.505,1.5352,1.541,1.5584,1.6036,1.6821,1.7978,1.9571,2.0069,2.0662,2.1468,2.1794,2.2102,2.2376,2.2758,2.3246,2.3817,2.4269,2.463,2.4936,2.5396,2.548,2.5211,2.5211,2.5076,-0.0988,-0.227,-0.3665,-0.4037,-0.5883,-0.8055,0.0,0.0,-1.0707,-1.2531,-1.2572,-1.2325,-1.2418,-1.1825,-1.1583,-1.2742,-1.1769,-1.0719,-1.0203,-0.9738,0.0,0.0,0.0,-0.7139,0.0,-0.7139,-0.7139,-0.7139,-0.7139,-0.7139,-0.7139,-0.7139,-0.7139,-0.7139,-0.7139,-0.7139,-0.7139,-0.7139,-0.7139,-0.7139,-0.7041,-0.6817,-0.6464,-0.6364,-0.5616,-0.44,-0.44,-0.3792,-0.2596,-0.1927,-0.1414,-0.1067,-0.0329,0.0,0.0,0.0,0.0237,0.0471,0.0471,0.0706,0.1019,0.1801,0.227,0.2504,0.2504,0.3049,0.3748,0.4453,0.4836,0.5118,0.5803,0.6053,0.6135,0.6135,0.7355,0.8521,0.8521,0.9578,1.0624,1.0624,1.0624,1.0807,1.1351,1.2081,1.294,1.3726,1.451,1.5108,1.5352,1.541,1.5584,1.6151,1.6379,1.7062,1.8419,1.9385,2.0312,2.1217,2.1757,2.2109,2.2117,2.2548,2.2971,2.3404,2.3913,2.4385,2.4787,2.5307,2.5565,2.5583,2.5583,2.5589,-0.3197,-0.3626,-0.3848,-0.5116,-0.7126,-0.9096,0.0,0.0,-1.1816,-1.2956,-1.2726,-1.2392,-1.2761,-1.2498,-1.2498,-1.3106,-1.3206,-1.2581,-1.0802,-1.0605,0.0,0.0,0.0,-0.7139,-0.7139,-0.7139,-0.7139,-0.7139,-0.7139,-0.7139,-0.7139,-0.7139,-0.7139,-0.7139,-0.7139,-0.7139,-0.7139,-0.7139,-0.7139,-0.7139,-0.7139,-0.6514,-0.5447,-0.5445,-0.4678,-0.329,-0.329,-0.265,-0.1593,-0.1593,-0.1007,0.0,0.0,0.0,0.0,0.0,0.064,0.1568,0.1568,0.2268,0.3046,0.3046,0.3826,0.4686,0.4686,0.4686,0.4686,0.4688,0.5299,0.5956,0.603,0.6634,0.7279,0.7279,0.8521,0.9716,0.9716,1.0173,1.0624,1.0624,1.0624,1.0624,1.0624,1.1288,1.2081,1.2879,1.3726,1.451,1.5294,1.541,1.541,1.541,1.6036,1.709,1.8555,1.9941,2.0665,2.0731,2.1192,2.1493,2.1493,2.1493,2.2112,2.3369,2.3424,2.405,2.5384,2.5384,2.5446,2.5502,2.5502,2.5535,-0.5545,-0.6389,-0.7227,-0.7422,-0.8755,-1.0331,-1.1373,-1.1672,-1.208,-1.3257,-1.3026,-1.2632,-1.2802,-1.196,-1.1481,-1.2053,-1.1594,-1.0783,0.0,0.0,0.0,0.0,-0.7082,-0.7139,0.0,0.0,-0.7139,-0.7139,-0.7139,-0.7139,-0.7139,-0.7139,-0.7139,-0.7139,-0.7139,-0.7139,-0.7139,-0.6337,-0.5983,-0.5894,-0.5085,-0.455,-0.4194,-0.4194,-0.3471,-0.2303,-0.2303,-0.159,-0.0528,-0.0528,-0.0349,0.0,0.0,0.0,0.0083,0.0914,0.1392,0.1686,0.2565,0.2931,0.3202,0.3982,0.4453,0.4844,0.555,0.5786,0.5786,0.5786,0.5989,0.6339,0.7015,0.7327,0.762,0.8346,0.9249,0.9935,0.9758,1.0324,1.0795,1.0665,1.0624,1.0744,1.1351,1.2081,1.2879,1.3726,1.451,1.5108,1.5352,1.541,1.541,1.541,1.6528,1.7413,1.7907,1.8815,1.9523,2.0075,2.0614,2.0928,2.0928,2.1292,2.168,2.2112,2.2583,2.3043,2.3501,2.3982,2.4498,2.4933,2.4933,2.5189,-0.9289,-0.954,-1.0,-0.9865,-1.0874,-1.1963,-1.2237,-1.2314,-1.2588,-1.3451,-1.308,-1.2612,-1.2802,-1.1727,-1.0983,-1.1416,-1.068,-0.9819,0.0,0.0,0.0,-0.7114,0.0,0.0,0.0,-0.6428,-0.6248,-0.5797,-0.5797,-0.5797,-0.5797,-0.6245,-0.6248,-0.5797,-0.6245,-0.6428,-0.6428,-0.5265,-0.4732,-0.4732,-0.3927,-0.3393,-0.2948,-0.2948,-0.2236,-0.1165,-0.1165,-0.0718,0.0,0.0,0.0,0.0,0.0,0.0261,0.0766,0.1529,0.2259,0.3036,0.3771,0.4221,0.4564,0.5159,0.5352,0.5392,0.6103,0.6338,0.6338,0.6338,0.6338,0.6567,0.7557,0.7992,0.8417,0.9522,1.0289,1.0697,1.0598,1.0892,1.1069,1.0782,1.0722,1.1001,1.167,1.2451,1.3243,1.4085,1.4874,1.541,1.541,1.541,1.541,1.541,1.6244,1.6856,1.7146,1.8394,1.9319,1.9747,2.0137,2.0338,2.0338,2.0665,2.0953,2.1179,2.1632,2.1992,2.2213,2.2936,2.3496,2.3904,2.4468,2.4888,0.0,-1.2958,-1.2314,-1.2326,-1.3168,-1.3743,-1.2662,-1.2877,0.0,-1.3587,-1.2946,-1.2425,-1.2643,-1.1665,-1.0808,-1.0962,-1.0317,-0.9553,0.0,-0.8694,0.0,0.0,-0.6976,0.0,-0.5382,-0.5277,-0.4821,-0.3659,-0.357,-0.357,-0.357,-0.4643,-0.4732,-0.3659,-0.4643,-0.5181,-0.527,-0.4105,-0.3481,-0.3481,-0.3392,-0.2769,-0.17,-0.17,-0.1076,0.0,0.0,0.0,0.0,0.0,0.0,0.0,0.009,0.0798,0.1824,0.1997,0.3335,0.5113,0.5196,0.5865,0.6678,0.6536,0.639,0.6278,0.6278,0.6271,0.6338,0.6338,0.6338,0.6644,0.7629,0.8613,0.9669,1.064,1.1424,1.1897,1.187,1.165,1.1369,1.1082,1.1022,1.1183,1.1681,1.249,1.3277,1.4034,1.4874,1.541,1.541,1.541,1.541,1.541,1.5468,1.5748,1.6436,1.8447,1.9695,1.9695,1.9747,1.9798,1.9798,1.9798,2.0049,2.0655,2.0655,2.0853,2.1368,2.2096,2.2445,2.2498,2.3878,2.45,-1.7415,0.0,-1.4303,-1.4092,-1.4029,-1.3977,0.0,-1.3629,-1.3561,-1.3627,-1.3113,-1.2496,-1.1903,-1.1254,-1.039,-0.922,-0.8849,-0.8437,-0.7585,0.0,0.0,-0.5966,-0.5825,-0.5335,-0.4105,-0.4002,-0.3926,-0.3659,-0.357,-0.357,-0.357,-0.3838,-0.3926,-0.357,-0.2949,-0.3127,-0.4016,-0.286,-0.2236,-0.2236,-0.1254,-0.0718,-0.0449,-0.0449,-0.0269,0.0,0.0,0.0,0.0,0.0,0.0,0.009,0.0986,0.1518,0.2043,0.3901,0.4809,0.5232,0.6184,0.6541,0.6695,0.6658,0.6546,0.6424,0.6424,0.6346,0.6338,0.6338,0.6872,0.7706,0.8689,0.9669,1.0714,1.1694,1.2098,1.2138,1.1917,1.1817,1.1677,1.1383,1.1323,1.1296,1.119,1.2345,1.3322,1.3294,1.451,1.541,1.541,1.541,1.541,1.541,1.5921,1.6322,1.6492,1.7468,1.834,1.8927,1.9475,1.9798,1.9798,1.9798,1.9861,1.9999,2.0012,2.0062,2.02,2.0397,2.0746,2.1255,2.2055,2.2677,-1.7183,-1.6908,-1.6589,-1.5936,-1.5286,-1.4734,-1.425,-1.3641,-1.3233,-1.3233,-1.2544,-1.1733,-1.126,-1.0297,-0.9238,-0.8384,-0.7483,0.0,0.0,0.0,-0.6854,-0.5677,-0.5491,-0.4818,0.0,-0.2795,-0.2574,-0.2023,-0.1931,-0.1924,-0.1905,-0.2448,-0.2528,-0.1969,-0.1879,-0.2147,-0.2769,-0.1612,-0.0986,-0.0986,-0.0269,0.0,0.0,0.0,0.0,0.0,0.0,0.0,0.0,0.0,0.0359,0.0897,0.1522,0.2504,0.3575,0.4912,0.5673,0.6141,0.676,0.6929,0.6807,0.6807,0.6702,0.6576,0.6576,0.6474,0.6342,0.6278,0.7022,0.8012,0.9069,1.004,1.1087,1.207,1.2305,1.2258,1.2098,1.2064,1.1977,1.169,1.163,1.1806,1.2358,1.3144,1.3861,1.4355,1.5157,1.5635,1.5439,1.541,1.541,1.541,1.5748,1.5979,1.5979,1.6641,1.7578,1.8608,1.9097,1.9423,1.9798,1.9798,1.9798,1.9798,1.9798,1.9798,1.9798,1.9798,2.0003,2.0346,2.128,2.1899,-1.5509,-1.6556,-1.7692,-1.6936,-1.6121,-1.5115,-1.4015,-1.3226,-1.2569,-1.2363,-1.1356,-1.0513,-1.043,-0.9067,0.0,0.0,0.0,0.0,-0.525,-0.6293,-0.6467,-0.5161,-0.5043,0.0,-0.1728,-0.1528,-0.1143,-0.0095,0.0,0.0,0.0,-0.0928,-0.1014,0.0,-0.0992,-0.1529,-0.1529,-0.0539,0.0,0.0,0.0,0.0,0.0,0.0,0.0,0.0,0.0,0.0,0.0,0.0,0.0718,0.179,0.1969,0.3395,0.5447,0.5625,0.6248,0.7139,0.7139,0.7061,0.6959,0.6959,0.6858,0.6736,0.6736,0.6627,0.6561,0.6592,0.7293,0.8237,0.9296,1.0265,1.1236,1.2077,1.2305,1.2305,1.2305,1.2305,1.2231,1.1984,1.1937,1.2396,1.3763,1.4098,1.4564,1.5842,1.6101,1.6035,1.5664,1.5547,1.5508,1.5508,1.5449,1.541,1.541,1.5979,1.6922,1.8286,1.8447,1.8874,1.9579,1.9747,1.9798,1.9798,1.9798,1.9798,1.9798,1.9798,1.9798,1.985,2.0988,2.1568,-1.5823,-1.5023,-1.4282,-1.4847,-1.4667,-1.4008,-1.2665,-1.2089,-1.1538,-1.045,-0.9832,-0.9331,-0.8742,-0.8346,-0.7978,0.0,0.0,-0.5059,0.0,0.0,-0.3746,-0.2483,0.0,-0.1832,-0.0399,-0.0292,-0.0191,0.0,0.0,0.0,0.0,-0.019,-0.019,0.0,-0.0186,-0.0276,-0.0276,-0.0091,0.0,0.0,0.0,0.0,0.0,0.0,0.0,0.0,0.0,0.0,0.0,0.0,0.0718,0.1879,0.2948,0.4196,0.5536,0.6517,0.6962,0.7139,0.7139,0.7126,0.7109,0.7109,0.701,0.6895,0.6895,0.6787,0.6905,0.7845,0.8566,0.9296,1.034,1.1316,1.2077,1.2224,1.2305,1.2305,1.2305,1.2305,1.2285,1.2245,1.2238,1.2501,1.3307,1.3997,1.4681,1.5487,1.616,1.6602,1.6533,1.6191,1.5957,1.5957,1.5635,1.541,1.541,1.5526,1.5921,1.6754,1.7413,1.8124,1.8821,1.9475,1.9798,1.9798,1.9798,1.9798,1.9798,1.9798,1.9798,1.9798,2.0597,2.0944,-1.4096,-1.4,-1.3819,-1.3213,-1.2661,-1.214,-1.1453,-1.105,-1.0566,-0.9847,-0.9166,-0.8604,-0.8298,0.0,-0.6054,-0.4493,0.0,-0.4104,-0.2889,-0.3404,-0.3351,0.0,0.0,-0.1384,-0.0101,0.0,0.0,0.0,0.0,0.0,0.0,0.0,0.0,0.0,0.0,0.0,0.0,0.0,0.0,0.0,0.0,0.0,0.0,0.0,0.0,0.0,0.0,0.0359,0.0986,0.0986,0.2058,0.3842,0.4374,0.5265,0.6425,0.6874,0.7139,0.7139,0.7139,0.7139,0.7139,0.7139,0.7095,0.7044,0.7044,0.7361,0.7983,0.9054,0.9407,0.9622,1.0772,1.1658,1.2305,1.2305,1.2305,1.2305,1.2305,1.2305,1.2305,1.2305,1.2305,1.2545,1.3408,1.3798,1.4437,1.5557,1.6038,1.6373,1.6631,1.6553,1.6426,1.6426,1.625,1.6025,1.5781,1.5762,1.6173,1.7045,1.7797,1.8555,1.9254,1.9631,1.9798,1.9798,1.9798,1.9798,1.9798,1.9798,1.9798,1.9811,2.0497,2.0979,-1.239,-1.2759,-1.3041,-1.1453,-1.1054,-1.0948,-1.0353,-0.9971,-0.9587,-0.9137,-0.8455,-0.7963,-0.7963,-0.6415,0.0,-0.257,-0.2918,-0.2953,-0.1675,-0.2392,-0.2715,-0.1611,-0.1511,-0.1109,-0.0101,0.0,0.0,0.0,0.0,0.0,0.0,0.0,0.0,0.0,0.0,0.0,0.0,0.0,0.0,0.0,0.0,0.0,0.0,0.0,0.0,0.0,0.0269,0.0986,0.179,0.2147,0.3484,0.5359,0.5359,0.6071,0.7139,0.7139,0.7139,0.7139,0.7139,0.7139,0.7139,0.7139,0.7139,0.7139,0.7139,0.7839,0.8926,1.002,1.0152,1.03,1.1295,1.1967,1.2385,1.2318,1.2305,1.2305,1.2305,1.2305,1.2305,1.2305,1.2305,1.2592,1.3528,1.3673,1.4221,1.5813,1.604,1.6276,1.6931,1.6943,1.6885,1.6885,1.6797,1.6592,1.625,1.6221,1.6657,1.7608,1.8141,1.8715,1.9254,1.9631,1.9798,1.9798,1.9798,1.9798,1.9798,1.9798,1.9798,1.9798,2.0359,2.0818,-1.1866,-1.0807,-0.9731,-0.9257,-1.0554,-1.1539,-0.9678,-0.9035,-0.8483,-0.7516,-0.7193,-0.7193,-0.7193,-0.6338,-0.5133,-0.3888,-0.2777,-0.1708,-0.0302,0.0,-0.0202,-0.0202,-0.0101,-0.0101,0.0,0.0,0.0,0.0,0.0,0.0,0.0,0.0,0.0,0.0,0.0,0.0,0.0,0.0,0.0,0.0,0.0,0.0,0.0,0.0,0.0,0.009,0.1165,0.1701,0.1879,0.3037,0.4196,0.5359,0.5359,0.6071,0.7139,0.7139,0.7139,0.7139,0.7139,0.7139,0.7139,0.7139,0.7139,0.7139,0.7139,0.7918,0.9131,1.0245,1.109,1.1863,1.2492,1.2732,1.2721,1.2365,1.2305,1.2305,1.2305,1.2305,1.2305,1.2305,1.2305,1.2592,1.3528,1.3673,1.4378,1.6271,1.654,1.6867,1.7775,1.7578,1.7334,1.7334,1.6973,1.6719,1.6689,1.668,1.6964,1.7758,1.7739,1.7688,1.7743,1.9097,1.9798,1.9798,1.9798,1.9798,1.9798,1.9798,1.9798,1.9798,1.985,1.9901,-1.1031,-1.0429,-0.9502,-0.8567,-0.9271,-0.9679,-0.8163,-0.7908,-0.7924,-0.7619,-0.6827,-0.5931,0.0,0.0,-0.3104,-0.264,-0.1593,-0.0605,-0.0101,0.0,0.0,0.0,0.0,0.0,0.0,0.0,0.0,0.0,0.0,0.0,0.0,0.0,0.0,0.0,0.0,0.0,0.0,0.0,0.0,0.0,0.0,0.0,0.0,0.0,0.0,0.0091,0.1279,0.2263,0.3037,0.4196,0.5445,0.6428,0.6428,0.6694,0.7139,0.7139,0.7139,0.7139,0.7139,0.7139,0.7139,0.7139,0.7139,0.7139,0.7139,0.7929,0.9148,1.0265,1.1321,1.2356,1.3078,1.3026,1.2795,1.2605,1.2438,1.2305,1.2305,1.2305,1.2305,1.2305,1.2305,1.2445,1.2732,1.2806,1.3528,1.5455,1.5728,1.6289,1.7794,1.7871,1.7773,1.7773,1.7393,1.7139,1.7139,1.6885,1.7024,1.7863,1.801,1.8261,1.8707,1.9438,1.9798,1.9798,1.9798,1.9798,1.9798,1.9798,1.9798,1.9798,1.9798,2.0003,-0.99,-0.952,-0.9034,-0.7902,-0.7934,-0.807,-0.7431,-0.7411,-0.7594,-0.7834,-0.6693,-0.5358,-0.45,0.0,0.0,0.0,-0.0798,0.0,0.0,0.0,0.0,0.0,0.0,0.0,0.0,0.0,0.0,0.0,0.0,0.0,0.0,0.0,0.0,0.0,0.0,0.0,0.0,0.0,0.0,0.0,0.0,0.0,0.0,0.0,0.0,0.0093,0.1306,0.2495,0.3732,0.5006,0.6166,0.7207,0.716,0.7139,0.7139,0.7139,0.7139,0.7139,0.7139,0.7139,0.7139,0.7139,0.7139,0.7139,0.7139,0.8189,0.9579,1.0351,1.1729,1.2983,1.3579,1.3407,1.3006,1.2913,1.2739,1.2559,1.2465,1.2445,1.2412,1.2318,1.2305,1.2305,1.2305,1.2305,1.2945,1.4879,1.5234,1.5877,1.7794,1.8008,1.8008,1.8008,1.7754,1.7578,1.7578,1.7305,1.7377,1.7933,1.8462,1.9056,1.9717,2.0138,2.0338,2.0338,2.0162,2.0075,2.0075,1.9886,1.9798,1.9798,1.9798,2.0055,-0.8358,-0.7909,-0.7821,-0.7098,-0.6929,-0.7054,-0.7499,-0.7485,-0.7506,-0.7851,-0.6831,-0.5761,-0.5761,-0.3619,0.0,-0.1764,-0.0798,0.0,0.0,0.0,0.0,0.0,0.0,0.0,0.0,0.0,0.0,0.0,0.0,0.0,0.0,0.0,0.0,0.0,0.0,0.0,0.0,0.0,0.0,0.0,0.0,0.0,0.0,0.0,0.0,0.0095,0.1238,0.2568,0.3892,0.5119,0.6281,0.736,0.7204,0.7143,0.7143,0.7143,0.7143,0.7139,0.7139,0.7139,0.7139,0.7139,0.7139,0.7139,0.7139,0.8703,1.0611,1.0611,1.226,1.4088,1.4088,1.3868,1.3574,1.328,1.3213,1.3126,1.2896,1.2829,1.2735,1.2365,1.2305,1.2305,1.2305,1.2305,1.2952,1.4879,1.5163,1.5877,1.7794,1.8008,1.8008,1.8008,1.8008,1.8008,1.8008,1.8008,1.8008,1.8008,1.9041,1.9932,2.0389,2.1131,2.1493,2.1493,2.0953,2.0731,2.0731,2.01,1.9823,1.9823,1.9823,1.9823,-0.7566,-0.7183,-0.7008,-0.6568,-0.6306,-0.6139,-0.6158,-0.7044,-0.7312,-0.5698,-0.4182,-0.3229,-0.3048,-0.1684,0.0,-0.167,-0.0798,0.0,0.0,0.0,0.0,0.0,0.0,0.0,0.0,0.0,0.0,0.0,0.0,0.0,0.0,0.0,0.0,0.0,0.0,0.0,0.0,0.0,0.0,0.0,0.0,0.0,0.0,0.0,0.0,0.0097,0.1263,0.26,0.3987,0.6167,0.7192,0.7529,0.7482,0.7397,0.7302,0.7302,0.7234,0.7139,0.7139,0.7139,0.7139,0.7139,0.7139,0.7139,0.7139,0.8185,0.9579,1.0351,1.1643,1.3027,1.3906,1.4021,1.3881,1.3587,1.336,1.3186,1.3093,1.3073,1.2979,1.2672,1.2612,1.2545,1.2338,1.2305,1.2732,1.3954,1.4736,1.5877,1.7794,1.8008,1.8008,1.8008,1.8008,1.8008,1.8008,1.8008,1.8269,1.8844,1.9228,1.9574,1.9882,2.0916,2.1493,2.1493,2.133,2.1242,2.1242,2.1066,2.0991,2.0991,2.0991,2.0991,-0.7108,-0.6965,-0.6705,-0.6187,-0.5932,-0.5615,-0.5187,-0.5758,-0.5942,-0.4482,-0.3067,-0.2034,-0.189,-0.0801,0.0,-0.0994,-0.0501,0.0,0.0,0.0,0.0,0.0,0.0,0.0,0.0,0.0,0.0,0.0,0.0,0.0,0.0,0.0,0.0,0.0,0.0,0.0,0.0,0.0,0.0,0.0,0.0,0.0,0.0,0.0,0.0,0.0099,0.1289,0.2654,0.4075,0.6067,0.7203,0.7678,0.7621,0.7543,0.7461,0.7461,0.7363,0.7231,0.7231,0.719,0.7139,0.7139,0.7139,0.7228,0.7665,0.8623,0.9836,1.0956,1.2163,1.3203,1.3906,1.4088,1.4041,1.3861,1.3687,1.3527,1.3407,1.3387,1.3293,1.2986,1.2933,1.2872,1.2692,1.2559,1.2845,1.3726,1.4968,1.6289,1.7794,1.8008,1.8008,1.8008,1.8008,1.8008,1.8008,1.8008,1.8202,1.8721,1.9431,1.9878,2.008,2.1093,2.1786,2.2146,2.1933,2.182,2.182,2.1594,2.1493,2.1493,2.1493,2.1493,-0.6857,-0.6827,-0.6712,-0.5847,-0.5387,-0.5026,-0.4073,-0.3762,-0.3718,-0.3823,0.0,-0.1812,-0.1812,-0.0807,0.0,0.0,0.0,0.0,0.0,0.0,0.0,0.0,0.0,0.0,0.0,0.0,0.0,0.0,0.0,0.0,0.0,0.0,0.0,0.0,0.0,0.0,0.0,0.0,0.0,0.0,0.0,0.0,0.0,0.0,0.0,0.0101,0.1511,0.2914,0.4111,0.5422,0.6754,0.7821,0.7689,0.7631,0.7617,0.7617,0.7522,0.739,0.7377,0.7278,0.716,0.7146,0.7139,0.7316,0.854,0.9666,1.0869,1.198,1.3203,1.4088,1.4088,1.4088,1.4088,1.4088,1.4088,1.4015,1.3741,1.3687,1.3594,1.3307,1.3253,1.324,1.3213,1.305,1.33,1.4313,1.5707,1.6968,1.7872,1.8008,1.8008,1.8008,1.8008,1.8008,1.8008,1.8008,1.8008,1.8008,1.9497,2.0462,2.059,2.1491,2.2384,2.3078,2.2636,2.2385,2.2385,2.1882,2.1644,2.1644,2.1644,2.1644,-0.5012,-0.5155,-0.5415,-0.4181,-0.3274,-0.2493,-0.1213,-0.091,-0.1214,-0.2358,-0.1425,-0.0404,-0.0404,-0.0202,0.0,0.0,0.0,0.0,0.0,0.0,0.0,0.0,0.0,0.0,0.0,0.0,0.0,0.0,0.0,0.0,0.0,0.0,0.0,0.0,0.0,0.0,0.0,0.0,0.0,0.0,0.0,0.0,0.0,0.0,0.0,0.0101,0.2514,0.3715,0.4214,0.6597,0.769,0.7987,0.7957,0.7872,0.7767,0.7767,0.7675,0.7533,0.7414,0.735,0.7302,0.718,0.7139,0.7316,0.854,0.9666,1.0869,1.198,1.3203,1.4088,1.4088,1.4088,1.4088,1.4088,1.4088,1.4068,1.4008,1.3988,1.3901,1.3607,1.3547,1.348,1.3253,1.3832,1.4904,1.6345,1.6884,1.73,1.791,1.8008,1.8008,1.8008,1.8008,1.8008,1.8008,1.8008,1.8008,1.8008,1.8337,1.9177,2.0526,2.2051,2.2944,2.3078,2.2965,2.2962,2.2962,2.2836,2.2786,2.2786,2.2786,2.2786,-0.4879,-0.4957,-0.4917,-0.315,-0.1871,-0.091,-0.0204,0.0,-0.0206,-0.0942,-0.0514,0.0,0.0,0.0,0.0,0.0,0.0,0.0,0.0,0.0,0.0,0.0,0.0,0.0,0.0,0.0,0.0,0.0,0.0,0.0,0.0,0.0,0.0,0.0,0.0,0.0,0.0,0.0,0.0,0.0,0.0,0.0,0.0,0.0,0.0303,0.1008,0.2414,0.3817,0.502,0.6429,0.7434,0.8038,0.8038,0.7991,0.7919,0.7919,0.7828,0.7689,0.7607,0.7536,0.7455,0.7302,0.7603,0.829,0.9345,1.0524,1.1643,1.2857,1.3646,1.4088,1.4088,1.4088,1.4088,1.4088,1.4088,1.4088,1.4088,1.4088,1.4041,1.3888,1.3854,1.3808,1.3654,1.4445,1.5382,1.6536,1.7166,1.7696,1.822,1.8311,1.8232,1.8037,1.8008,1.8008,1.8008,1.8008,1.8008,1.8008,1.8395,1.9243,2.0526,2.1865,2.2702,2.3078,2.3078,2.3078,2.3078,2.3078,2.3078,2.3078,2.3078,2.3078,-0.4662,-0.4472,-0.402,-0.2084,-0.0809,0.0,0.0,0.0,0.0,0.0,0.0,0.0,0.0,0.0,0.0,0.0,0.0,0.0,0.0,0.0,0.0,0.0,0.0,0.0,0.0,0.0,0.0,0.0,0.0,0.0,0.0,0.0,0.0,0.0,0.0,0.0,0.0,0.0,0.0,0.0,0.0,0.0,0.0,0.0202,0.0907,0.2013,0.2515,0.3919,0.6029,0.6232,0.7033,0.8038,0.8038,0.8038,0.8038,0.8038,0.796,0.7845,0.7821,0.7733,0.7611,0.7458,0.804,0.9087,1.0343,1.1418,1.2371,1.3822,1.4162,1.4155,1.4102,1.4088,1.4088,1.4088,1.4088,1.4088,1.4088,1.4088,1.4088,1.4088,1.4088,1.4166,1.4328,1.5085,1.581,1.6453,1.7481,1.8341,1.8657,1.875,1.8613,1.8262,1.8232,1.8203,1.8125,1.8115,1.8086,1.8018,1.8854,1.9694,2.059,2.1428,2.2261,2.3065,2.3078,2.3078,2.3078,2.3078,2.3078,2.3078,2.3078,2.3078,-0.2385,-0.127,-0.0656,-0.0299,-0.0102,0.0,0.0,0.0,0.0,0.0,0.0,0.0,0.0,0.0,0.0,0.0,0.0,0.0,0.0,0.0,0.0,0.0,0.0,0.0,0.0,0.0,0.0,0.0,0.0,0.0,0.0,0.0,0.0,0.0,0.0,0.0,0.0,0.0,0.0,0.0,0.0,0.0,0.0,0.1209,0.1812,0.2113,0.4422,0.5627,0.6129,0.7235,0.7839,0.8038,0.8038,0.8038,0.8038,0.8038,0.8028,0.7991,0.7858,0.7797,0.776,0.7614,0.766,0.8206,1.0471,1.1283,1.1876,1.3905,1.4462,1.4402,1.4155,1.4088,1.4088,1.4088,1.4088,1.4088,1.4088,1.4088,1.4088,1.4088,1.4088,1.4412,1.5296,1.6316,1.7296,1.7941,1.8976,1.9529,1.9258,1.9199,1.918,1.9121,1.9121,1.8965,1.8584,1.8555,1.8398,1.8037,1.8854,1.9694,2.059,2.1428,2.2261,2.3065,2.3078,2.3078,2.3078,2.3078,2.3078,2.3078,2.3078,2.3078,-0.184,-0.0783,0.0,0.0,0.0,0.0,0.0,0.0,0.0,0.0,0.0,0.0,0.0,0.0,0.0,0.0,0.0,0.0,0.0,0.0,0.0,0.0,0.0,0.0,0.0,0.0,0.0,0.0,0.0,0.0,0.0,0.0,0.0,0.0,0.0,0.0,0.0,0.0,0.0,0.0,0.0807,0.1109,0.1209,0.3318,0.3819,0.3215,0.5122,0.6431,0.7132,0.7736,0.8038,0.8038,0.8038,0.8038,0.8038,0.8038,0.8038,0.8031,0.7963,0.794,0.7916,0.7767,0.8189,0.8831,0.9842,1.1186,1.2444,1.3428,1.4218,1.4703,1.4402,1.4329,1.4289,1.4128,1.4088,1.4088,1.4088,1.4088,1.4088,1.4088,1.4088,1.425,1.4734,1.6198,1.7365,1.7686,1.9164,2.0127,1.9697,1.9639,1.9551,1.9307,1.9287,1.9209,1.9014,1.9004,1.8818,1.8389,1.9155,1.9961,2.0602,2.1428,2.2261,2.3065,2.3078,2.3078,2.3078,2.3078,2.3078,2.3078,2.3078,2.3078,-0.1377,-0.0605,0.0,0.0,0.0,0.0,0.0,0.0,0.0,0.0,0.0,0.0,0.0,0.0,0.0,0.0,0.0,0.0,0.0,0.0,0.0,0.0,0.0,0.0,0.0,0.0,0.0,0.0,0.0,0.0,0.0,0.0,0.0,0.0,0.0,0.0,0.0,0.0,0.0,0.0,0.1309,0.2013,0.2113,0.4822,0.5425,0.4618,0.5927,0.7033,0.8038,0.8038,0.8038,0.8038,0.8038,0.8038,0.8038,0.8038,0.8038,0.8038,0.8038,0.8038,0.8021,0.7906,0.8448,0.9192,0.9811,1.1258,1.2825,1.3409,1.4326,1.5003,1.471,1.4576,1.4469,1.4249,1.4142,1.4088,1.4088,1.4088,1.4088,1.4088,1.4328,1.4496,1.4496,1.6281,1.7747,1.7747,1.9353,2.0449,2.0117,2.0078,1.9961,1.9648,1.9609,1.957,1.9453,1.9443,1.9258,1.8828,1.9614,2.0196,2.0588,2.1684,2.2522,2.3158,2.3368,2.3366,2.3078,2.3078,2.3078,2.3078,2.3078,2.3078,-0.0074,-0.0078,0.0,0.0,0.0,0.0,0.0,0.0,0.0,0.0,0.0,0.0,0.0,0.0,0.0,0.0,0.0,0.0,0.0,0.0,0.0,0.0,0.0,0.0,0.0,0.0,0.0,0.0,0.0,0.0,0.0,0.0,0.0,0.0,0.0,0.0,0.0,0.0,0.0,0.0,0.1309,0.2013,0.2113,0.4822,0.5929,0.5929,0.7335,0.7939,0.8038,0.8038,0.8038,0.8038,0.8038,0.8038,0.8038,0.8038,0.8038,0.8038,0.8038,0.8038,0.8038,0.8031,0.8028,0.8513,1.1039,1.1813,1.2448,1.4689,1.5371,1.5304,1.5017,1.473,1.4516,1.4502,1.4282,1.4088,1.4088,1.4088,1.4088,1.4088,1.4894,1.5621,1.5621,1.7415,1.8877,1.8877,1.9844,2.0557,2.0537,2.0527,2.0527,2.0498,2.0498,2.0332,1.9912,1.9883,1.9707,1.9277,2.0083,2.055,2.06,2.2309,2.3273,2.3261,2.4242,2.4205,2.3078,2.3078,2.3078,2.3078,2.3078,2.3078,0.0,0.0,0.0,0.0,0.0,0.0,0.0,0.0,0.0,0.0,0.0,0.0,0.0,0.0,0.0,0.0,0.0,0.0,0.0,0.0,0.0,0.0,0.0,0.0,0.0,0.0,0.0,0.0,0.0,0.0,0.0,0.0,0.0,0.0,0.0,0.0,0.0,0.0,0.0,0.0,0.2213,0.3316,0.3414,0.6024,0.7235,0.7335,0.7839,0.8038,0.8038,0.8038,0.8038,0.8038,0.8038,0.8038,0.8038,0.8038,0.8038,0.8038,0.8038,0.8038,0.8038,0.8038,0.8038,0.8333,1.0096,1.1263,1.2221,1.3963,1.4999,1.5605,1.5317,1.5164,1.499,1.4609,1.4442,1.4315,1.4128,1.4088,1.4088,1.4088,1.4977,1.5696,1.5696,1.7496,1.9036,1.9036,1.9923,2.0566,2.0566,2.0566,2.0566,2.0566,2.0566,2.0498,2.0342,2.0332,2.0146,1.9717,2.047,2.0906,2.0613,2.1771,2.2661,2.3278,2.3622,2.3753,2.369,2.369,2.3502,2.3078,2.3078,2.3078,0.0,0.0,0.0,0.0,0.0,0.0,0.0,0.0,0.0,0.0,0.0,0.0,0.0,0.0,0.0,0.0,0.0,0.0,0.0,0.0,0.0,0.0,0.0,0.0,0.0,0.0,0.0,0.0,0.0,0.0,0.0,0.0,0.0,0.0,0.0,0.0,0.0,0.0,0.0,0.0,0.2715,0.4016,0.4116,0.6728,0.8038,0.8038,0.8038,0.8038,0.8038,0.8038,0.8038,0.8038,0.8038,0.8038,0.8038,0.8038,0.8038,0.8038,0.8038,0.8038,0.8038,0.8038,0.8038,0.8333,1.0096,1.1268,1.2237,1.4076,1.5146,1.5785,1.5591,1.5471,1.5271,1.4783,1.4596,1.4469,1.4275,1.4155,1.4088,1.4088,1.522,1.6273,1.6273,1.806,1.952,1.952,2.0157,2.0566,2.0566,2.0566,2.0566,2.0566,2.0566,2.0566,2.0566,2.0566,2.0439,2.0146,2.0712,2.0869,2.0573,2.1761,2.275,2.3386,2.4014,2.4455,2.4531,2.4356,2.3979,2.3427,2.3427,2.3265,0.0,0.0,0.0,0.0,0.0,0.0,0.0,0.0,0.0,0.0,0.0,0.0,0.0,0.0,0.0,0.0,0.0,0.0,0.0,0.0,0.0,0.0,0.0,0.0,0.0,0.0,0.0,0.0,0.0,0.0,0.0,0.0,0.0,0.0,0.0,0.0,0.0,0.0,0.0,0.0101,0.2715,0.4016,0.4116,0.6828,0.8038,0.8038,0.8038,0.8038,0.8038,0.8038,0.8038,0.8038,0.8038,0.8038,0.8038,0.8038,0.8038,0.8038,0.8038,0.8038,0.8038,0.8038,0.8038,0.8528,1.1165,1.1945,1.2528,1.5051,1.5832,1.5832,1.5832,1.5618,1.5337,1.505,1.4756,1.4543,1.4536,1.4302,1.4095,1.4088,1.5801,1.7253,1.7253,1.9107,2.0557,2.0557,2.0566,2.0566,2.0566,2.0566,2.0566,2.0566,2.0566,2.0566,2.0566,2.0566,2.0566,2.0566,2.0566,2.0566,2.0566,2.2414,2.3441,2.3514,2.5429,2.6176,2.5624,2.5096,2.4556,2.4017,2.4017,2.3715,0.0,0.0,0.0,0.0,0.0,0.0,0.0,0.0,0.0,0.0,0.0,0.0,0.0,0.0,0.0,0.0,0.0,0.0,0.0,0.0,0.0,0.0,0.0,0.0,0.0,0.0,0.0,0.0,0.0,0.0,0.0,0.0,0.0,0.0,0.0,0.0,0.0,0.0,0.0504,0.1511,0.3215,0.4518,0.5525,0.7232,0.8038,0.8038,0.8038,0.8038,0.8038,0.8038,0.8038,0.8038,0.8038,0.8038,0.8038,0.8038,0.8038,0.8038,0.8038,0.8038,0.8038,0.8038,0.8627,0.9805,1.1361,1.2624,1.3686,1.5343,1.5832,1.5832,1.5832,1.5765,1.5638,1.5344,1.5217,1.5097,1.4883,1.4609,1.4342,1.4128,1.522,1.6108,1.6108,1.798,1.9441,1.9441,2.0079,2.0566,2.0566,2.0566,2.0566,2.0566,2.0566,2.0566,2.0566,2.0566,2.0566,2.0566,2.0566,2.0566,2.0566,2.1088,2.2048,2.3441,2.4036,2.498,2.6214,2.5649,2.5109,2.4594,2.4594,2.4293,0.0433,0.0515,0.0612,0.1001,0.0,0.0,0.0,0.0,0.0,0.0,0.0964,0.0757,0.0112,0.0,0.0,0.0,0.0,0.0,0.0,0.0,0.0,0.0,0.0,0.0,0.0,0.0,0.0,0.0,0.0,0.0,0.0,0.0,0.0,0.0,0.0,0.0,0.0,0.0605,0.1209,0.2013,0.3919,0.5222,0.6029,0.7434,0.8038,0.8038,0.8038,0.8038,0.8038,0.8038,0.8038,0.8038,0.8038,0.8038,0.8038,0.8038,0.8038,0.8038,0.8038,0.8038,0.8038,0.8038,0.892,1.0194,1.1556,1.2813,1.4166,1.5439,1.5832,1.5832,1.5832,1.5832,1.5785,1.5618,1.5484,1.5351,1.5177,1.4917,1.4616,1.4322,1.5063,1.5696,1.5696,1.7163,1.847,1.8957,1.952,2.0079,2.0566,2.0566,2.0566,2.0566,2.0566,2.0566,2.0566,2.0566,2.0566,2.0566,2.0566,2.0566,2.0566,2.1011,2.1745,2.285,2.3672,2.4921,2.6533,2.6126,2.5674,2.5146,2.4921,2.4644,0.1065,0.1355,0.1643,0.2491,0.0,0.0,0.0,0.0,0.0,0.0,0.2167,0.1738,0.0438,0.011,0.0,0.0,0.0,0.0,0.0,0.0,0.0,0.0,0.0,0.0,0.0,0.0,0.0,0.0,0.0,0.0,0.0,0.0,0.0,0.0,0.0,0.0102,0.0203,0.1416,0.212,0.2522,0.4828,0.6029,0.6229,0.7434,0.8038,0.8038,0.8038,0.8038,0.8038,0.8038,0.8038,0.8038,0.8038,0.8038,0.8038,0.8038,0.8038,0.8038,0.8038,0.8038,0.8038,0.8137,0.9118,1.0485,1.175,1.3011,1.4364,1.5439,1.5832,1.5832,1.5832,1.5832,1.5832,1.5832,1.5631,1.5444,1.5444,1.5217,1.4937,1.4669,1.5092,1.559,1.559,1.646,1.7496,1.8638,1.8957,1.9362,2.0479,2.0566,2.0566,2.0566,2.0566,2.0566,2.0566,2.0566,2.0566,2.0566,2.0566,2.0566,2.0566,2.1375,2.1886,2.2027,2.3963,2.5511,2.6533,2.6533,2.6189,2.5686,2.5222,2.4971,0.1254,0.1928,0.0,0.0,0.0,0.0,0.0,0.2958,0.0,0.0,0.2003,0.1416,0.1117,0.0476,0.0,0.0,0.0,0.0,0.0,0.0,0.0,0.0,0.0,0.0,0.0,0.0,0.0,0.0,0.0,0.0,0.0,0.0,0.0,0.0,0.0,0.0527,0.179,0.1971,0.3186,0.5437,0.5869,0.6531,0.7637,0.7839,0.8038,0.8038,0.8038,0.8038,0.8038,0.8038,0.8038,0.8038,0.8038,0.8038,0.8038,0.8038,0.8038,0.8038,0.8038,0.8038,0.8137,0.9217,1.0485,1.175,1.3102,1.4364,1.5439,1.573,1.5832,1.5832,1.5832,1.5832,1.5832,1.5832,1.5785,1.5745,1.5745,1.5518,1.5297,1.5237,1.4967,1.4767,1.4767,1.5471,1.6355,1.7504,1.839,1.9362,2.0479,2.0566,2.0566,2.0566,2.0566,2.0566,2.0566,2.0566,2.0566,2.0566,2.0566,2.0566,2.0566,2.0789,2.1221,2.1952,2.3963,2.5511,2.6533,2.6533,2.6471,2.6289,2.6189,2.5887,0.0,0.0,0.0,0.4034,0.0,0.0,0.0,0.0,0.0,0.0,0.3405,0.2813,0.2249,0.1623,0.1263,0.138,0.1664,0.1538,0.0931,0.0,0.0,0.0,0.0,0.0,0.0,0.0,0.0,0.0,0.0,0.0,0.0,0.0,0.0,0.0,0.0753,0.149,0.2233,0.3545,0.485,0.629,0.679,0.7335,0.8038,0.8038,0.8038,0.8038,0.8038,0.8038,0.8038,0.8038,0.8038,0.8038,0.8038,0.8038,0.8038,0.8038,0.8038,0.8038,0.8038,0.8038,0.8233,0.9608,1.0877,1.2139,1.3488,1.4758,1.5832,1.5832,1.5832,1.5832,1.5832,1.5832,1.5832,1.5832,1.5832,1.5832,1.5832,1.5712,1.5611,1.5611,1.5257,1.4863,1.4569,1.4812,1.5401,1.6386,1.7415,1.855,1.9678,2.0245,2.0566,2.0566,2.0566,2.0566,2.0566,2.0566,2.0566,2.0566,2.0566,2.0566,2.0566,2.0566,2.1001,2.1952,2.2999,2.4253,2.5734,2.5734,2.6025,2.6533,2.6533,2.637,0.0,0.0,0.0,0.0,0.0,0.5627,0.0,0.0,0.0,0.0,0.0,0.0,0.0,0.0,0.0,0.0,0.0,0.0,0.0,0.0,0.0,0.0,0.0,0.0,0.0,0.0,0.0,0.0,0.0,0.0,0.0,0.0,0.0,0.0,0.1408,0.2362,0.2684,0.5051,0.6463,0.6774,0.7655,0.8082,0.8082,0.8055,0.8038,0.8038,0.8038,0.8038,0.8038,0.8038,0.8038,0.8038,0.8038,0.8038,0.8038,0.8038,0.8038,0.8038,0.8038,0.8038,0.8233,0.9801,1.1361,1.2818,1.3974,1.4949,1.5832,1.5832,1.5832,1.5832,1.5832,1.5832,1.5832,1.5832,1.5832,1.5832,1.5832,1.5832,1.5832,1.5832,1.5645,1.5311,1.4776,1.4643,1.4922,1.5929,1.6868,1.7823,1.9125,2.0079,2.0566,2.0566,2.0566,2.0566,2.0566,2.0566,2.0566,2.0566,2.0566,2.0566,2.0566,2.0566,2.1001,2.1952,2.2027,2.2999,2.5004,2.5004,2.5511,2.6533,2.6533,2.6533,0.0,0.0,0.0,0.0,0.5772,0.0,0.0,0.0,0.0,0.0,0.0,0.0,0.0,0.0,0.0,0.0,0.0,0.0,0.0,0.0,0.0,0.0,0.0,0.0,0.0,0.0,0.0,0.0,0.0,0.0,0.0,0.0,0.0,0.0,0.1448,0.289,0.4223,0.5676,0.7141,0.8438,0.8273,0.8245,0.8241,0.8102,0.8038,0.8038,0.8038,0.8038,0.8038,0.8038,0.8038,0.8038,0.8038,0.8038,0.8038,0.8038,0.8038,0.8038,0.8038,0.8038,0.8432,1.0872,1.3307,1.5343,1.5534,1.573,1.5832,1.5832,1.5832,1.5832,1.5832,1.5832,1.5832,1.5832,1.5832,1.5832,1.5832,1.5832,1.5832,1.5832,1.5805,1.5678,1.5351,1.5084,1.5504,1.7291,1.7662,1.8365,2.0205,2.0489,2.0566,2.0566,2.0566,2.0566,2.0566,2.0566,2.0566,2.0566,2.0566,2.0566,2.0566,2.0566,2.1001,2.1952,2.2027,2.2999,2.5004,2.5004,2.5511,2.6533,2.6533,2.6533,0.0,0.0,0.0,0.0,0.0,0.0,0.5372,0.0,0.5206,0.0,0.0,0.0,0.0,0.0,0.0,0.0,0.3674,0.0,0.0,0.0,0.0,0.0,0.0,0.0,0.0,0.0,0.0,0.0,0.0,0.0,0.0,0.0769,0.1325,0.1325,0.3557,0.5137,0.5808,0.7136,0.8056,0.8706,0.8411,0.8272,0.8265,0.8109,0.8038,0.8038,0.8038,0.8038,0.8038,0.8038,0.8038,0.8038,0.8038,0.8038,0.8038,0.8038,0.8038,0.8038,0.8038,0.8038,0.8432,1.1068,1.3204,1.4848,1.554,1.5832,1.5832,1.5832,1.5832,1.5832,1.5832,1.5832,1.5832,1.5832,1.5832,1.5832,1.5832,1.5832,1.5832,1.5832,1.5832,1.5792,1.5665,1.5404,1.5639,1.7046,1.7766,1.8566,1.9839,2.0531,2.0859,2.0596,2.0566,2.0566,2.0566,2.0566,2.0566,2.0566,2.0566,2.0566,2.0566,2.0566,2.0789,2.1155,2.1155,2.2188,2.412,2.412,2.4921,2.6533,2.6533,2.6533,0.6202,0.0,0.0,0.0,0.0,0.0,0.0,0.0,0.0,0.0,0.0,0.0,0.0,0.0,0.0,0.0,0.0,0.0,0.0,0.0,0.0,0.0,0.0,0.0,0.0,0.0,0.0,0.0,0.0,0.0197,0.0531,0.1623,0.2401,0.2727,0.5314,0.6702,0.6702,0.8053,0.8774,0.8771,0.8513,0.8391,0.8387,0.8231,0.814,0.8106,0.8143,0.8113,0.8041,0.8085,0.8079,0.8038,0.8038,0.8038,0.8038,0.8038,0.8038,0.8038,0.8038,0.8432,0.941,1.1263,1.3011,1.4561,1.5534,1.5832,1.5832,1.5832,1.5832,1.5832,1.5832,1.5832,1.5832,1.5832,1.5832,1.5832,1.5832,1.5832,1.5832,1.5832,1.5832,1.5832,1.5832,1.5933,1.631,1.7217,1.8295,1.929,2.0099,2.0795,2.1113,2.0781,2.0635,2.0566,2.0566,2.0566,2.0566,2.0566,2.0566,2.0566,2.0566,2.0566,2.0566,2.0566,2.0566,2.1527,2.3514,2.3514,2.4541,2.6533,2.6533,2.6533,0.0,0.0,0.0,0.563,0.0,0.0,0.0,0.0,0.6724,0.0,0.0,0.0,0.0,0.0,0.0,0.0,0.0,0.0,0.0,0.0,0.0,0.0,0.0,0.0,0.0,0.0,0.0,0.0,0.0,0.0,0.1902,0.2054,0.2836,0.4139,0.5757,0.6702,0.6702,0.8149,0.893,0.893,0.8771,0.8696,0.8693,0.8537,0.8391,0.8272,0.8408,0.8306,0.8052,0.8201,0.8174,0.8038,0.8038,0.8038,0.8038,0.8038,0.8038,0.8038,0.8038,0.9702,1.175,1.1853,1.3596,1.573,1.5825,1.5832,1.5832,1.5832,1.5832,1.5832,1.5832,1.5832,1.5832,1.5832,1.5832,1.5832,1.5832,1.5832,1.5832,1.5832,1.5832,1.5832,1.5832,1.6842,1.7919,1.8629,1.9808,2.0915,2.1738,2.1494,2.123,2.1211,2.082,2.0566,2.0566,2.0566,2.0566,2.0566,2.0566,2.0566,2.0566,2.0566,2.0566,2.0566,2.0566,2.1527,2.3514,2.3514,2.4541,2.6533,2.6533,2.6533,0.6031,0.7156,0.7913,0.6461,0.0,0.0,0.0,0.0,0.0,0.0,0.0,0.0,0.0,0.0,0.0,0.0,0.0,0.0,0.0,0.0,0.0,0.0,0.0,0.0,0.0,0.0,0.0,0.0,0.0,0.0,0.0,0.3879,0.5179,0.5667,0.718,0.806,0.8152,0.8602,0.894,0.8937,0.8784,0.871,0.8706,0.8554,0.8455,0.8414,0.8462,0.8374,0.8204,0.835,0.8265,0.8052,0.8153,0.813,0.8038,0.8038,0.8038,0.8038,0.8038,0.8627,0.9604,1.1361,1.2528,1.3499,1.5248,1.5832,1.5832,1.5832,1.5832,1.5832,1.5832,1.5832,1.5832,1.5832,1.5832,1.5832,1.5832,1.5832,1.5832,1.5832,1.5832,1.5832,1.5832,1.6857,1.774,1.8072,1.9134,2.0164,2.1019,2.1644,2.1973,2.1699,2.1269,2.1006,2.1006,2.0732,2.0566,2.0566,2.0566,2.0566,2.0566,2.0566,2.0566,2.0566,2.0566,2.1231,2.2478,2.3147,2.4181,2.5511,2.6164,2.6533,0.5631,0.6844,0.7775,0.7048,0.701,0.0,0.5481,0.0,0.584,0.0,0.0,0.0,0.0,0.0,0.0,0.0,0.0,0.0,0.0,0.0,0.0,0.0,0.0,0.0,0.0,0.0,0.0,0.0,0.0,0.0,0.0,0.0,0.6034,0.7203,0.7767,0.8234,0.8937,0.894,0.894,0.8937,0.8838,0.8791,0.8788,0.8689,0.8615,0.8567,0.8621,0.853,0.8353,0.8445,0.834,0.8126,0.817,0.8126,0.8038,0.8038,0.8038,0.8038,0.8038,0.8333,0.9019,1.0681,1.1848,1.2915,1.4657,1.5439,1.5832,1.5832,1.5832,1.5832,1.5832,1.5832,1.5832,1.5832,1.5832,1.5832,1.5832,1.5832,1.5832,1.5832,1.5832,1.5832,1.5832,1.648,1.7311,1.8234,1.9405,2.0488,2.1406,2.2064,2.2412,2.2139,2.1719,2.1396,2.125,2.082,2.0566,2.0566,2.0566,2.0566,2.0566,2.0566,2.0566,2.0566,2.0566,2.1231,2.2553,2.3147,2.4181,2.5523,2.6164,2.6533]},{"header":{"parameterUnit":"m.s-1","parameterCategory":1,"la1":30.6,"la2":29.2853,"lo1":-89.7004,"lo2":-87.6739,"dx":0.0162,"dy":0.0183,"nx":112,"ny":82,"refTime":"2023-01-06T18:00:00:Z","depth":0,"parameterNumber":3,"parameterNumberName":"V-component_of_WINDS"},"data":[0.0,0.0,0.0,0.0,0.0,0.0,0.0,0.0,0.0,0.0,0.0,0.0,0.0,0.0,0.0,0.0,0.0,0.0,0.0,0.0,0.0,0.0,0.0,0.0,0.0,0.0,0.0,0.0,0.0,0.0,0.0,0.0,0.0,0.0,0.0,0.0,0.0,0.0,0.0,0.0,0.0,0.0,0.0,0.0,0.0,0.0,0.0,0.0,0.0,0.0,0.0,0.0,0.0,0.0,0.0,0.0,0.0,0.0,0.0,0.0,0.0,0.0,0.0,0.0,0.0,0.0,0.0,0.0,0.0,0.0,0.0,0.0,0.0,0.0,0.0,0.0,0.0,0.0,0.0,0.0,0.0,0.0,0.0,0.0,0.0,0.0,0.0,0.0,0.0,0.0,1.2131,1.0688,0.6136,0.075,-0.5275,-0.8081,-1.1163,-1.4986,0.0,0.0,0.0,0.0,0.0,0.0,0.0,0.0,0.0,0.0,0.0,0.0,0.0,0.0,0.0,0.0,0.0,0.0,0.0,0.0,0.0,0.0,0.0,0.0,0.0,0.0,0.0,0.0,0.0,0.0,0.0,0.0,0.0,0.0,0.0,0.0,0.0,0.0,0.0,0.0,0.0,0.0,0.0,0.0,0.0,0.0,0.0,0.0,0.0,0.0,0.0,0.0,0.0,0.0,0.0,0.0,0.0,0.0,0.0,0.0,0.0,0.0,0.0,0.0,0.0,0.0,0.0,0.0,0.0,0.0,0.0,0.0,0.0,0.0,0.0,0.0,0.0,0.0,0.0,0.0,0.0,0.0,0.0,0.0,0.0,0.0,0.0,0.0,0.0,0.0,0.0,0.0,0.0,0.0,0.0,0.0,0.0,0.0,0.0,0.0,0.0,0.0,0.0,0.0,1.1209,0.991,0.5778,0.0842,-0.4833,-0.8231,-1.1579,-1.5144,0.0,0.0,0.0,0.0,0.0,0.0,0.0,0.0,0.0,0.0,0.0,0.0,0.0,0.0,0.0,0.0,0.0,0.0,0.0,0.0,0.0,0.0,0.0,0.0,0.0,0.0,0.0,0.0,0.0,0.0,0.0,0.0,0.0,0.0,0.0,0.0,0.0,0.0,0.0,0.0,0.0,0.0,0.0,0.0,0.0,0.0,0.0,0.0,0.0,0.0,0.0,0.0,0.0,0.0,0.0,0.0,0.0,0.0,0.0,0.0,0.0,0.0,0.0,0.0,0.0,0.0,0.0,0.0,0.0,0.0,0.0,0.0,0.0,0.0,0.0,0.0,0.0,0.0,0.0,0.0,0.0,0.0,0.0,0.0,0.0,0.0,0.0,0.0,0.0,0.0,0.0,0.0,0.0,0.0,0.0,0.0,0.0,0.0,0.0,0.0,0.0,0.0,0.0,1.1873,1.1162,1.0295,0.6682,0.2097,-0.3434,-0.6914,-1.0558,-1.47,-1.472,0.0,0.0,0.0,0.0,0.0,0.0,0.0,0.0,0.0,0.0,0.0,0.0,0.0,0.0,0.0,0.0,0.0,0.0,0.0,0.0,0.0,0.0,0.0,0.0,0.0,0.0,0.0,0.0,0.0,0.0,0.0,0.0,0.0,0.0,0.0,0.0,0.0,0.0,0.0,0.0,0.0,0.0,0.0,0.0,0.0,0.0,0.0,0.0,0.0,0.0,0.0,0.0,0.0,0.0,0.0,0.0,0.0,0.0,0.0,0.0,0.0,0.0,0.0,0.0,0.0,0.0,0.0,0.0,0.0,0.0,0.0,0.0,0.0,0.0,0.0,0.0,0.0,0.0,0.0,0.0,0.0,0.0,0.0,0.0,0.0,0.0,0.0,0.0,0.0,0.0,0.0,0.0,0.0,0.0,0.0,0.0,0.0,0.0,0.0,0.0,0.0,0.0,1.2917,1.1858,1.1133,0.8005,0.3673,-0.1982,-0.5975,-0.9975,-1.4213,-1.4712,0.0,0.0,0.0,0.0,0.0,0.0,0.0,0.0,0.0,0.0,0.0,0.0,0.0,0.0,0.0,0.0,0.0,0.0,0.0,0.0,0.0,0.0,0.0,0.0,0.0,0.0,0.0,0.0,0.0,0.0,0.0,0.0,0.0,0.0,0.0,0.0,0.0,0.0,0.0,0.0,0.0,0.0,0.0,0.0,0.0,0.0,0.0,0.0,0.0,0.0,0.0,0.0,0.0,0.0,0.0,0.0,0.0,0.0,0.0,0.0,0.0,0.0,0.0,0.0,0.0,0.0,0.0,0.0,0.0,0.0,0.0,0.0,0.0,0.0,0.0,0.0,0.0,0.0,0.0,0.0,0.0,0.0,0.0,0.0,0.0,0.0,0.0,0.0,0.0,0.0,0.0,0.0,0.0,0.0,0.0,0.0,0.0,0.0,0.0,0.0,0.0,0.0,1.328,1.3531,1.2239,0.9414,0.5143,-0.0976,-0.6623,-1.1067,-1.3956,-1.4508,0.0,0.0,0.0,0.0,0.0,0.0,0.0,0.0,0.0,0.0,0.0,0.0,0.0,0.0,0.0,0.0,0.0,0.0,0.0,0.0,0.0,0.0,0.0,0.0,0.0,0.0,0.0,0.0,0.0,0.0,0.0,0.0,0.0,0.0,0.0,0.0,0.0,0.0,0.0,0.0,0.0,0.0,0.0,0.0,0.0,0.0,0.0,0.0,0.0,0.0,0.0,0.0,0.0,0.0,0.0,0.0,0.0,0.0,0.0,0.0,0.0,0.0,0.0,0.0,0.0,0.0,0.0,0.0,0.0,0.0,0.0,0.0,0.0,0.0,0.0,0.0,0.0,0.0,0.0,0.0,0.0,0.0,0.0,0.0,0.0,0.0,0.0,0.0,0.0,0.0,0.0,0.0,0.0,0.0,0.0,0.0,0.0,0.0,0.0,0.0,0.0,0.0,1.3621,1.3773,1.2807,1.0259,0.6131,-0.0006,-0.5927,-1.0458,-1.3125,0.0,0.0,0.0,0.0,0.0,0.0,0.0,0.0,0.0,0.0,0.0,0.0,0.0,0.0,0.0,0.0,0.0,0.0,0.0,0.0,0.0,0.0,0.0,0.0,0.0,0.0,0.0,0.0,0.0,0.0,0.0,0.0,0.0,0.0,0.0,0.0,0.0,0.0,0.0,0.0,0.0,0.0,0.0,0.0,0.0,0.0,0.0,0.0,0.0,0.0,0.0,0.0,0.0,0.0,0.0,0.0,0.0,0.0,0.0,0.0,0.0,0.0,0.0,0.0,0.0,0.0,0.0,0.0,0.0,0.0,0.0,0.0,0.0,0.0,0.0,0.0,0.0,0.0,0.0,0.0,0.0,0.0,0.0,0.0,0.0,0.0,0.0,0.0,0.0,0.0,0.0,0.0,0.0,0.0,0.0,0.0,0.0,0.0,0.0,0.0,0.0,0.0,1.3506,1.4406,1.4695,1.3761,1.1754,0.759,0.0509,-0.613,-1.07,-1.2562,0.0,0.0,0.0,0.0,0.0,0.0,0.0,0.0,0.0,0.0,0.0,0.0,0.0,0.0,0.0,0.0,0.0,0.0,0.0,0.0,0.0,0.0,0.0,0.0,0.0,0.0,0.0,0.0,0.0,0.0,0.0,0.0,0.0,0.0,0.0,0.0,0.0,0.0,0.0,0.0,0.0,0.0,0.0,0.0,0.0,0.0,0.0,0.0,0.0,0.0,0.0,0.0,0.0,0.0,0.0,0.0,0.0,0.0,0.0,0.0,0.0,0.0,0.0,0.0,0.0,0.0,0.0,0.0,0.0,0.0,0.0,0.0,0.0,0.0,0.0,0.0,0.0,0.0,0.0,0.0,0.0,0.0,0.0,0.0,0.0,0.0,0.0,0.0,0.0,0.0,0.0,0.0,0.0,0.0,0.0,0.0,0.0,0.0,0.0,0.0,0.0,0.0,1.394,1.5708,1.6607,1.5251,1.4071,0.9668,0.0515,-0.7514,-1.2123,0.0,0.0,0.0,0.0,0.0,0.0,0.0,0.0,0.0,0.0,0.0,0.0,0.0,0.0,0.0,0.0,0.0,0.0,0.0,0.0,0.0,0.0,0.0,0.0,0.0,0.0,0.0,0.0,0.0,0.0,0.0,0.0,0.0,0.0,0.0,0.0,0.0,0.0,0.0,0.0,0.0,0.0,0.0,0.0,0.0,0.0,0.0,0.0,0.0,0.0,0.0,0.0,0.0,0.0,0.0,0.0,0.0,0.0,0.0,0.0,0.0,0.0,0.0,0.0,0.0,0.0,0.0,0.0,0.0,0.0,0.0,0.0,0.0,0.0,0.0,0.0,0.0,0.0,0.0,0.0,0.0,0.0,0.0,0.0,0.0,0.0,0.0,0.0,0.0,0.0,0.0,0.0,0.0,0.0,0.0,0.0,0.0,0.0,0.0,0.0,0.0,0.0,0.0,1.3921,1.6305,1.7385,1.5576,1.3013,0.8989,0.2954,-0.4877,-0.9532,-0.9564,0.0,0.0,0.0,0.0,0.0,0.0,0.0,0.0,0.0,0.0,0.0,0.0,0.0,0.0,0.0,0.0,0.0,0.0,0.0,0.0,0.0,0.0,0.0,0.0,0.0,0.0,0.0,0.0,0.0,0.0,0.0,0.0,0.0,0.0,0.0,0.0,0.0,0.0,0.0,0.0,0.0,0.0,0.0,0.0,0.0,0.0,0.0,0.0,0.0,0.0,0.0,0.0,0.0,0.0,0.0,0.0,0.0,0.0,0.0,0.0,0.0,0.0,0.0,0.0,0.0,0.0,0.0,0.0,0.0,0.0,0.0,0.0,0.0,0.0,0.0,0.0,0.0,0.0,0.0,0.0,0.0,0.0,0.0,0.0,0.0,0.0,0.0,0.0,0.0,0.0,0.0,0.0,0.0,0.0,0.0,0.0,0.0,0.0,0.0,0.0,0.0,0.0,1.4446,1.6838,1.7947,1.6308,1.2833,0.8613,0.3624,-0.3919,-0.8615,-0.92,0.0,0.0,0.0,0.0,0.0,0.0,0.0,0.0,0.0,0.0,0.0,0.0,0.0,0.0,0.0,0.0,0.0,0.0,0.0,0.0,0.0,0.0,0.0,0.0,0.0,0.0,0.0,0.0,0.0,0.0,0.0,0.0,0.0,0.0,0.0,0.0,0.0,0.0,0.0,0.0,0.0,0.0,0.0,0.0,0.0,0.0,0.0,0.0,0.0,0.0,0.0,0.0,0.0,0.0,0.0,0.0,0.0,0.0,0.0,0.0,0.0,0.0,0.0,0.0,0.0,0.0,0.0,0.0,0.0,0.0,0.0,0.0,0.0,0.0,0.0,0.0,0.0,0.0,0.0,0.0,0.0,0.0,0.0,0.0,0.0,0.0,0.0,0.0,0.0,0.0,0.0,0.0,0.0,0.0,0.0,0.0,0.0,0.0,0.0,0.0,0.0,0.0,1.5327,1.7332,1.8359,1.7264,1.3385,0.8756,0.3556,-0.3659,-0.8618,-1.0374,0.0,0.0,0.0,0.0,0.0,0.0,0.0,0.0,0.0,0.0,0.0,0.0,0.0,0.0,0.0,0.0,0.0,0.0,0.0,0.0,0.0,0.0,0.0,0.0,0.0,0.0,0.0,0.0,0.0,0.0,0.0,0.0,0.0,0.0,0.0,0.0,0.0,0.0,0.0,0.0,0.0,0.0,0.0,0.0,0.0,0.0,0.0,0.0,0.0,0.0,0.0,0.0,0.0,0.0,0.0,0.0,0.0,0.0,0.0,0.0,0.6096,0.5233,0.0,0.0,0.0,0.0,0.0,0.0,0.0,0.0,0.0,0.0,0.0,0.0,0.0,0.0,0.0,0.0,0.0,0.0,0.0,0.0,0.0,0.0,0.0,0.0,0.0,0.0,0.0,0.0,0.0,0.0,0.0,0.0,0.0,0.0,0.0,0.0,0.0,0.0,0.0,0.0,1.6148,1.8037,1.8821,1.7471,1.4241,1.0788,0.7314,-0.0325,-0.647,-1.0026,-1.2456,0.0,0.0,0.0,0.0,0.0,0.0,0.0,0.0,0.0,0.0,0.0,0.0,0.0,0.0,0.0,0.0,0.0,0.0,0.0,0.0,0.0,0.0,0.0,0.0,0.0,0.0,0.0,0.0,0.0,0.0,0.0,0.0,0.0,0.0,0.0,0.0,0.0,0.0,0.0,0.0,0.0,0.0,0.0,0.0,0.0,0.0,0.0,0.0,0.0,0.0,0.0,0.0,0.0,0.0,0.0,0.0,0.0,0.0,0.0,0.8677,0.7297,0.0,0.0,0.0,0.0,0.0,0.0,0.0,0.0,0.0,0.0,0.0,0.0,0.0,0.0,0.0,0.0,0.0,0.0,0.0,0.0,0.0,0.0,0.0,0.0,0.0,0.0,0.0,0.0,0.0,0.0,0.0,0.0,0.0,0.0,0.0,0.0,0.0,0.0,0.0,0.0,1.6317,1.8304,1.9138,1.7741,1.503,1.2035,0.8848,0.1626,-0.4888,-0.9881,-1.233,0.0,0.0,0.0,0.0,0.0,0.0,0.0,0.0,0.0,0.0,0.0,0.0,0.0,0.0,0.0,0.0,0.0,0.0,0.0,0.0,0.0,0.0,0.0,0.0,0.0,0.0,0.0,0.0,0.0,0.0,0.0,0.0,0.0,0.0,0.0,0.0,0.0,0.0,0.0,0.0,0.0,0.0,0.0,0.0,0.0,0.0,0.0,0.0,0.0,0.0,0.0,0.0,0.0,1.2291,1.2632,1.3232,1.3565,1.3965,1.4145,1.1642,1.0053,0.9239,0.883,0.0,0.0,0.0,0.0,0.0,0.0,0.0,0.0,0.0,0.0,0.0,0.0,0.0,0.0,0.0,0.0,0.0,0.0,0.0,0.0,0.0,0.0,1.552,1.5149,1.613,1.6115,1.2351,0.0,0.0,0.0,0.0,0.0,0.0,0.0,0.0,0.0,0.0,0.0,1.6636,1.8535,1.9364,1.8027,1.5728,1.2955,0.9627,0.2947,-0.355,-0.9371,-1.1915,-1.399,0.0,0.0,0.0,0.0,0.0,0.0,0.0,0.0,0.0,0.0,0.0,0.0,0.0,0.0,0.0,0.0,0.0,0.0,0.0,0.0,0.0,0.0,0.0,0.0,0.0,0.0,0.0,0.0,0.0,0.0,0.0,0.0,1.2098,1.2244,0.0,0.0,0.0,0.0,0.0,0.0,0.0,0.0,0.0,0.0,0.0,0.0,0.0,1.2869,1.2815,1.3471,1.3801,1.3806,1.3516,1.3793,1.4561,1.4641,1.4894,1.5151,1.5056,0.0,1.3076,1.0837,0.0,0.0,0.0,0.0,0.0,0.0,0.0,0.0,0.0,0.0,0.0,0.0,0.0,0.0,0.0,0.0,0.0,0.0,0.0,0.0,0.0,0.0,1.8415,1.8186,1.8315,1.8007,1.6328,1.3119,1.0589,1.0582,1.0443,1.0564,0.0,0.0,0.0,0.0,0.0,0.0,1.829,1.9252,1.9404,1.8341,1.6323,1.3861,1.0902,0.427,-0.2111,-0.7574,-1.1882,-1.4878,-1.6345,-1.7156,0.0,0.0,0.0,0.0,0.0,0.0,0.0,0.0,0.0,0.0,0.0,0.0,0.0,0.0,0.0,0.0,0.0,0.0,0.0,0.0,0.0,0.0,0.0,0.0,0.0,0.0,0.0,0.0,0.0,1.3366,1.3783,1.431,1.4019,1.4023,0.0,0.0,0.0,0.0,0.0,0.0,0.0,0.0,0.0,1.2975,1.3652,1.4052,1.4052,1.4559,1.4853,1.4853,1.4687,1.4783,1.5156,1.5413,1.5662,1.577,1.5949,1.5955,1.5704,1.3301,1.228,1.2089,0.0,0.0,0.0,0.0,1.118,1.1832,1.3023,1.39,1.4463,1.384,0.0,0.0,0.0,0.0,0.0,0.0,0.0,1.6472,1.774,1.9123,2.0286,2.0841,2.0419,1.9628,1.8648,1.6551,1.4343,1.2637,1.2912,1.3154,1.2237,1.3934,0.0,0.0,0.0,1.8127,1.8718,1.9258,1.9263,1.8395,1.6427,1.4032,1.1154,0.4872,-0.1577,-0.7812,-1.2027,-1.5476,-1.8071,-1.8215,-1.8444,0.0,0.0,0.0,0.0,0.0,0.0,0.0,0.0,0.0,0.0,0.0,0.0,0.0,0.0,0.0,0.0,0.0,0.0,0.0,0.0,0.0,0.0,0.0,0.0,0.0,0.0,0.0,0.0,1.462,1.5529,1.6041,1.5525,1.5489,0.0,0.0,0.0,0.0,0.0,0.0,1.4928,1.4873,1.4813,1.4813,1.5304,1.5538,1.5538,1.5806,1.5968,1.5968,1.5968,1.5853,1.571,1.6386,1.6587,1.6367,1.6476,1.6904,1.7347,1.5111,1.412,1.3896,1.2783,1.2097,1.1869,1.2593,1.359,1.467,1.5748,1.6848,1.7659,1.6907,1.6242,1.5632,1.4925,0.0,0.0,0.0,0.0,1.8977,2.0118,2.1078,2.1917,2.2526,2.1835,2.0827,2.0111,1.9104,1.7578,1.4838,1.5424,1.5795,1.3996,1.6072,0.0,1.698,1.8275,1.9291,1.9176,1.9373,1.9254,1.8503,1.6629,1.4265,1.132,0.5563,-0.0561,-0.6908,-1.1226,-1.5201,-1.8831,-1.9038,-1.9826,-2.1403,0.0,0.0,0.0,0.0,0.0,0.0,0.0,0.0,0.0,0.0,0.0,0.0,0.0,0.0,0.0,0.0,0.0,0.0,0.0,0.0,0.0,0.0,0.0,0.0,0.0,0.0,0.0,0.0,0.0,1.6735,1.6399,0.0,0.0,0.0,0.0,1.6298,1.6305,1.6316,1.6316,1.6665,1.6871,1.6871,1.7233,1.749,1.749,1.7457,1.7468,1.7468,1.7468,1.7135,1.6503,1.7647,1.7806,1.7155,1.7582,1.7729,1.7605,1.5563,1.4953,1.5243,1.4666,1.4211,1.405,1.573,1.674,1.7376,1.7881,1.8459,1.8833,1.8246,1.7743,1.7479,1.8352,1.8451,0.0,0.0,2.1562,2.2047,2.3158,2.3548,2.3416,2.2832,2.2138,2.1463,2.0713,2.0026,1.8961,1.71,1.7183,1.7544,1.7288,0.0,1.9502,1.9506,1.9915,2.0215,2.0133,1.9983,1.9597,1.8851,1.7205,1.492,1.1834,0.6782,0.1708,-0.3159,-0.8725,-1.3576,-1.7425,-1.9763,-2.1479,-2.2592,-2.2247,0.0,0.0,0.0,0.0,0.0,0.0,0.0,0.0,0.0,0.0,0.0,0.0,0.0,0.0,0.0,0.0,0.0,0.0,0.0,0.0,0.0,0.0,0.0,0.0,0.0,0.0,0.0,0.0,1.7919,1.7486,0.0,1.8289,1.7563,1.7187,1.7509,1.744,1.7365,1.7365,1.7372,1.7375,1.7375,1.7543,1.7578,1.7578,1.7578,1.7578,1.7578,1.7578,1.7468,1.7202,1.7645,1.7734,1.7464,1.7639,1.7821,1.805,1.6998,1.656,1.6567,1.6537,1.6422,1.6406,1.699,1.7915,1.8862,1.902,1.9756,2.0567,2.045,2.0562,2.0799,2.1234,2.1605,2.1979,2.2697,2.3612,2.44,2.4828,2.551,2.5969,2.5255,2.4172,2.3105,2.237,2.1291,2.0373,1.9949,1.996,1.9792,1.9036,2.0501,2.1577,2.0947,2.1029,2.1131,2.1169,2.026,1.9456,1.8987,1.7214,1.4921,1.2102,0.8045,0.2892,-0.3514,-0.8181,-1.295,-1.7887,-1.951,-2.1133,-2.304,-2.329,-2.1755,0.0,0.0,0.0,0.0,0.0,0.0,0.0,0.0,0.0,0.0,0.0,0.0,0.0,0.0,0.0,0.0,0.0,0.0,0.0,0.0,0.0,0.0,0.0,0.0,0.0,0.0,1.7821,1.8602,1.8348,1.8405,1.9196,1.8633,1.8411,1.8707,1.8646,1.8512,1.8512,1.8419,1.8328,1.8328,1.8328,1.8328,1.8328,1.8328,1.8328,1.8328,1.8328,1.8221,1.795,1.8221,1.8232,1.795,1.795,1.8144,1.8429,1.8098,1.7879,1.7707,1.7922,1.795,1.8015,1.8232,1.9005,1.9976,2.0182,2.1129,2.2191,2.1754,2.2374,2.3255,2.3359,2.4094,2.4963,2.4954,2.5879,2.6842,2.6623,2.7165,2.7588,2.687,2.5704,2.4482,2.349,2.2589,2.193,2.1915,2.1624,2.1306,2.0953,2.2221,2.2857,2.1654,2.1803,2.1749,2.0862,2.0111,1.9517,1.9135,1.7437,1.5266,1.2662,0.8317,0.3101,-0.3089,-0.7704,-1.2323,-1.7188,-1.8146,-1.986,-2.266,-2.3593,-2.2222,-1.8539,0.0,0.0,0.0,0.0,0.0,0.0,0.0,0.0,0.0,0.0,0.0,0.0,0.0,0.0,0.0,0.0,0.0,0.0,0.0,0.0,0.0,0.0,0.0,1.652,1.7894,1.8995,1.8802,1.898,1.9296,1.9799,1.9397,1.9309,1.9812,1.985,1.985,1.985,1.9798,1.9798,1.985,1.985,1.9798,1.9798,1.9798,1.9798,1.9798,1.9798,1.9423,1.8768,1.9527,1.9463,1.8821,1.8768,1.8768,1.8821,1.8768,1.8768,1.8821,1.8768,1.8768,1.8874,1.9579,2.0202,2.0787,2.1381,2.2515,2.3478,2.2207,2.3053,2.4598,2.4782,2.6032,2.7475,2.758,2.8432,2.9194,2.8622,2.8399,2.8126,2.7464,2.658,2.5471,2.4067,2.3803,2.3589,2.2868,2.2141,2.2029,2.3145,2.3614,2.3321,2.1763,2.2389,0.0,1.9396,1.9624,1.9839,1.9314,1.7908,1.5984,1.3502,0.7676,0.2475,-0.1523,-0.6913,-1.156,-1.5136,-1.5765,-1.7741,-2.1444,-2.3059,-2.2772,-2.0522,0.0,0.0,0.0,0.0,0.0,0.0,0.0,0.0,0.0,0.0,0.0,0.0,0.0,0.0,0.0,0.0,0.0,0.0,0.0,0.0,0.0,0.0,2.0026,1.9655,2.0027,2.0503,2.0846,2.0938,2.1008,2.117,2.1035,2.0842,2.0534,2.056,2.056,2.056,2.0055,2.0003,2.0497,2.056,2.0295,1.9798,2.0308,2.0308,1.9798,1.9798,1.994,2.0219,2.0434,2.0657,2.0851,2.0408,2.0445,2.0851,2.0408,2.0495,2.0815,2.0408,2.0232,2.032,2.0939,2.1291,2.1439,2.1621,2.2226,2.3077,2.3603,2.4793,2.6105,2.7102,2.7752,2.8192,2.8222,2.8107,2.7891,2.7767,2.8132,2.8334,2.764,2.7368,2.6904,2.5327,2.4611,2.414,2.371,2.3276,2.32,2.3897,2.4425,2.4654,2.4406,2.4099,2.3553,2.2713,2.1532,2.0255,1.8878,1.7386,1.5521,1.3144,1.0072,0.633,0.1809,-0.389,-0.8849,-1.2825,-1.3825,-1.5847,-1.9132,-1.895,-1.883,0.0,0.0,0.0,0.0,0.0,0.0,0.0,0.0,0.0,0.0,0.0,0.0,0.0,0.0,0.0,0.0,0.0,0.0,0.0,0.0,0.0,0.0,2.1549,2.2005,2.2775,2.1917,2.1324,2.1655,2.1697,2.1697,2.1697,2.1697,2.1568,2.121,2.1161,2.1161,2.1161,2.0805,2.067,2.0795,2.1028,2.0868,2.0258,2.0881,2.0966,2.0607,2.0607,2.0805,2.1161,2.1161,2.139,2.1697,2.1342,2.139,2.1649,2.1342,2.139,2.1663,0.0,0.0,0.0,0.0,2.2066,2.2498,2.2231,2.304,2.4312,2.4835,2.5998,2.741,2.8172,2.8786,2.9132,2.8558,2.8578,2.8614,2.8072,2.8322,2.8663,2.8249,2.8122,2.7745,2.6451,2.5793,2.5266,2.4746,2.4388,0.0,2.4568,2.4801,2.4821,2.4505,2.4612,2.428,2.2984,2.2422,2.1459,1.9615,1.8261,1.6487,1.4041,1.091,0.0,0.0,0.0,-0.6842,-1.0704,-1.2783,0.0,0.0,0.0,-1.7614,-1.8367,-1.8082,0.0,0.0,-1.8437,-1.8174,0.0,0.0,0.0,0.0,0.0,0.0,0.0,0.0,0.0,0.0,0.0,0.0,0.0,0.0,0.0,0.0,2.3349,2.3985,2.5605,2.3792,2.2301,2.2141,2.2085,2.2044,2.2044,2.1988,2.1899,2.1805,2.1805,2.1805,2.1805,0.0,0.0,0.0,0.0,2.1534,2.0894,2.1534,2.1744,2.1697,2.1697,2.1744,2.1805,2.1805,2.1852,2.1885,2.1852,2.1852,2.1885,2.1852,2.1885,2.2011,2.1918,2.1918,2.2011,2.2044,2.2844,2.38,2.3184,0.0,0.0,2.5858,2.6994,2.8517,2.8468,2.9303,2.9971,2.8796,2.9371,3.0075,2.8946,2.8843,2.8976,2.8976,2.8757,2.8324,2.744,2.7159,2.6785,2.5791,2.5393,2.5226,2.5139,2.4946,2.4495,2.3572,2.4699,2.4748,2.2222,2.2963,2.298,2.0977,1.9642,0.0,1.538,1.0906,0.6874,0.3646,-0.1331,-0.5641,-0.8947,-1.2123,-1.3692,-1.3443,-1.6062,-1.7749,-1.8422,-1.9919,-2.0619,-2.0556,-1.933,-1.9144,0.0,0.0,0.0,0.0,0.0,0.0,0.0,0.0,0.0,0.0,0.0,0.0,0.0,0.0,0.0,2.5526,2.6151,2.6651,2.7021,2.6614,2.5926,2.4934,2.4351,2.4042,2.4042,2.354,2.3039,2.2543,2.2498,2.2498,2.2498,2.1993,2.1899,2.2314,2.2452,2.2207,2.152,2.2161,2.2253,2.1697,2.1697,0.0,2.2498,2.2498,2.277,2.3216,2.2725,2.277,2.3172,2.2725,2.3054,2.3846,2.336,2.3447,2.393,2.4368,2.4704,2.4909,2.4768,2.5772,2.7099,2.6837,2.8232,2.9781,2.9082,2.9319,0.0,2.9549,2.9068,2.8661,2.9042,2.9018,2.8846,2.8846,2.9148,2.9214,2.8408,2.8216,2.777,2.6403,2.6151,2.5977,2.5437,2.5387,2.5582,2.6077,2.6379,2.6468,2.6227,2.5258,2.368,2.1364,1.9131,1.691,1.467,1.1442,0.8982,0.765,-0.0565,-0.6243,-0.8228,-1.038,-1.1787,-1.2377,-1.4264,-1.6101,-1.7946,-2.0004,-2.1248,-2.1662,-2.0771,-1.9997,0.0,0.0,0.0,0.0,0.0,0.0,0.0,0.0,0.0,0.0,0.0,2.5486,0.0,0.0,2.6583,2.7249,2.765,2.8003,2.8372,2.8377,2.7949,2.6645,2.5935,2.5574,2.5574,2.4957,2.4462,2.4187,2.4089,2.4059,2.4059,2.367,2.3445,2.346,2.3788,2.3646,2.2966,2.3603,2.3634,2.304,2.304,2.3084,2.3143,2.3435,2.3721,2.3991,2.3679,2.3876,2.4389,2.407,2.4277,2.4776,2.4784,2.4784,2.4816,2.5105,2.5221,2.5221,2.5221,2.5841,2.6688,2.6989,2.8115,2.9347,2.9261,2.9558,2.9903,2.9972,2.9732,2.9579,3.0148,2.9999,2.9746,2.9857,2.9795,2.9618,2.9314,2.8965,2.8517,2.7879,2.7163,2.6539,2.6203,2.5839,2.5879,2.6716,2.7195,2.7438,2.7351,2.6778,2.5504,2.3293,2.1309,1.9313,1.7223,1.2904,0.9206,0.6733,0.094,-0.3387,-0.5597,-0.7893,-0.9533,-1.0385,-1.2192,-1.427,-1.6535,-1.8728,-2.0444,-2.1652,-2.1577,-2.0996,0.0,0.0,0.0,0.0,0.0,0.0,0.0,0.0,2.9093,2.9022,2.8402,2.7951,2.829,2.8115,2.8095,2.8663,2.8874,2.9124,2.968,2.9761,2.9367,2.8282,2.7397,2.6858,2.6886,2.6304,2.594,2.594,2.5867,2.58,2.58,2.5703,2.5314,2.4614,2.5132,2.5084,2.4411,2.4925,2.4973,2.4552,2.4552,2.4307,2.3921,2.4348,2.4552,2.4552,2.4552,2.4776,2.5221,2.5297,2.5335,2.5411,2.5924,2.5944,2.5603,2.5508,2.5545,2.5603,2.5603,2.603,2.6652,2.7105,2.793,2.8806,2.929,2.9793,3.0264,3.0516,3.0769,3.1091,3.1538,3.1303,3.1052,3.1258,3.0684,3.0143,3.0314,2.9747,2.9225,2.9237,2.8252,2.7284,2.6937,2.6308,2.6134,2.6949,2.7604,2.7948,2.779,2.7821,2.712,2.5164,2.3669,2.1793,1.9282,1.4084,0.922,0.5277,0.2671,0.0058,-0.2711,-0.5378,-0.718,-0.8122,-1.0105,-1.2387,-1.4938,-1.7309,-1.9357,-2.1037,-2.1765,-2.1715,3.1393,3.1079,3.0843,3.0149,3.0057,3.0119,0.0,0.0,3.0025,2.9605,2.9437,2.9248,2.8994,2.9404,2.9837,2.9921,3.046,3.0914,3.0998,3.1015,3.0948,3.078,2.9221,2.8179,2.8206,2.7588,2.7179,2.7179,2.7198,2.7192,2.7192,2.7153,2.6832,2.6086,2.6166,2.5822,2.5089,2.5166,2.5182,2.5105,2.5105,2.5067,2.5012,2.5089,2.5105,2.5105,2.5105,2.5144,2.5259,2.5726,2.5924,2.5961,2.6436,2.6791,2.7017,2.6657,2.674,2.708,2.708,2.7764,2.8574,2.7994,2.8762,2.9796,2.9289,2.9875,3.0869,3.1657,3.1785,3.1861,3.2608,3.258,3.2384,3.24,3.1943,3.1494,3.1593,3.0936,3.0128,2.9492,2.9293,2.8693,2.7089,2.6771,2.7047,2.7906,2.7814,2.8103,2.9374,2.8428,2.7013,2.5442,2.3786,2.109,1.6872,1.359,1.0461,0.7421,0.4367,0.1525,-0.1079,-0.331,-0.502,-0.6192,-0.8139,-1.0606,-1.3619,-1.6834,-1.8948,-1.9983,-2.0968,-2.1567,3.4199,3.3413,3.2722,0.0,3.2491,3.257,3.2074,3.1996,3.1936,3.1734,3.1265,3.0819,3.0657,3.0687,3.0734,0.0,3.1004,3.1291,3.1507,3.1545,3.164,3.1914,3.1035,3.0172,2.9548,2.8947,2.8554,2.8554,2.8508,2.8445,2.8445,2.8388,2.8196,2.7898,2.7881,2.7732,2.7433,2.7433,2.7052,2.6325,2.6325,2.5907,2.5221,2.554,2.5652,2.5689,2.6214,2.625,2.6023,2.6804,2.7095,2.7126,2.7317,2.75,2.7589,2.721,2.7286,2.7648,2.7648,2.7947,2.8393,2.8546,2.9169,2.9886,3.0252,3.0856,3.1581,3.2595,3.2801,3.2954,3.396,3.3767,3.3353,3.3539,3.2659,3.1932,3.2481,3.1961,3.1437,3.1625,3.087,3.0115,2.9871,2.8571,2.7932,2.9129,2.8338,2.809,2.9412,2.8606,2.7255,2.5425,2.3678,2.1298,1.8053,1.533,1.2586,0.9721,0.816,0.5722,0.2005,0.0874,-0.109,-0.4101,-0.5517,-0.7668,-1.075,-1.4199,-1.6894,-1.8857,-2.0492,-1.8951,3.5762,3.5109,0.0,3.4542,3.4782,3.4852,3.4189,3.405,3.4021,3.3894,3.3143,3.2442,3.2209,3.172,3.1312,3.123,3.119,3.1351,3.1752,3.1679,3.1806,3.2299,3.1914,3.1397,3.0754,3.0234,2.9892,2.9892,2.9799,2.9762,2.9762,2.9664,2.9556,2.9464,2.9353,2.9251,2.9157,2.9047,2.8541,2.7603,2.7603,2.7214,2.6434,2.6719,2.6742,2.6556,2.7175,2.7251,2.6946,2.7613,2.7897,2.7897,2.7897,2.7954,2.7992,2.7718,2.7794,2.802,2.802,2.812,2.8354,2.9224,2.9689,3.0124,3.1459,3.2061,3.2437,3.3467,3.3809,3.4055,3.4899,3.469,3.4356,3.4591,3.3392,3.2384,3.3081,3.2381,3.1884,3.2768,3.1711,3.0942,3.1797,3.0127,2.9062,3.0157,2.9104,2.843,2.913,2.8229,2.6947,2.5363,2.3601,2.1703,1.9625,1.7182,1.4657,1.1955,1.1221,0.9272,0.5632,0.4706,0.2508,-0.1207,-0.2228,-0.42,-0.7186,-1.0134,-1.268,-1.4899,-1.6313,-1.4069,3.5801,0.0,3.6923,3.6671,3.6614,3.6556,3.6278,3.6229,3.6076,3.562,3.4862,3.4067,3.3227,3.2381,3.166,3.1252,3.119,3.1351,3.1752,3.147,3.1406,3.1858,3.1504,3.1351,0.0,3.1411,3.1151,3.1151,3.1134,3.1157,3.1157,3.114,3.0963,3.0664,3.0267,2.989,2.9573,2.9193,2.8975,2.8941,2.8941,2.9141,2.9451,2.9149,2.8588,2.7823,2.7869,2.7869,2.7869,2.7897,2.7897,2.7897,2.7897,2.8102,2.8376,2.8376,2.8376,2.8376,2.8376,2.8633,2.915,3.0222,3.0549,3.091,3.2768,3.3336,3.3525,3.4411,3.4851,3.5049,3.5105,3.532,3.5542,3.5572,3.4326,3.3173,3.3271,3.1905,3.0917,3.1867,3.1256,3.0853,3.1668,3.105,3.0535,3.082,3.0166,2.9439,2.8887,2.7083,2.5688,2.5243,2.3691,2.2104,2.0682,1.8546,1.6388,1.4119,1.2522,1.1117,0.9833,0.7453,0.5048,0.2751,0.1796,-0.016,-0.3193,-0.4546,-0.5729,-0.6766,-0.6404,-0.6434,3.7168,0.0,3.7939,3.7845,3.7821,3.7619,3.6749,3.6578,3.6472,3.6142,3.5331,3.4568,3.4288,3.3485,3.2661,3.2026,3.22,3.2375,3.2283,3.2417,3.2681,3.3105,3.2777,0.0,0.0,0.0,0.0,3.1565,3.1603,3.1603,3.1603,3.1878,3.2004,3.1895,3.1759,3.1654,3.1542,3.1392,3.1062,3.0589,3.0082,2.9934,3.0074,2.9933,2.9745,2.9497,2.9776,2.9907,2.9871,2.9546,2.9432,2.9377,2.8826,2.87,2.8821,2.9012,2.906,2.906,2.906,2.9144,2.9532,3.1145,3.128,3.128,3.3769,3.4125,3.3894,3.4942,3.5336,3.5432,3.5432,3.5155,3.5026,3.5651,3.4062,3.2736,3.3906,3.3234,3.2472,3.2742,3.2513,3.2333,3.2628,3.1758,3.1016,3.1021,3.0212,2.9296,2.8334,2.7051,2.599,2.5281,2.4013,2.2892,2.2058,1.9611,1.7794,1.7093,1.4657,1.2814,1.1797,1.0143,0.8446,0.6773,0.5197,0.3587,0.1839,0.0203,-0.0452,-0.0202,-0.0098,0.1946,3.8177,3.8632,3.8804,3.8967,3.902,3.8742,3.7792,3.7578,3.7493,3.7216,3.6276,3.5438,3.5244,3.4137,3.3206,3.3093,3.3117,3.3294,3.3635,3.3594,3.3655,3.3996,3.3376,3.3014,0.0,0.0,0.0,3.2039,3.2057,3.2057,3.2057,3.235,3.2583,3.2745,3.2583,3.2583,3.2745,3.2583,3.2269,3.1788,3.1479,3.1183,3.0898,3.1063,3.0959,3.0718,3.0976,3.1074,3.1065,3.0759,3.0632,3.0601,3.0185,3.0009,2.9995,2.9995,2.9982,2.9944,2.9625,2.9513,2.9776,3.1352,3.1498,3.1512,3.4064,3.4424,3.4139,3.4921,3.5165,3.5145,3.4816,3.4644,3.4681,3.5287,3.4144,3.3144,3.3968,3.3633,3.3108,3.2759,3.2645,3.2772,3.3257,3.2787,3.2162,3.1636,3.0803,2.9737,2.827,2.6875,2.5809,2.5243,2.4194,2.3216,2.2392,2.0424,1.8946,1.8172,1.6416,1.4764,1.3438,1.2664,1.1519,0.9919,0.8457,0.7242,0.6293,0.5421,0.5267,0.5823,0.6051,0.8277,3.8718,3.9191,3.9567,4.0002,4.012,3.9943,3.9289,3.9152,3.9036,3.8792,3.763,3.6552,0.0,0.0,3.3438,3.4372,3.399,3.4123,3.5663,3.4909,3.4265,0.0,0.0,0.0,0.0,0.0,0.0,3.2583,0.0,3.255,3.255,3.255,3.2777,3.3214,3.2809,3.2777,3.3214,3.2777,3.2583,3.2583,3.3014,3.2816,3.2112,3.2519,3.2272,3.1538,3.1544,3.1587,3.1587,3.1532,3.1513,3.152,3.173,3.1824,3.1752,3.1261,3.1088,3.0974,3.0162,2.9805,2.9897,3.0975,3.1336,3.1694,3.3652,3.4265,3.4351,3.4469,3.449,3.4302,3.3498,3.3873,3.4482,3.4521,3.4453,3.4179,3.3386,3.3064,3.2706,3.1883,3.1675,3.2045,3.3424,3.386,3.3634,3.2504,3.1761,3.0638,2.8704,2.6623,2.5269,2.5269,2.4297,2.3113,2.1885,2.1102,1.9838,1.7813,1.7686,1.6863,1.5069,1.4989,1.416,1.2382,1.1574,1.0842,1.0186,1.0786,1.1145,1.1193,1.1933,1.2575,3.9194,3.9823,4.0365,4.0377,4.0389,4.0302,3.9943,3.9645,3.9364,3.9063,3.776,3.6654,0.0,0.0,0.0,3.4771,3.5366,0.0,3.5675,3.5724,0.0,3.5798,0.0,3.5107,3.4574,3.4415,0.0,0.0,3.3196,3.3014,3.3014,3.3302,3.3504,3.3634,3.355,3.3522,3.3652,3.355,3.3476,3.3476,3.3578,3.3543,3.3342,3.3654,3.369,3.351,3.3758,3.3845,3.3808,3.3154,3.2893,3.2837,3.2315,3.2109,3.2109,3.2172,3.2197,3.2206,3.2218,3.1226,3.0117,3.128,3.1669,3.1903,3.3114,3.393,3.4457,3.4484,3.4534,3.4515,3.43,3.3469,3.2827,3.3471,3.2602,3.1713,3.211,3.2139,3.1845,3.0932,3.0586,3.0681,3.15,3.1558,3.1542,3.1565,3.096,3.0184,2.933,2.7712,2.6466,2.6046,2.4945,2.3891,2.3172,2.2058,2.1164,2.0637,1.9233,1.8205,1.771,1.6902,1.6223,1.5733,1.4214,1.3541,1.3896,1.3049,1.2941,1.3493,1.4175,1.4572,3.9908,4.0374,4.0721,4.0604,4.0545,4.0293,3.9527,3.9205,3.8841,3.8042,3.6949,0.0,3.6164,0.0,0.0,0.0,0.0,0.0,3.7066,3.7025,3.6906,0.0,3.6505,0.0,3.5624,3.5587,3.5385,0.0,3.3998,3.3465,3.3465,3.368,3.3807,3.3807,3.3807,3.3807,3.3807,3.3807,3.3868,3.3986,3.3986,3.4062,3.4208,3.4353,3.4423,3.4423,3.4632,3.4694,3.4656,3.4167,3.3978,3.3941,3.36,3.3483,3.3462,3.3379,3.3359,3.3339,3.3188,3.2367,3.1457,3.1743,3.1841,3.2018,3.297,3.3595,3.3975,3.4012,3.3782,3.3465,3.3075,3.2499,3.2121,3.2611,3.2201,3.1724,3.1792,3.2048,3.2014,3.1133,3.0663,3.0495,3.0845,3.0928,3.0919,3.0818,3.0482,2.9997,2.9369,2.806,2.7081,2.6784,2.5648,2.4593,2.3733,2.2991,2.2334,2.1724,2.0654,1.9927,1.9645,1.8718,1.8054,1.7762,1.6374,1.5753,1.5796,1.5039,1.4865,1.528,1.5624,1.5999,4.065,4.0809,4.0768,4.0718,4.0596,4.0142,3.8797,3.8417,3.8009,3.6639,0.0,3.5449,3.5449,3.5103,3.5314,3.6772,0.0,3.7667,3.8796,3.8427,3.7954,3.7739,3.7145,3.6712,3.6602,3.6583,3.6528,3.6436,3.5071,3.4215,3.4181,3.4089,3.3979,3.3921,3.3902,3.3902,3.3902,3.3902,3.4037,3.4288,3.4288,3.4423,3.4694,3.4753,3.4754,3.4773,3.4774,3.4812,3.4812,3.4812,3.4812,3.4832,3.5066,3.5168,3.5101,3.4646,3.4497,3.4399,3.3777,3.3476,3.3243,3.2361,3.2088,3.2221,3.2937,3.3222,3.3307,3.3241,3.2734,3.1992,3.1249,3.1413,3.1792,3.1792,3.2279,3.2522,3.1777,3.21,3.2295,3.1604,3.1061,3.0697,3.0697,3.0865,3.0774,3.016,2.9995,2.9732,2.9085,2.8014,2.7265,2.7278,2.624,2.5116,2.4054,2.3782,2.3198,2.2052,2.1799,2.1424,2.0845,2.0206,1.953,1.8874,1.8112,1.7468,1.6922,1.681,1.681,1.6922,1.6922,1.7302,4.0957,4.0877,4.0768,4.0718,4.0596,4.021,3.907,3.8607,0.0,0.0,3.5809,3.5107,3.5107,3.5031,3.5283,3.6267,0.0,0.0,0.0,0.0,3.9163,0.0,0.0,0.0,0.0,0.0,0.0,0.0,3.6776,3.6494,3.6217,3.5578,3.4987,3.4567,3.4548,3.4548,3.4548,3.4548,3.4569,3.4593,3.4593,3.4653,3.4694,3.4926,3.5016,3.5034,3.5254,3.5369,3.5369,3.5369,3.5369,3.5364,3.5476,3.5516,3.5519,3.548,3.5468,3.5444,3.5441,3.4956,3.4211,3.334,3.3071,3.2979,3.2535,3.2851,3.3241,3.2598,3.2223,3.1995,3.1858,3.1281,3.0758,3.0758,3.082,3.0841,3.0687,3.0574,3.0457,3.0324,2.9938,2.9659,2.9659,2.926,2.8999,2.9195,2.8938,2.8781,2.8963,2.7906,2.7189,2.7272,2.6154,2.5377,2.5297,2.4294,2.3587,2.3378,2.232,2.1424,2.0845,2.0696,2.0283,1.9631,1.8874,1.8768,1.9202,1.8608,1.8608,1.9202,1.9202,1.9319,4.1126,4.0955,4.0785,4.0771,4.0623,4.006,3.8404,0.0,0.0,0.0,3.4768,3.4394,3.4394,0.0,0.0,3.5569,0.0,0.0,0.0,0.0,0.0,0.0,0.0,0.0,0.0,0.0,3.8867,3.8471,3.8433,3.8011,3.7009,3.6592,3.6265,3.5998,3.6,3.6,3.6,3.6,3.6061,3.6217,3.5742,3.5608,3.5732,3.543,3.5304,3.5304,3.5446,3.5493,3.5507,3.554,3.5558,3.555,3.5621,3.5646,3.5663,3.5774,3.5802,3.5812,3.5921,3.5675,3.5265,3.4837,3.4409,3.3961,3.3613,3.3769,3.3984,3.3568,3.2756,3.2001,3.1971,3.1236,3.0498,3.0498,3.034,3.0196,3.0196,3.0003,2.9845,2.9845,2.9607,2.9412,2.9412,2.8837,2.8416,2.8404,2.8089,2.7836,2.7809,2.7278,2.7101,2.7648,2.6882,2.624,2.6047,2.5439,2.4984,2.4734,2.4083,2.3169,2.1844,2.1781,2.1136,1.9811,1.9475,1.9254,1.9202,1.8874,1.8874,1.9202,1.9202,1.9423,4.1191,4.1133,4.1035,4.0859,4.0645,3.9912,3.7695,3.7192,0.0,0.0,3.3807,3.3807,3.3807,0.0,3.4844,0.0,3.6618,3.7765,0.0,0.0,0.0,0.0,0.0,0.0,0.0,0.0,0.0,3.98,3.98,3.9134,3.7635,3.762,3.7565,3.7375,3.7375,3.7375,3.7375,3.7375,3.749,3.7689,3.6984,3.676,3.6969,3.6334,3.593,3.5757,3.5757,3.5674,3.5534,3.5577,3.5611,3.563,3.5716,3.5729,3.5761,3.588,3.5916,3.5938,3.5975,3.5996,3.5996,3.5996,3.541,3.4707,3.4707,3.455,3.439,3.4348,3.329,3.2153,3.1929,3.1316,3.0714,3.052,3.022,2.9999,2.9999,2.9813,2.9644,2.9644,2.9455,2.931,2.931,2.879,2.829,2.7954,2.756,2.7147,2.6758,2.6691,2.6993,2.7711,2.7316,2.6772,2.6287,2.6213,2.6032,2.5615,2.5615,2.4875,2.3217,2.314,2.226,2.0411,2.0411,2.0032,1.9275,1.9275,1.9215,1.9107,1.9107,1.9377,4.1191,4.1585,4.1801,4.0996,4.0645,3.9912,3.7695,0.0,0.0,3.426,3.3807,3.3807,3.3807,3.3862,3.4412,0.0,3.6544,3.7336,0.0,0.0,0.0,0.0,0.0,0.0,0.0,0.0,4.0422,4.0422,4.0422,3.99,3.8709,3.8944,3.875,3.7963,3.7943,3.7943,3.7943,3.7943,3.7943,3.7959,3.7882,3.7858,3.7873,3.7796,3.7334,3.6603,3.6603,3.6203,3.559,3.56,3.5639,3.5703,3.5836,3.5877,3.588,3.5953,3.5996,3.5996,3.5996,3.5996,3.5996,3.5996,3.541,3.4707,3.4707,3.4095,3.3425,3.3418,3.318,3.2744,3.2008,3.1699,3.1395,3.0595,3.019,2.9999,2.9999,2.9696,2.9414,2.9414,2.9203,2.904,2.904,2.8682,2.829,2.7954,2.756,2.7147,2.6758,2.6691,2.6742,2.6809,2.6526,2.6125,2.5726,2.5646,2.5646,2.5615,2.5615,2.5272,2.4543,2.4494,2.3842,2.2352,2.2366,2.2003,2.1219,2.1219,2.1011,2.0523,2.0523,2.0248,4.1328,4.1644,4.1899,4.1015,4.0645,4.0046,3.8319,0.0,3.6678,3.4887,3.4137,3.3807,3.3807,3.391,3.4356,3.5358,3.631,3.7178,3.7812,0.0,0.0,0.0,0.0,0.0,0.0,0.0,4.0489,4.0489,4.0489,4.0303,3.984,3.9941,3.9854,3.9508,3.9488,3.9488,3.9488,3.9488,3.9488,3.9488,3.9008,3.8777,3.8757,3.8238,3.7847,3.7602,3.7602,3.7461,3.7242,3.7274,3.7019,3.6601,3.6704,3.642,3.5953,3.5996,3.5996,3.5996,3.5996,3.5996,3.5996,3.5948,3.571,3.5417,3.5417,3.5096,3.4742,3.471,3.4242,3.3713,3.3338,3.2478,3.1621,3.1275,3.0476,2.9813,2.9813,2.9456,2.9156,2.9156,2.9067,2.8929,2.8682,2.836,2.7964,2.7589,2.721,2.6873,2.6725,2.6691,2.659,2.6297,2.6151,2.6037,2.5971,2.5687,2.5515,2.5585,2.5974,2.5764,2.4742,2.5055,2.4603,2.3303,2.283,2.247,2.2159,2.169,2.138,2.1154,2.1154,2.1041,4.1179,4.1579,4.1891,4.0993,4.0572,4.0038,0.0,0.0,3.6733,3.5634,3.4541,3.3862,3.4119,3.4102,3.437,3.5248,3.6222,3.7075,3.7747,3.9058,0.0,0.0,0.0,4.0489,0.0,4.0489,4.0489,4.0489,4.0489,4.0489,4.0489,4.0489,4.0489,4.0489,4.0489,4.0489,4.0489,4.0489,4.0489,4.0489,3.9931,3.9672,3.9692,3.9075,3.8735,3.8617,3.8617,3.8505,3.833,3.837,3.8099,3.7621,3.7674,3.7148,3.6387,3.6387,3.621,3.5973,3.5973,3.593,3.5903,3.5853,3.5827,3.5811,3.5811,3.5749,3.5663,3.5621,3.496,3.4248,3.4218,3.3064,3.1935,3.1935,3.0934,2.9964,2.9964,2.9479,2.8994,2.8994,2.8994,2.8905,2.8633,2.829,2.7908,2.753,2.7147,2.6841,2.6725,2.6691,2.659,2.6227,2.6085,2.5901,2.5703,2.5377,2.5195,2.5285,2.5929,2.5886,2.4999,2.5374,2.5178,2.4236,2.3705,2.3446,2.342,2.2887,2.242,2.2043,2.2043,2.1855,4.0616,4.1443,4.1874,4.0931,4.0412,3.9794,0.0,0.0,3.6638,3.6333,3.4963,3.4045,3.4825,3.4339,3.4339,3.6009,3.6285,3.7063,3.9284,3.958,0.0,0.0,0.0,4.0489,4.0489,4.0489,4.0489,4.0489,4.0489,4.0489,4.0489,4.0489,4.0489,4.0489,4.0489,4.0489,4.0489,4.0489,4.0489,4.0489,4.0489,4.0554,4.0692,4.0672,4.0276,3.959,3.959,3.9129,3.8404,3.8404,3.8463,3.8594,3.8594,3.8047,3.7285,3.7285,3.6694,3.5903,3.5903,3.5807,3.571,3.571,3.5655,3.5591,3.5591,3.5591,3.5591,3.5611,3.4932,3.4212,3.4199,3.335,3.2496,3.2496,3.1525,3.0583,3.0583,2.9754,2.8994,2.8994,2.8994,2.8994,2.8994,2.8658,2.829,2.7936,2.753,2.7147,2.6758,2.6691,2.6691,2.6691,2.6297,2.5577,2.4511,2.4516,2.4627,2.4597,2.5255,2.5615,2.5615,2.5615,2.5549,2.5502,2.5451,2.5455,2.5384,2.5384,2.4681,2.3369,2.3369,2.2691,3.9456,4.0337,4.0989,3.9564,3.949,3.9592,3.9021,3.8177,3.7456,3.718,3.5789,3.4706,3.4935,3.4489,3.4816,3.7095,3.7629,3.8235,0.0,0.0,0.0,0.0,4.0162,4.0489,0.0,0.0,4.0489,4.0489,4.0489,4.0489,4.0489,4.0489,4.0489,4.0489,4.0489,4.0489,4.0489,4.0582,4.0636,4.0649,4.0679,4.0723,4.0761,4.0761,4.0692,4.056,4.056,4.0457,4.0309,4.0309,3.9998,3.9492,3.9492,3.8965,3.8183,3.8094,3.7513,3.6778,3.6688,3.6229,3.5696,3.5638,3.5621,3.559,3.5546,3.5528,3.5528,3.5528,3.5316,3.5056,3.4868,3.4105,3.3339,3.3165,3.2255,3.1272,3.0714,3.0198,2.9659,2.9104,2.8994,2.8929,2.8633,2.829,2.7936,2.753,2.7147,2.6841,2.6725,2.6691,2.6691,2.6691,2.5944,2.5335,2.4989,2.4632,2.4326,2.3924,2.4567,2.4941,2.4941,2.5375,2.561,2.5549,2.5081,2.4819,2.4765,2.4298,2.3554,2.2747,2.2747,2.2286,3.7962,3.8986,3.9738,3.8845,3.8879,3.913,3.9107,3.8181,3.735,3.7463,3.5936,3.4651,3.4935,3.4548,3.4833,3.6764,3.7554,3.8312,0.0,0.0,0.0,3.9838,0.0,0.0,0.0,4.0588,4.0596,4.0604,4.0604,4.0604,4.0604,4.0577,4.0596,4.0604,4.0577,4.0588,4.0588,4.0676,4.0742,4.0742,4.0788,4.0836,4.087,4.087,4.0955,4.1077,4.1077,4.1126,0.0,4.1191,4.0879,4.0391,4.0391,3.9823,3.8996,3.8915,3.8312,3.7534,3.7447,3.7045,3.6513,3.6137,3.5813,3.555,3.5515,3.5493,3.5493,3.5493,3.5493,3.5432,3.5174,3.4617,3.4073,3.3761,3.2881,3.1969,3.1446,3.0973,3.0411,2.9622,2.9457,2.9229,2.8525,2.8129,2.7765,2.7348,2.6971,2.6691,2.6691,2.6691,2.6691,2.6691,2.6123,2.5709,2.554,2.4632,2.3964,2.3638,2.3999,2.4238,2.4238,2.4627,2.4971,2.5241,2.4776,2.464,2.4888,2.417,2.3598,2.3185,2.2618,2.2213,0.0,3.7368,3.8181,3.8505,3.8514,3.8541,3.8971,3.7664,0.0,3.7331,3.5569,3.4137,3.4972,3.4611,3.454,3.5576,3.6581,3.7614,0.0,3.9624,0.0,0.0,4.0596,0.0,4.0878,4.0773,4.0731,4.0793,4.0801,4.0801,4.0801,4.0752,4.0742,4.0793,4.0752,4.0726,4.0715,4.077,4.0809,4.0809,4.0816,4.0883,4.1,4.1,4.108,4.1191,4.1191,4.1191,4.1191,4.1191,4.1191,4.1191,4.1191,4.0617,3.9782,3.9774,3.9096,3.8194,3.8183,3.8106,3.7873,3.7065,3.6238,3.5603,3.5603,3.5565,3.5493,3.5493,3.5493,3.5417,3.5138,3.487,3.4572,3.4265,3.3414,3.2687,3.2614,3.2008,3.1237,3.0448,3.0283,2.9911,2.8732,2.8219,2.7836,2.7396,2.6971,2.6691,2.6691,2.6691,2.6691,2.6691,2.6657,2.647,2.6049,2.4592,2.3681,2.3681,2.3638,2.3595,2.3595,2.3595,2.3894,2.4507,2.4507,2.4852,2.5465,2.4757,2.4388,2.4339,2.2958,2.2352,3.3277,0.0,3.702,3.6474,3.7522,3.8664,0.0,3.7959,3.7257,3.7441,3.6028,3.5046,3.6096,3.5157,3.5075,3.7677,3.8328,3.886,3.995,0.0,0.0,4.2454,4.1448,4.1219,4.2635,4.1565,4.0768,4.0793,4.0801,4.0801,4.0801,4.0796,4.0768,4.0801,4.089,4.0877,4.0779,4.0896,4.0955,4.0955,4.1055,4.1126,4.115,4.115,4.1171,4.1191,4.1191,4.1191,4.1191,4.1191,4.1191,4.1191,4.1082,4.0909,4.0671,4.0516,3.9887,3.9085,3.9044,3.857,3.7969,3.7757,3.7123,3.643,3.643,3.5988,3.5493,3.5493,3.5354,3.5122,3.4851,3.4572,3.4242,3.3961,3.3695,3.3348,3.2742,3.2467,3.2082,3.1274,3.1109,3.0827,2.993,2.926,2.857,2.7871,2.7147,2.6691,2.6691,2.6691,2.6691,2.6691,2.6367,2.612,2.6013,2.5297,2.4672,2.4225,2.3837,2.3595,2.3595,2.3595,2.367,2.3834,2.3849,2.3909,2.4073,2.3881,2.3553,2.3094,2.2249,2.1614,3.2317,3.4475,3.6612,3.6433,3.7365,3.8382,3.8627,3.7477,3.6358,3.6358,3.5423,3.4814,3.5442,3.5327,3.5719,3.7432,3.8498,0.0,0.0,0.0,4.2082,4.3124,4.2419,4.2285,0.0,4.2643,4.2089,4.2119,4.2124,4.1968,4.1558,4.151,4.1329,4.0988,4.0992,4.0959,4.0883,4.1023,4.1082,4.1082,4.1171,4.1191,4.1191,4.1191,4.1191,4.1191,4.1191,4.1191,4.1191,4.1191,4.1151,4.1103,4.1026,4.0939,4.0859,4.074,4.0365,3.9901,3.986,3.9296,3.8604,3.8604,3.8007,3.7296,3.7296,3.6719,3.5968,3.5603,3.5304,3.5053,3.4754,3.4445,3.4123,3.385,3.3807,3.3678,3.3238,3.3146,3.2908,3.2118,3.1953,3.1576,3.0396,2.9873,2.9223,2.8021,2.7485,2.708,2.6742,2.6691,2.6691,2.6691,2.647,2.6332,2.6332,2.5872,2.5221,2.4471,2.4116,2.3879,2.3595,2.3595,2.3595,2.3595,2.3595,2.3595,2.3595,2.3595,2.3421,2.3098,2.2132,2.152,3.27,3.4711,3.6679,3.6948,3.7523,3.8129,3.8505,3.6838,3.5248,3.5155,3.4693,3.4386,3.4656,3.5702,0.0,0.0,0.0,0.0,4.1997,4.2742,4.3269,4.3602,4.3419,0.0,4.397,4.3762,4.3637,4.3691,4.3691,4.3379,4.2637,4.2548,4.2234,4.1601,4.1336,4.1202,4.1202,4.1207,4.1191,4.1191,4.1191,4.1191,4.1191,4.1191,4.1191,4.1191,4.1191,4.1191,4.1191,4.1191,4.1126,4.0996,4.0988,4.0855,4.0692,4.0667,4.0596,4.0489,4.0489,4.0046,3.9469,3.9469,3.8892,3.82,3.82,3.7584,3.6743,3.6003,3.5449,3.4981,3.4694,3.4379,3.4074,3.3868,3.3807,3.3807,3.3807,3.3807,3.3605,3.2926,3.2797,3.2292,3.0731,3.0406,2.986,2.8288,2.8029,2.7774,2.7131,2.6928,2.686,2.686,2.6759,2.6691,2.6691,2.6332,2.5689,2.4712,2.4592,2.4266,2.3752,2.3638,2.3595,2.3595,2.3595,2.3595,2.3595,2.3595,2.3595,2.3551,2.2409,2.1852,3.4127,3.5825,3.6966,3.6067,3.7235,3.8487,3.8127,3.7206,3.6317,3.5852,3.5155,3.5129,3.6768,3.726,3.794,0.0,0.0,4.1962,0.0,0.0,4.3922,4.5479,0.0,4.4161,4.5721,4.455,4.3691,4.3691,4.3691,4.3633,4.3516,4.3496,4.3437,4.332,4.2578,4.2186,4.2186,4.1523,4.1191,4.1191,4.1191,4.1191,4.1191,4.1191,4.1191,4.1191,4.1191,4.1191,4.1191,4.1191,4.1126,4.0992,4.087,4.0781,4.068,4.0574,4.0519,4.0489,4.0489,4.0412,4.0315,4.0315,3.9758,3.9104,3.9104,3.8488,3.7713,3.7309,3.6027,3.4694,3.4357,3.4068,3.3868,3.3815,3.3807,3.3807,3.3807,3.3807,3.3752,3.3642,3.3623,3.3214,3.1928,3.1439,3.0779,2.9436,2.9005,2.8755,2.8636,2.8044,2.7638,2.7638,2.708,2.6691,2.6691,2.6624,2.6367,2.5799,2.5335,2.4831,2.4307,2.3837,2.3595,2.3595,2.3595,2.3595,2.3595,2.3595,2.3595,2.3595,2.2875,2.2558,3.4032,3.5314,3.6474,3.6801,3.8396,3.9709,3.8977,3.822,3.7464,3.675,3.6423,3.654,3.7431,0.0,3.9914,4.1869,0.0,4.3616,4.4085,4.4499,4.509,0.0,0.0,4.5311,4.6211,4.5586,4.5098,4.5098,4.5098,4.4902,4.4433,4.4394,4.4199,4.3711,4.3301,4.3105,4.3105,4.2734,4.2109,4.1191,4.1191,4.1191,4.1191,4.1191,4.1191,4.1191,4.1191,4.1151,4.1082,4.1082,4.0983,4.0835,4.0762,4.0676,4.0568,4.0534,4.0489,4.0489,4.0489,4.0489,4.0489,4.0489,4.0239,3.995,3.995,3.9237,3.8378,3.8079,3.6704,3.5294,3.496,3.4345,3.3807,3.3807,3.3807,3.3807,3.3807,3.3807,3.3807,3.3807,3.3807,3.3552,3.2773,3.2505,3.1862,3.0368,3.0006,2.9691,2.9098,2.867,2.845,2.845,2.8146,2.7757,2.7334,2.73,2.6785,2.5631,2.5067,2.4511,2.3991,2.3709,2.3595,2.3595,2.3595,2.3595,2.3595,2.3595,2.3595,2.361,2.2965,2.2498,3.4274,3.5055,3.6074,3.7754,3.9194,4.0155,4.0031,3.9261,3.8452,3.8059,3.8136,3.8282,3.8282,3.9937,0.0,4.3577,4.4514,4.5059,4.5145,4.564,4.6033,4.6124,4.6147,4.6198,4.6289,4.6308,4.6308,4.6308,4.6308,4.6016,4.5332,4.5293,4.5,4.4336,4.4101,4.4004,4.4004,4.3808,4.3066,4.1797,4.1797,4.168,4.1484,4.1484,4.1387,4.1191,4.1171,4.1082,4.0996,4.0959,4.0848,4.0703,4.0703,4.0623,4.0489,4.0489,4.0489,4.0489,4.0489,4.0489,4.0489,4.0489,4.0489,4.0489,4.0489,3.9862,3.9051,3.8745,3.7558,3.622,3.5553,3.4755,3.4027,3.3844,3.3807,3.3807,3.3807,3.3807,3.3807,3.3807,3.3807,3.368,3.3273,3.3214,3.2706,3.1202,3.0976,3.061,2.9624,2.9347,2.9245,2.9245,2.9093,2.8738,2.8146,2.8095,2.7451,2.5982,2.5084,2.4389,2.3991,2.3709,2.3595,2.3595,2.3595,2.3595,2.3595,2.3595,2.3595,2.3595,2.3113,2.262,3.5985,3.6194,3.6316,3.8191,3.838,3.8646,4.0701,3.9928,3.907,4.0063,4.0281,4.0281,4.0281,4.1788,4.3369,4.444,4.5403,4.6042,4.6171,0.0,4.6269,4.6289,4.6289,4.6289,4.6308,4.6308,4.6308,4.6308,4.6308,4.6269,4.6211,4.6211,4.6172,4.6113,4.5332,4.4902,4.4902,4.4101,4.3633,4.3516,4.3516,4.3105,4.2305,4.2305,4.1914,4.1191,4.1077,4.1019,4.0992,4.0864,4.0781,4.0703,4.0703,4.0623,4.0489,4.0489,4.0489,4.0489,4.0489,4.0489,4.0489,4.0489,4.0489,4.0489,4.0489,4.0264,3.9946,3.9615,3.8676,3.734,3.5524,3.4981,3.4715,3.3972,3.3807,3.3807,3.3807,3.3807,3.3807,3.3807,3.3807,3.368,3.3273,3.3214,3.2872,3.1933,3.1773,3.1556,3.1099,3.0446,3.0023,3.0023,2.9397,2.8958,2.8907,2.889,2.8656,2.8009,2.6176,2.5144,2.5105,2.4116,2.3595,2.3595,2.3595,2.3595,2.3595,2.3595,2.3595,2.3595,2.3551,2.3508,3.4203,3.5492,3.674,3.711,3.8248,3.9556,4.0574,4.1161,4.1735,4.2665,4.2502,4.2202,0.0,0.0,4.4384,4.4766,4.5617,4.6246,4.6289,4.6308,4.6308,4.6308,4.6308,4.6308,4.6308,4.6308,4.6308,4.6308,4.6308,4.6308,4.6308,4.6308,4.6308,4.6308,4.5976,4.5801,4.5801,4.5488,4.5312,4.5293,4.4219,4.3535,4.3203,4.3203,4.2754,4.1933,4.1855,4.1442,4.0864,4.0781,4.0672,4.0588,4.0588,4.0545,4.0489,4.0489,4.0489,4.0489,4.0489,4.0489,4.0489,4.0489,4.0489,4.0489,4.0489,4.0321,4.0022,3.969,3.9158,3.8311,3.6932,3.5789,3.4917,3.4633,3.4174,3.3807,3.3807,3.3807,3.3807,3.3807,3.3807,3.3734,3.3606,3.3578,3.3273,3.2401,3.2248,3.1968,3.1291,3.0954,3.0784,3.0784,3.0125,2.9685,2.9685,2.9245,2.8757,2.8174,2.6701,2.5719,2.5397,2.4219,2.3595,2.3595,2.3595,2.3595,2.3595,2.3595,2.3595,2.3595,2.3595,2.3421,3.3693,3.522,3.6919,3.7177,3.8567,4.0114,4.1091,4.2027,4.3066,4.4432,4.4124,4.3637,4.3734,0.0,0.0,0.0,4.5696,4.6308,4.6308,4.6308,4.6308,4.6308,4.6308,4.6308,4.6308,4.6308,4.6308,4.6308,4.6308,4.6308,4.6308,4.6308,4.6308,4.6308,4.6308,4.6308,4.6308,4.6308,4.6308,4.6289,4.5098,4.4375,4.4101,4.4101,4.3633,4.2812,4.2734,4.2309,4.161,4.1516,4.126,4.0873,4.0604,4.0489,4.0489,4.0489,4.0489,4.0489,4.0489,4.0489,4.0489,4.0489,4.0489,4.0489,4.0489,4.025,3.9901,3.9668,3.9282,3.8803,3.8081,3.6835,3.5734,3.5477,3.5,3.4504,3.4247,3.4192,3.41,3.3844,3.3807,3.3807,3.3807,3.3807,3.3504,3.2648,3.2484,3.2196,3.1291,3.119,3.119,3.119,3.0751,3.0446,3.0446,2.9973,2.9501,2.9121,2.7761,2.6592,2.5812,2.4758,2.4238,2.4238,2.4029,2.3924,2.3924,2.3699,2.3595,2.3595,2.3595,2.3377,3.5153,3.5677,3.6795,3.877,3.9296,4.0008,4.2527,4.245,4.2566,4.5103,4.5032,4.4511,4.4511,4.4737,0.0,4.4907,4.5696,4.6308,4.6308,4.6308,4.6308,4.6308,4.6308,4.6308,4.6308,4.6308,4.6308,4.6308,4.6308,4.6308,4.6308,4.6308,4.6308,4.6308,4.6308,4.6308,4.6308,4.6308,4.6308,4.6308,4.6308,4.5859,4.5019,4.5019,4.4531,4.3711,4.3635,4.3538,4.34,4.3253,4.2665,4.1739,4.0854,4.0508,4.0508,4.0508,4.0508,4.0489,4.0489,4.0489,4.0489,4.0489,4.0489,4.0489,4.0489,4.0082,3.9599,3.9599,3.9181,3.8707,3.8707,3.8102,3.7294,3.6486,3.6303,3.6064,3.5192,3.5009,3.4752,3.3972,3.3807,3.3807,3.3807,3.3807,3.3522,3.2648,3.2517,3.2196,3.1291,3.119,3.119,3.119,3.119,3.119,3.119,3.119,3.119,3.119,2.9461,2.7815,2.6452,2.5863,2.5615,2.5615,2.4971,2.4597,2.4597,2.3954,2.3625,2.3625,2.3625,2.3625,3.2771,3.4913,3.7356,3.6781,3.9816,4.3001,4.3137,4.3852,4.4897,4.6409,4.6629,4.6176,4.4994,4.5379,0.0,4.5008,4.5696,4.6308,4.6308,4.6308,4.6308,4.6308,4.6308,4.6308,4.6308,4.6308,4.6308,4.6308,4.6308,4.6308,4.6308,4.6308,4.6308,4.6308,4.6308,4.6308,4.6308,4.6308,4.6308,4.6308,4.6308,4.6152,4.5918,4.5918,4.5449,4.4609,4.4533,4.4083,4.3391,4.3195,4.2977,4.2701,4.2431,4.195,4.1412,4.1412,4.1027,4.0489,4.0489,4.0489,4.0489,4.0489,4.0489,4.0489,4.0489,4.023,3.9901,3.9668,3.9308,3.8933,3.8732,3.8524,3.8138,3.7331,3.6707,3.6229,3.5973,3.5917,3.5661,3.4816,3.4651,3.4468,3.3899,3.3807,3.3606,3.3075,3.2713,3.2196,3.1291,3.119,3.119,3.119,3.119,3.119,3.119,3.119,3.1015,3.0601,3.0037,2.9156,2.7874,2.6413,2.5615,2.5615,2.542,2.5315,2.5315,2.5106,2.5016,2.5016,2.5016,2.5016,3.455,3.6688,3.9018,3.9064,4.1551,4.4136,4.4661,4.526,4.5906,4.6542,4.6794,4.6577,4.5566,4.5872,0.0,4.5555,4.5935,4.6308,4.6308,4.6308,4.6308,4.6308,4.6308,4.6308,4.6308,4.6308,4.6308,4.6308,4.6308,4.6308,4.6308,4.6308,4.6308,4.6308,4.6308,4.6308,4.6308,4.6308,4.6308,4.6308,4.6308,4.6308,4.6308,4.6308,4.6016,4.5508,4.5431,4.5,4.4344,4.386,4.3628,4.3547,4.322,4.2777,4.2316,4.2316,4.1758,4.1008,4.1008,4.0777,4.0489,4.0489,4.0489,4.0473,4.0372,4.0139,3.9819,3.9505,3.9171,3.8894,3.8732,3.8707,3.8579,3.8083,3.7606,3.7165,3.6835,3.678,3.6523,3.5679,3.5532,3.5367,3.4871,3.4504,3.4128,3.3762,3.2844,3.1968,3.1291,3.119,3.119,3.119,3.119,3.119,3.119,3.119,3.1055,3.0699,3.0208,2.961,2.881,2.7488,2.6665,2.6393,2.6138,2.6004,2.6004,2.5734,2.5615,2.5615,2.5615,2.5615,3.8396,3.973,4.1215,4.3673,4.387,4.4109,4.656,4.6508,4.5963,4.6013,0.0,4.6117,4.6117,4.6223,4.6308,4.6308,4.6308,4.6308,4.6308,4.6308,4.6308,4.6308,4.6308,4.6308,4.6308,4.6308,4.6308,4.6308,4.6308,4.6308,4.6308,4.6308,4.6308,4.6308,4.6308,4.6308,4.6308,4.6308,4.6308,4.6308,4.6308,4.6308,4.6308,4.6308,4.6308,4.6289,4.6147,4.6001,4.5832,4.4967,4.453,4.4355,4.3605,4.3278,4.3201,4.3201,4.2662,4.1912,4.1835,4.1277,4.0604,4.0527,4.0489,4.0457,4.0177,3.988,3.9529,3.9186,3.8894,3.8707,3.8707,3.8707,3.8707,3.8707,3.8707,3.8505,3.7753,3.7606,3.7349,3.656,3.6413,3.6376,3.6303,3.5614,3.4874,3.4344,3.293,3.1746,3.1269,3.119,3.119,3.119,3.119,3.119,3.119,3.119,3.119,3.119,3.0166,2.9496,2.9406,2.8779,2.814,2.7625,2.6976,2.6677,2.6677,2.6078,2.5794,2.5794,2.5794,2.5794,3.5665,3.8504,4.1838,4.2451,4.4058,4.5655,4.6332,4.6358,4.6371,4.6952,4.6638,4.6268,4.6268,4.6289,4.6308,4.6308,4.6308,4.6308,4.6308,4.6308,4.6308,4.6308,4.6308,4.6308,4.6308,4.6308,4.6308,4.6308,4.6308,4.6308,4.6308,4.6308,4.6308,4.6308,4.6308,4.6308,4.6308,4.6308,4.6308,4.6308,4.6308,4.6308,4.6308,4.6308,4.6308,4.6289,4.6045,4.5924,4.5861,4.5501,4.5349,4.5297,4.5124,4.4643,4.4047,4.4047,4.3528,4.272,4.2047,4.1681,4.1412,4.0719,4.0489,4.0457,4.0177,3.988,3.9529,3.9186,3.8894,3.8707,3.8707,3.8707,3.8707,3.8707,3.8707,3.8652,3.8487,3.8432,3.8193,3.7386,3.7221,3.7037,3.6413,3.58,3.49,3.3512,3.2958,3.2366,3.1336,3.119,3.119,3.119,3.119,3.119,3.119,3.119,3.119,3.119,3.0975,3.0393,2.9451,2.8352,2.771,2.7625,2.749,2.7365,2.7365,2.7215,2.7156,2.7156,2.7156,2.7156,3.7063,3.9652,4.2333,4.3676,4.5117,4.6319,4.6816,4.6914,4.7148,4.7959,4.7146,4.6426,4.6855,4.6914,4.6797,4.6367,4.6641,4.6777,4.6367,4.6308,4.6308,4.6308,4.6308,4.6308,4.6308,4.6308,4.6308,4.6308,4.6308,4.6308,4.6308,4.6308,4.6308,4.6308,4.6308,4.6308,4.6308,4.6308,4.6308,4.6308,4.6308,4.6308,4.6308,4.6308,4.6268,4.62,4.6069,4.5935,4.5839,4.5742,4.5648,4.5586,4.5586,4.5316,4.4913,4.4913,4.4393,4.3605,4.3143,4.2739,4.2277,4.1412,4.102,4.0747,4.0077,3.9622,3.9308,3.899,3.8803,3.8707,3.8707,3.8707,3.8707,3.8707,3.8707,3.8707,3.8707,3.8707,3.8579,3.8157,3.8065,3.7936,3.7514,3.6671,3.5588,3.4092,3.3691,3.3106,3.1879,3.1715,3.1579,3.1241,3.119,3.119,3.119,3.119,3.119,3.119,3.0918,3.0351,2.9451,2.8496,2.791,2.7625,2.7625,2.7625,2.7625,2.7625,2.7625,2.7625,2.7625,2.7625,3.8665,4.083,4.2721,4.546,4.6321,0.0,4.7441,4.7715,4.8066,4.8945,4.7851,4.6973,4.7695,4.7812,4.7598,4.6875,4.7344,4.7519,4.6641,4.6523,4.6465,4.6328,4.6308,4.6308,4.6308,4.6308,4.6308,4.6308,4.6308,4.6308,4.6308,4.6308,4.6308,4.6308,4.6308,4.6308,4.6308,4.6308,4.6308,4.6308,4.6308,4.6308,4.6308,4.6289,4.6202,4.6108,4.6064,4.5946,4.5796,4.5789,4.5692,4.5586,4.5586,4.5586,4.5586,4.5586,4.5143,4.4489,4.4355,4.3855,4.3162,4.2297,4.1852,4.1417,4.0356,3.9821,3.9535,3.9031,3.8909,3.8891,3.8744,3.8707,3.8707,3.8707,3.8707,3.8707,3.8707,3.8707,3.8707,3.8707,3.8707,3.8658,3.8578,3.7573,3.636,3.5084,3.4495,3.3779,3.2642,3.2476,3.2239,3.163,3.1579,3.1529,3.1393,3.1376,3.1326,3.1207,3.0617,3.0038,2.9406,2.8826,2.8238,2.761,2.7625,2.7625,2.7625,2.7625,2.7625,2.7625,2.7625,2.7625,3.5212,3.8807,4.2983,4.5624,4.6855,4.7461,0.0,0.0,4.8965,0.0,4.9238,4.8594,4.8691,4.873,4.8691,4.8574,4.8652,4.8418,4.7558,4.7422,4.7148,4.6387,4.6308,4.6308,4.6308,4.6308,4.6308,4.6308,4.6308,4.6308,4.6308,4.6308,4.6308,4.6308,4.6308,4.6308,4.6308,4.6308,4.6308,4.6308,4.6308,4.6308,4.6308,4.6175,4.6117,4.6084,4.592,4.5828,4.5783,4.568,4.562,4.5586,4.5586,4.5586,4.5586,4.5586,4.5528,4.5316,4.4566,4.422,4.4008,4.3181,4.2896,4.2715,4.1996,4.1744,4.1417,4.0099,3.9735,3.957,3.8891,3.8707,3.8707,3.8707,3.8707,3.8707,3.8707,3.8707,3.8707,3.8707,3.8707,3.8546,3.8099,3.7524,3.6673,3.5401,3.4768,3.4168,3.3355,3.3254,3.322,3.3119,3.3119,3.2848,3.2188,3.2138,3.1867,3.1241,3.0617,3.0038,2.9406,2.8826,2.8238,2.761,2.7625,2.7625,2.7625,2.7625,2.7625,2.7625,2.7625,2.7625,3.6633,3.9875,4.3144,4.625,4.7324,4.7851,4.8828,4.9355,4.9863,5.0703,5.0566,5.0156,4.9707,4.9629,4.9473,4.8984,4.9316,4.9316,4.8457,4.832,4.8008,4.7129,4.7031,4.6836,4.6348,4.6308,4.6308,4.6308,4.6308,4.6308,4.6308,4.6308,4.6308,4.6308,4.6308,4.6308,4.6308,4.6308,4.6308,4.6308,4.6223,4.6198,4.6175,4.6013,4.5955,4.5981,4.5847,4.5761,4.5677,4.5618,4.5586,4.5586,4.5586,4.5586,4.5586,4.5586,4.5586,4.5547,4.5163,4.5028,4.4893,4.4047,4.3652,4.3407,4.2629,4.2114,4.1678,4.1022,4.0714,4.0396,3.957,3.9368,3.9258,3.8817,3.8707,3.8707,3.8707,3.8707,3.8707,3.8707,3.8707,3.8627,3.8382,3.7703,3.7029,3.6464,3.5666,3.4861,3.4117,3.4015,3.3863,3.344,3.3406,3.3271,3.2933,3.2916,3.2594,3.185,3.1258,3.0446,2.9422,2.8826,2.8238,2.761,2.7625,2.7625,2.7625,2.7625,2.7625,2.7625,2.7625,2.7625,3.7123,3.9585,4.1719,4.5625,4.6933,4.7773,0.0,0.0,5.0683,0.0,5.1406,5.1211,5.0625,5.0508,5.0293,4.9648,5.0078,5.0215,4.9355,4.9238,4.8906,4.8027,4.793,4.7598,4.6719,4.6621,4.6543,4.6328,4.6308,4.6308,4.6308,4.6308,4.6308,4.6308,4.6308,4.6308,4.6308,4.6308,4.6308,4.6308,4.6153,4.6108,4.6084,4.588,4.5832,4.5862,4.579,4.5692,4.5586,4.5586,4.5586,4.5586,4.5586,4.5586,4.5586,4.5586,4.5586,4.5586,4.5586,4.5586,4.549,4.4836,4.4498,4.4191,4.3357,4.2761,4.2277,4.189,4.1606,4.1222,4.0414,4.0047,3.9753,3.9148,3.8854,3.8707,3.8707,3.8707,3.8707,3.8707,3.8578,3.8515,3.8515,3.7667,3.6999,3.6999,3.6207,3.5419,3.4844,3.4776,3.4573,3.4032,3.3964,3.3897,3.3694,3.3677,3.3355,3.2611,3.2007,3.1249,3.0238,2.9438,2.8827,2.8344,2.8222,2.797,2.7625,2.7625,2.7625,2.7625,2.7625,2.7625,3.4004,3.5625,0.0,4.2637,4.5156,4.7031,0.0,0.0,5.1348,5.1387,5.1406,5.1387,5.1348,5.1348,5.1328,5.1289,5.1308,5.1055,5.0254,5.0137,4.9805,4.8945,4.8828,4.8496,4.7617,4.7539,4.7187,4.6367,4.6308,4.6308,4.6308,4.6308,4.6308,4.6308,4.6308,4.6308,4.6308,4.6308,4.6308,4.6308,4.6153,4.6108,4.6084,4.588,4.5809,4.5809,4.5665,4.5603,4.5586,4.5586,4.5586,4.5586,4.5586,4.5586,4.5586,4.5586,4.5586,4.5586,4.5586,4.5586,4.5586,4.5547,4.5528,4.538,4.4692,4.4473,4.4137,4.2659,4.2231,4.2047,4.1258,4.0469,3.9882,3.9845,3.9239,3.8707,3.8707,3.8707,3.8707,3.8707,3.83,3.7946,3.7946,3.7135,3.6457,3.6457,3.5985,3.5605,3.5571,3.5554,3.5554,3.5504,3.5504,3.5216,3.4489,3.4438,3.4134,3.3389,3.2773,3.2413,3.2335,3.1133,3.0468,3.0452,2.9803,2.8846,2.7625,2.7625,2.7625,2.7625,2.7625,2.7625,3.3086,3.4492,0.0,4.0937,4.3789,4.5996,4.8066,5.0019,5.1406,5.1406,5.1406,5.1406,5.1406,5.1406,5.1406,5.1406,5.1406,5.1308,5.1016,5.0976,5.0664,4.9824,4.9726,4.9394,4.8516,4.8437,4.8066,4.7207,4.7129,4.6894,4.6328,4.6308,4.6308,4.6308,4.6308,4.6308,4.6308,4.6308,4.6308,4.6308,4.608,4.5974,4.5947,4.5757,4.568,4.5665,4.562,4.5586,4.5586,4.5586,4.5586,4.5586,4.5586,4.5586,4.5586,4.5586,4.5586,4.5586,4.5586,4.5586,4.5586,4.5586,4.5586,4.5513,4.5074,4.4757,4.4444,4.362,4.3254,4.2873,4.2084,4.1662,4.1185,4.0139,3.968,3.9331,3.8817,3.8707,3.8707,3.8707,3.8267,3.7893,3.7893,3.7097,3.6374,3.6374,3.5941,3.5622,3.5622,3.5622,3.5622,3.5622,3.5622,3.5504,3.5233,3.5216,3.4895,3.415,3.3567,3.2974,3.2512,3.1677,3.1047,3.0612,3.0371,2.9596,2.8233,2.8233,2.8008,2.7625,2.7625,2.7625,3.1582,3.2969,3.4961,0.0,4.1816,4.3848,4.7617,4.9336,5.0371,5.1211,5.1406,5.1406,5.1406,5.1406,5.1406,5.1406,5.1406,5.1406,5.1406,5.1406,5.1191,5.0664,5.0605,5.0273,4.9414,4.9336,4.8965,4.8105,4.8047,0.0,4.7207,4.6894,4.6601,4.6308,4.6308,4.6308,4.6308,4.6308,4.6308,4.6308,4.6033,4.5899,4.589,4.5699,4.5586,4.5586,4.5586,4.5586,4.5586,4.5586,4.5586,4.5586,4.5586,4.5586,4.5586,4.5586,4.5586,4.5586,4.5586,4.5586,4.5586,4.5586,4.5586,4.5513,4.5074,4.4776,4.4501,4.3974,4.3679,4.3369,4.2837,4.2506,4.1956,4.0616,4.0102,3.9753,3.9221,3.8891,3.8707,3.8707,3.815,3.7649,3.7649,3.6825,3.6139,3.6139,3.581,3.5622,3.5622,3.5622,3.5622,3.5622,3.5622,3.5622,3.5622,3.5622,3.5402,3.4895,3.4471,3.4056,3.3573,3.2722,3.2042,3.1605,3.1155,3.0335,2.9235,2.9026,2.8577,2.7919,2.7919,2.785,0.0,0.0,0.0,3.8418,0.0,0.0,4.8125,0.0,4.8183,5.0762,5.1289,5.1308,5.1387,5.1406,5.1406,5.1406,5.1406,5.1406,5.1406,5.1406,5.1406,5.1406,5.1406,5.1094,5.0312,5.0234,4.9863,4.9004,4.8945,4.8926,4.8906,4.8066,4.7207,4.6367,4.6308,4.6308,4.6308,4.6308,4.6308,4.6289,4.6033,4.5899,4.589,4.5684,4.5586,4.5586,4.5586,4.5586,4.5586,4.5586,4.5586,4.5586,4.5586,4.5586,4.5586,4.5586,4.5586,4.5586,4.5586,4.5586,4.5586,4.5586,4.5586,4.5457,4.4781,4.458,4.4419,4.3712,4.3497,4.3497,4.3497,4.291,4.2139,4.135,4.0543,3.9955,3.9937,3.9294,3.8726,3.8707,3.7913,3.721,3.721,3.6316,3.5605,3.5605,3.5622,3.5622,3.5622,3.5622,3.5622,3.5622,3.5622,3.5622,3.5622,3.5622,3.5622,3.5622,3.5622,3.5622,3.5622,3.435,3.3633,3.3582,3.2256,3.1195,3.0537,2.9909,2.9265,2.8622,2.8622,2.8263,2.8594,0.0,0.0,0.0,0.0,0.0,0.0,0.0,4.4746,4.7988,4.8652,4.9219,5.1055,5.1406,5.1406,5.1406,5.1406,5.1406,5.1406,5.1406,5.1406,5.1406,5.1406,5.1308,5.1094,5.1074,5.0723,0.0,4.9844,4.957,4.8926,4.8066,4.748,4.7246,4.6621,4.6308,4.6308,4.6308,4.6247,4.6147,4.5981,4.5872,4.582,4.5661,4.5586,4.5586,4.5586,4.5586,4.5586,4.5586,4.5586,4.5586,4.5586,4.5586,4.5586,4.5586,4.5586,4.5586,4.5586,4.5586,4.5586,4.5586,4.5438,4.5159,4.4732,4.4392,4.4076,4.3631,4.3497,4.3497,4.3497,4.3314,4.2965,4.2158,4.1809,4.1479,4.0891,4.0139,3.9405,3.8817,3.815,3.772,3.772,3.6865,3.6182,3.6182,3.5854,3.5622,3.5622,3.5622,3.5622,3.5622,3.5622,3.5622,3.5622,3.5622,3.5622,3.5622,3.5622,3.5622,3.5622,3.527,3.4609,3.3633,3.3235,3.2408,3.124,3.0567,2.9924,2.931,2.931,2.8951,2.8356,2.9507,3.1185,3.2778,0.0,0.0,0.0,0.0,0.0,0.0,4.9092,4.9564,5.1113,5.1406,5.1406,5.1406,5.1406,5.1406,5.1406,5.1406,5.1406,5.1406,5.1406,5.1406,5.1406,5.1406,5.1211,5.0742,5.0703,5.0332,4.9492,4.8613,4.7988,4.7617,4.6758,4.6308,4.6308,4.6246,4.6175,4.6108,4.5946,4.5836,4.5796,4.5648,4.5586,4.5586,4.5586,4.5586,4.5586,4.5586,4.5586,4.5586,4.5586,4.5586,4.5586,4.5586,4.5586,4.5586,4.5586,4.5586,4.5586,4.5586,4.5362,4.5052,4.4682,4.4318,4.3924,4.3597,4.3497,4.3497,4.3497,4.3497,4.3369,4.291,4.2543,4.2176,4.1699,4.0983,4.0157,3.935,3.8485,3.7893,3.7893,3.723,3.6643,3.6416,3.6139,3.5854,3.5622,3.5622,3.5622,3.5622,3.5622,3.5622,3.5622,3.5622,3.5622,3.5622,3.5622,3.5622,3.5622,3.5316,3.48,3.4037,3.3495,3.2625,3.1482,3.1135,3.0597,2.9968,2.9699,2.937,2.8691,2.9559,3.1344,3.3521,0.0,0.0,0.0,0.0,0.0,0.0,4.964,4.9774,5.0174,5.0332,5.0391,5.0391,5.0723,5.1074,5.1367,5.1406,5.1406,5.1406,5.1406,5.1406,5.1406,5.1406,5.1406,5.1406,5.1406,5.1094,5.0371,4.9512,4.8691,4.791,4.7031,4.6582,4.6562,4.6345,4.624,4.6201,4.5938,4.5796,4.5769,4.5648,4.5586,4.5586,4.5586,4.5586,4.5586,4.5586,4.5586,4.5586,4.5586,4.5586,4.5586,4.5586,4.5586,4.5586,4.5586,4.5586,4.5586,4.5568,4.5322,4.4966,4.4631,4.428,4.3881,4.3597,4.3497,4.3497,4.3497,4.3497,4.3497,4.3497,4.2947,4.2433,4.2433,4.1809,4.1038,4.0304,3.9061,3.8106,3.8106,3.7632,3.7097,3.658,3.6416,3.6224,3.565,3.5622,3.5622,3.5622,3.5622,3.5622,3.5622,3.5622,3.5622,3.5622,3.5622,3.5622,3.5622,3.5052,3.4688,3.4576,3.3287,3.2216,3.1482,3.1482,3.121,3.0612,3.0058,2.9759,3.0228,3.0427,0.0,0.0,0.0,0.0,0.0,3.4679,0.0,0.0,3.9891,4.0561,4.2642,4.365,4.416,4.416,4.6504,4.9062,5.1113,5.1406,5.1406,5.1406,5.1406,5.1406,5.1406,5.1406,5.1406,5.1406,5.1406,5.1328,5.1172,5.0391,4.9863,4.9707,4.8848,4.8337,4.8228,4.7518,4.7041,4.6814,4.6132,4.5747,4.5635,4.562,4.5586,4.5586,4.5586,4.5586,4.5586,4.5586,4.5586,4.5586,4.5586,4.5586,4.5586,4.5586,4.5586,4.5586,4.5586,4.5586,4.5568,4.5302,4.4966,4.4631,4.4233,4.3881,4.3597,4.3513,4.3497,4.3497,4.3497,4.3497,4.3497,4.3497,4.3369,4.3259,4.3259,4.2635,4.2029,4.1864,4.0569,3.9497,3.9497,3.8534,3.7614,3.7114,3.6684,3.6224,3.565,3.5622,3.5622,3.5622,3.5622,3.5622,3.5622,3.5622,3.5622,3.5622,3.5622,3.5622,3.5622,3.547,3.5144,3.4624,3.3287,3.2216,3.1482,3.1482,3.1407,3.133,3.121,3.0851,0.0,0.0,0.0,3.1166,0.0,0.0,0.0,0.0,0.0,0.0,3.8914,3.9,4.1189,4.1296,4.1328,4.2165,4.4832,4.6967,4.7432,0.0,0.0,0.0,0.0,0.0,5.1406,5.1406,5.1406,5.1406,5.1406,5.1406,5.1406,5.0644,5.0195,5.0195,4.9291,4.8766,4.8699,4.77,4.7134,4.6983,4.6124,4.5665,4.5586,4.5586,4.5586,4.5586,4.5586,4.5586,4.5586,4.5586,4.5586,4.5586,4.5586,4.5586,4.5586,4.5586,4.5586,4.5586,4.5586,4.5586,4.5531,4.5201,4.4872,4.4527,4.4117,4.3791,4.3497,4.3497,4.3497,4.3497,4.3497,4.3497,4.3497,4.3497,4.3497,4.3497,4.3497,4.3167,4.2892,4.2892,4.1919,4.0836,4.0029,3.9355,3.8604,3.7685,3.7135,3.6603,3.6054,3.5783,3.5622,3.5622,3.5622,3.5622,3.5622,3.5622,3.5622,3.5622,3.5622,3.5622,3.5622,3.5622,3.5299,3.4624,3.3937,3.3077,3.2064,3.2064,3.1853,3.1482,3.1482,3.1287,0.0,0.0,0.0,0.0,0.0,3.191,0.0,0.0,0.0,0.0,0.0,0.0,0.0,0.0,0.0,0.0,0.0,0.0,0.0,0.0,0.0,0.0,0.0,0.0,5.0723,5.0527,5.0683,5.1348,5.0781,5.0703,5.1367,5.0781,5.043,5.043,4.9628,4.9181,4.9165,4.8055,4.7492,4.7448,4.6364,4.5836,4.5836,4.5682,4.5586,4.5586,4.5586,4.5586,4.5586,4.5586,4.5586,4.5586,4.5586,4.5586,4.5586,4.5586,4.5586,4.5586,4.5586,4.5586,4.5531,4.514,4.4732,4.4337,4.3986,4.3726,4.3497,4.3497,4.3497,4.3497,4.3497,4.3497,4.3497,4.3497,4.3497,4.3497,4.3497,4.3497,4.3497,4.3497,4.2983,4.2066,4.0598,4.023,3.9648,3.822,3.7665,3.7158,3.635,3.5854,3.5622,3.5622,3.5622,3.5622,3.5622,3.5622,3.5622,3.5622,3.5622,3.5622,3.5622,3.5622,3.5299,3.4624,3.4576,3.3937,3.2586,3.2586,3.2216,3.1482,3.1482,3.1482,0.0,0.0,0.0,0.0,3.2737,0.0,0.0,0.0,0.0,0.0,0.0,0.0,0.0,0.0,0.0,0.0,0.0,0.0,0.0,0.0,0.0,0.0,0.0,0.0,0.0,4.7324,4.8144,5.1172,4.8594,4.8203,5.123,5.1308,5.1269,5.1269,5.1034,5.0894,5.0821,4.9814,4.9251,4.9104,4.7527,4.6759,4.674,4.5951,4.5586,4.5586,4.5586,4.5586,4.5586,4.5586,4.5586,4.5586,4.5586,4.5586,4.5586,4.5586,4.5586,4.5586,4.5586,4.5586,4.5495,4.4853,4.4213,4.3631,4.3563,4.3513,4.3497,4.3497,4.3497,4.3497,4.3497,4.3497,4.3497,4.3497,4.3497,4.3497,4.3497,4.3497,4.3497,4.3497,4.3424,4.3075,4.2176,4.1442,4.0388,3.861,3.8312,3.7654,3.5895,3.5667,3.5622,3.5622,3.5622,3.5622,3.5622,3.5622,3.5622,3.5622,3.5622,3.5622,3.5622,3.5622,3.5299,3.4624,3.4576,3.3937,3.2586,3.2586,3.2216,3.1482,3.1482,3.1482,0.0,0.0,0.0,0.0,0.0,0.0,3.0467,0.0,2.9525,0.0,0.0,0.0,0.0,0.0,0.0,0.0,3.3549,0.0,0.0,0.0,0.0,0.0,0.0,0.0,0.0,0.0,0.0,0.0,4.7207,4.6836,4.9785,5.0365,5.0588,5.0588,5.0872,5.1011,5.0979,4.9981,4.9465,4.9375,4.7702,4.6913,4.6874,4.599,4.5586,4.5586,4.5586,4.5586,4.5586,4.5586,4.5586,4.5586,4.5586,4.5586,4.5586,4.5586,4.5586,4.5586,4.5586,4.5586,4.5495,4.4806,4.4223,4.374,4.3582,4.3497,4.3497,4.3497,4.3497,4.3497,4.3497,4.3497,4.3497,4.3497,4.3497,4.3497,4.3497,4.3497,4.3497,4.3497,4.3497,4.3387,4.3039,4.2323,4.1277,3.9677,3.921,3.8491,3.6922,3.6474,3.6129,3.5673,3.5622,3.5622,3.5622,3.5622,3.5622,3.5622,3.5622,3.5622,3.5622,3.5622,3.547,3.5207,3.5207,3.4496,3.3198,3.3198,3.2625,3.1482,3.1482,3.1482,3.6092,0.0,0.0,0.0,0.0,0.0,0.0,0.0,0.0,0.0,0.0,0.0,0.0,0.0,0.0,0.0,0.0,0.0,0.0,0.0,0.0,0.0,0.0,0.0,0.0,0.0,0.0,0.0,0.0,4.5136,4.8669,4.9583,4.9981,4.9945,5.0561,5.0908,5.0908,5.0138,4.976,4.974,4.8279,4.7586,4.7567,4.6682,4.6163,4.597,4.6182,4.6009,4.5605,4.5855,4.5817,4.5586,4.5586,4.5586,4.5586,4.5586,4.5586,4.5586,4.5586,4.5495,4.5243,4.4757,4.428,4.3836,4.3563,4.3497,4.3497,4.3497,4.3497,4.3497,4.3497,4.3497,4.3497,4.3497,4.3497,4.3497,4.3497,4.3497,4.3497,4.3497,4.3497,4.3497,4.3497,4.2898,4.194,4.056,3.9913,3.9115,3.7801,3.7132,3.6569,3.5994,3.574,3.5622,3.5622,3.5622,3.5622,3.5622,3.5622,3.5622,3.5622,3.5622,3.5622,3.5622,3.5622,3.4958,3.3582,3.3582,3.2864,3.1482,3.1482,3.1482,0.0,0.0,0.0,3.1929,0.0,0.0,0.0,0.0,2.9717,0.0,0.0,0.0,0.0,0.0,0.0,0.0,0.0,0.0,0.0,0.0,0.0,0.0,0.0,0.0,0.0,0.0,0.0,0.0,0.0,0.0,4.84,4.9528,4.9939,4.9809,5.0532,5.0908,5.0908,5.0736,5.0644,5.0644,4.974,4.9317,4.9298,4.8413,4.7586,4.6913,4.7682,4.7105,4.5663,4.6509,4.6355,4.5586,4.5586,4.5586,4.5586,4.5586,4.5586,4.5586,4.5586,4.5161,4.4631,4.4624,4.4125,4.3513,4.3479,4.3497,4.3497,4.3497,4.3497,4.3497,4.3497,4.3497,4.3497,4.3497,4.3497,4.3497,4.3497,4.3497,4.3497,4.3497,4.3497,4.3497,4.3497,4.3032,4.2214,4.0877,4.0166,3.9336,3.8034,3.7229,3.6772,3.6738,3.6062,3.5622,3.5622,3.5622,3.5622,3.5622,3.5622,3.5622,3.5622,3.5622,3.5622,3.5622,3.5622,3.4958,3.3582,3.3582,3.2864,3.1482,3.1482,3.1482,4.4318,4.5179,4.4874,3.6642,0.0,0.0,0.0,0.0,0.0,0.0,0.0,0.0,0.0,0.0,0.0,0.0,0.0,0.0,0.0,0.0,0.0,0.0,0.0,0.0,0.0,0.0,0.0,0.0,0.0,0.0,0.0,4.7949,4.8258,4.8793,4.9521,5.0177,5.0756,5.0721,5.0702,5.0683,4.9817,4.9394,4.9375,4.8509,4.7952,4.7721,4.799,4.749,4.6528,4.7355,4.6874,4.5663,4.624,4.6105,4.5586,4.5586,4.5586,4.5586,4.5586,4.5438,4.5182,4.4732,4.4419,4.4154,4.3664,4.3497,4.3497,4.3497,4.3497,4.3497,4.3497,4.3497,4.3497,4.3497,4.3497,4.3497,4.3497,4.3497,4.3497,4.3497,4.3497,4.3497,4.3497,4.3069,4.2564,4.2063,4.1505,4.0666,3.9325,3.8649,3.8058,3.7584,3.684,3.6383,3.6383,3.591,3.5622,3.5622,3.5622,3.5622,3.5622,3.5622,3.5622,3.5622,3.5622,3.5161,3.4284,3.3836,3.313,3.2216,3.1739,3.1482,4.7578,4.8701,4.8403,4.0485,3.9758,0.0,3.1083,0.0,3.0043,0.0,0.0,0.0,0.0,0.0,0.0,0.0,0.0,0.0,0.0,0.0,0.0,0.0,0.0,0.0,0.0,0.0,0.0,0.0,0.0,0.0,0.0,0.0,4.743,4.8195,4.9037,4.9872,5.0683,5.0702,5.0702,5.0683,5.0125,4.9856,4.9837,4.9279,4.8856,4.8586,4.8894,4.8375,4.7375,4.7894,4.7298,4.6086,4.6336,4.6086,4.5586,4.5586,4.5586,4.5586,4.5586,4.5513,4.5342,4.4919,4.4606,4.4308,4.3804,4.3597,4.3497,4.3497,4.3497,4.3497,4.3497,4.3497,4.3497,4.3497,4.3497,4.3497,4.3497,4.3497,4.3497,4.3497,4.3497,4.3497,4.3497,4.3214,4.2846,4.244,4.1853,4.1093,4.0048,3.9399,3.8819,3.8345,3.7618,3.706,3.6806,3.6062,3.5622,3.5622,3.5622,3.5622,3.5622,3.5622,3.5622,3.5622,3.5622,3.5161,3.4235,3.3836,3.313,3.2231,3.1739,3.1482]}]]